<?xml version="1.0" encoding="utf-8"?>
<gpx xmlns:xsi="http://www.w3.org/2001/XMLSchema-instance" xmlns:xsd="http://www.w3.org/2001/XMLSchema" version="1.1" creator="Shapelink.com" xmlns="http://www.topografix.com/GPX/1/1" xmlns:gpxtpx="http://www.garmin.com/xmlschemas/TrackPointExtension/v1">
  <metadata>
    <name>Nordic Skiing 26.09 km, 2015-02-21</name>
    <desc></desc>
    <author><name>Stefan Östlund</name></author> 
    <time>2015-02-21T10:43:27Z</time>
  </metadata>
  <trk>
    <name>Nordic Skiing 26.09 km, 2015-02-21</name>
    <trkseg>
      <trkpt lat="60.093510612001" lon="15.901029323879">
        <ele>155.8</ele>
        <time>2015-02-21T10:43:27Z</time>
      </trkpt>
      <trkpt lat="60.093551096578" lon="15.901097804002">
        <ele>156</ele>
        <time>2015-02-21T10:43:30Z</time>
      </trkpt>
      <trkpt lat="60.093631227542" lon="15.901214396231">
        <ele>156.4</ele>
        <time>2015-02-21T10:43:34Z</time>
      </trkpt>
      <trkpt lat="60.093764080657" lon="15.901292012625">
        <ele>156.2</ele>
        <time>2015-02-21T10:43:39Z</time>
      </trkpt>
      <trkpt lat="60.093912607925" lon="15.901274578273">
        <ele>156.6</ele>
        <time>2015-02-21T10:43:45Z</time>
      </trkpt>
      <trkpt lat="60.093932975942" lon="15.901278266309">
        <ele>157.2</ele>
        <time>2015-02-21T10:43:46Z</time>
      </trkpt>
      <trkpt lat="60.094032469095" lon="15.901315984859">
        <ele>158</ele>
        <time>2015-02-21T10:43:50Z</time>
      </trkpt>
      <trkpt lat="60.094180577268" lon="15.901368874648">
        <ele>158.2</ele>
        <time>2015-02-21T10:43:55Z</time>
      </trkpt>
      <trkpt lat="60.094213434316" lon="15.901382201869">
        <ele>158.4</ele>
        <time>2015-02-21T10:43:56Z</time>
      </trkpt>
      <trkpt lat="60.09432709288" lon="15.901435259296">
        <ele>158.6</ele>
        <time>2015-02-21T10:44:00Z</time>
      </trkpt>
      <trkpt lat="60.094469082266" lon="15.901632150127">
        <ele>159.2</ele>
        <time>2015-02-21T10:44:06Z</time>
      </trkpt>
      <trkpt lat="60.094583998115" lon="15.901802973249">
        <ele>159.4</ele>
        <time>2015-02-21T10:44:11Z</time>
      </trkpt>
      <trkpt lat="60.094701931448" lon="15.901965833566">
        <ele>160.4</ele>
        <time>2015-02-21T10:44:16Z</time>
      </trkpt>
      <trkpt lat="60.094829923061" lon="15.902168004994">
        <ele>160.6</ele>
        <time>2015-02-21T10:44:21Z</time>
      </trkpt>
      <trkpt lat="60.094901085392" lon="15.902333212243">
        <ele>160.8</ele>
        <time>2015-02-21T10:44:25Z</time>
      </trkpt>
      <trkpt lat="60.095020527467" lon="15.902556757516">
        <ele>161.2</ele>
        <time>2015-02-21T10:44:31Z</time>
      </trkpt>
      <trkpt lat="60.095139718085" lon="15.902763622808">
        <ele>161.6</ele>
        <time>2015-02-21T10:44:36Z</time>
      </trkpt>
      <trkpt lat="60.095168132726" lon="15.902852973862">
        <ele>161.8</ele>
        <time>2015-02-21T10:44:38Z</time>
      </trkpt>
      <trkpt lat="60.095207024742" lon="15.902917095397">
        <ele>162</ele>
        <time>2015-02-21T10:44:40Z</time>
      </trkpt>
      <trkpt lat="60.095268296431" lon="15.902952969929">
        <ele>162.2</ele>
        <time>2015-02-21T10:44:42Z</time>
      </trkpt>
      <trkpt lat="60.095372483448" lon="15.902996052895">
        <ele>162.8</ele>
        <time>2015-02-21T10:44:46Z</time>
      </trkpt>
      <trkpt lat="60.095455380439" lon="15.903089427261">
        <ele>164</ele>
        <time>2015-02-21T10:44:50Z</time>
      </trkpt>
      <trkpt lat="60.095494440093" lon="15.903165031999">
        <ele>164.2</ele>
        <time>2015-02-21T10:44:52Z</time>
      </trkpt>
      <trkpt lat="60.095560992379" lon="15.903279277296">
        <ele>164.2</ele>
        <time>2015-02-21T10:44:55Z</time>
      </trkpt>
      <trkpt lat="60.095681440282" lon="15.903419255026">
        <ele>165.2</ele>
        <time>2015-02-21T10:45:00Z</time>
      </trkpt>
      <trkpt lat="60.095698120263" lon="15.903433420437">
        <ele>165.2</ele>
        <time>2015-02-21T10:45:01Z</time>
      </trkpt>
      <trkpt lat="60.095831560111" lon="15.903526962441">
        <ele>166.2</ele>
        <time>2015-02-21T10:45:06Z</time>
      </trkpt>
      <trkpt lat="60.095880175131" lon="15.90355135377">
        <ele>166.4</ele>
        <time>2015-02-21T10:45:08Z</time>
      </trkpt>
      <trkpt lat="60.096030127322" lon="15.90357985223">
        <ele>166.2</ele>
        <time>2015-02-21T10:45:13Z</time>
      </trkpt>
      <trkpt lat="60.096173373993" lon="15.903683033419">
        <ele>166.6</ele>
        <time>2015-02-21T10:45:18Z</time>
      </trkpt>
      <trkpt lat="60.096255013699" lon="15.903781520744">
        <ele>167.4</ele>
        <time>2015-02-21T10:45:22Z</time>
      </trkpt>
      <trkpt lat="60.096269011472" lon="15.903807672272">
        <ele>167.8</ele>
        <time>2015-02-21T10:45:23Z</time>
      </trkpt>
      <trkpt lat="60.096345202943" lon="15.903994588642">
        <ele>168.6</ele>
        <time>2015-02-21T10:45:27Z</time>
      </trkpt>
      <trkpt lat="60.096370683919" lon="15.90407186976">
        <ele>168.4</ele>
        <time>2015-02-21T10:45:28Z</time>
      </trkpt>
      <trkpt lat="60.096459699697" lon="15.904410247063">
        <ele>168.4</ele>
        <time>2015-02-21T10:45:33Z</time>
      </trkpt>
      <trkpt lat="60.096564892542" lon="15.904671510886">
        <ele>168.2</ele>
        <time>2015-02-21T10:45:38Z</time>
      </trkpt>
      <trkpt lat="60.096660362383" lon="15.905026484351">
        <ele>168.2</ele>
        <time>2015-02-21T10:45:44Z</time>
      </trkpt>
      <trkpt lat="60.096776535517" lon="15.905261680465">
        <ele>169</ele>
        <time>2015-02-21T10:45:50Z</time>
      </trkpt>
      <trkpt lat="60.096924392233" lon="15.905342733438">
        <ele>169.2</ele>
        <time>2015-02-21T10:45:55Z</time>
      </trkpt>
      <trkpt lat="60.097021706092" lon="15.905371148079">
        <ele>169.6</ele>
        <time>2015-02-21T10:45:59Z</time>
      </trkpt>
      <trkpt lat="60.097079960297" lon="15.905395874684">
        <ele>170</ele>
        <time>2015-02-21T10:46:01Z</time>
      </trkpt>
      <trkpt lat="60.097244077899" lon="15.905515065302">
        <ele>170.6</ele>
        <time>2015-02-21T10:46:07Z</time>
      </trkpt>
      <trkpt lat="60.097271486712" lon="15.905548676721">
        <ele>170.8</ele>
        <time>2015-02-21T10:46:08Z</time>
      </trkpt>
      <trkpt lat="60.097356479178" lon="15.905699970016">
        <ele>171.2</ele>
        <time>2015-02-21T10:46:12Z</time>
      </trkpt>
      <trkpt lat="60.097405680931" lon="15.905956539975">
        <ele>171.2</ele>
        <time>2015-02-21T10:46:16Z</time>
      </trkpt>
      <trkpt lat="60.097418924333" lon="15.906020493872">
        <ele>171.2</ele>
        <time>2015-02-21T10:46:17Z</time>
      </trkpt>
      <trkpt lat="60.097439124712" lon="15.906109090555">
        <ele>171</ele>
        <time>2015-02-21T10:46:18Z</time>
      </trkpt>
      <trkpt lat="60.097533588725" lon="15.906456017396">
        <ele>169.8</ele>
        <time>2015-02-21T10:46:23Z</time>
      </trkpt>
      <trkpt lat="60.097605589246" lon="15.906942419053">
        <ele>170.2</ele>
        <time>2015-02-21T10:46:30Z</time>
      </trkpt>
      <trkpt lat="60.097710614453" lon="15.907295297043">
        <ele>171</ele>
        <time>2015-02-21T10:46:36Z</time>
      </trkpt>
      <trkpt lat="60.097863165033" lon="15.907495121539">
        <ele>171.2</ele>
        <time>2015-02-21T10:46:40Z</time>
      </trkpt>
      <trkpt lat="60.098047902109" lon="15.90768614504">
        <ele>170.8</ele>
        <time>2015-02-21T10:46:45Z</time>
      </trkpt>
      <trkpt lat="60.09816097394" lon="15.907784716184">
        <ele>170.6</ele>
        <time>2015-02-21T10:46:48Z</time>
      </trkpt>
      <trkpt lat="60.098201123241" lon="15.907811705902">
        <ele>170.8</ele>
        <time>2015-02-21T10:46:49Z</time>
      </trkpt>
      <trkpt lat="60.098339843686" lon="15.907875408342">
        <ele>171</ele>
        <time>2015-02-21T10:46:52Z</time>
      </trkpt>
      <trkpt lat="60.09842751836" lon="15.907901727508">
        <ele>171.2</ele>
        <time>2015-02-21T10:46:54Z</time>
      </trkpt>
      <trkpt lat="60.098604124993" lon="15.907983283395">
        <ele>171</ele>
        <time>2015-02-21T10:46:59Z</time>
      </trkpt>
      <trkpt lat="60.098680903197" lon="15.908056373563">
        <ele>170.8</ele>
        <time>2015-02-21T10:47:01Z</time>
      </trkpt>
      <trkpt lat="60.09880302748" lon="15.908225017391">
        <ele>171.2</ele>
        <time>2015-02-21T10:47:04Z</time>
      </trkpt>
      <trkpt lat="60.098834291967" lon="15.908284780338">
        <ele>171.2</ele>
        <time>2015-02-21T10:47:05Z</time>
      </trkpt>
      <trkpt lat="60.098912159818" lon="15.908445209904">
        <ele>171</ele>
        <time>2015-02-21T10:47:07Z</time>
      </trkpt>
      <trkpt lat="60.09894635797" lon="15.908533890406">
        <ele>170.8</ele>
        <time>2015-02-21T10:47:08Z</time>
      </trkpt>
      <trkpt lat="60.099046354037" lon="15.908807224165">
        <ele>170.2</ele>
        <time>2015-02-21T10:47:12Z</time>
      </trkpt>
      <trkpt lat="60.099180632075" lon="15.909076366974">
        <ele>170.6</ele>
        <time>2015-02-21T10:47:17Z</time>
      </trkpt>
      <trkpt lat="60.099321112719" lon="15.909375433166">
        <ele>170.2</ele>
        <time>2015-02-21T10:47:22Z</time>
      </trkpt>
      <trkpt lat="60.099418594216" lon="15.909636445532">
        <ele>170.6</ele>
        <time>2015-02-21T10:47:26Z</time>
      </trkpt>
      <trkpt lat="60.09943586093" lon="15.909688078036">
        <ele>170.4</ele>
        <time>2015-02-21T10:47:27Z</time>
      </trkpt>
      <trkpt lat="60.09954566382" lon="15.910049254107">
        <ele>171</ele>
        <time>2015-02-21T10:47:33Z</time>
      </trkpt>
      <trkpt lat="60.099584807293" lon="15.910185879077">
        <ele>170.8</ele>
        <time>2015-02-21T10:47:35Z</time>
      </trkpt>
      <trkpt lat="60.099622861119" lon="15.910310350292">
        <ele>170.4</ele>
        <time>2015-02-21T10:47:37Z</time>
      </trkpt>
      <trkpt lat="60.099749763085" lon="15.910421745743">
        <ele>171</ele>
        <time>2015-02-21T10:47:41Z</time>
      </trkpt>
      <trkpt lat="60.099830480782" lon="15.910441946122">
        <ele>171</ele>
        <time>2015-02-21T10:47:43Z</time>
      </trkpt>
      <trkpt lat="60.099958640033" lon="15.91041445349">
        <ele>171.2</ele>
        <time>2015-02-21T10:47:47Z</time>
      </trkpt>
      <trkpt lat="60.100069867846" lon="15.910320911486">
        <ele>171.8</ele>
        <time>2015-02-21T10:47:50Z</time>
      </trkpt>
      <trkpt lat="60.100101132333" lon="15.910279588719">
        <ele>172</ele>
        <time>2015-02-21T10:47:51Z</time>
      </trkpt>
      <trkpt lat="60.100227782842" lon="15.910113291823">
        <ele>172.6</ele>
        <time>2015-02-21T10:47:54Z</time>
      </trkpt>
      <trkpt lat="60.100264914659" lon="15.910071549961">
        <ele>172.4</ele>
        <time>2015-02-21T10:47:55Z</time>
      </trkpt>
      <trkpt lat="60.1004358216" lon="15.909871893103">
        <ele>172.2</ele>
        <time>2015-02-21T10:48:00Z</time>
      </trkpt>
      <trkpt lat="60.100463817146" lon="15.909849178154">
        <ele>172.2</ele>
        <time>2015-02-21T10:48:01Z</time>
      </trkpt>
      <trkpt lat="60.100609159292" lon="15.909740800187">
        <ele>172.4</ele>
        <time>2015-02-21T10:48:05Z</time>
      </trkpt>
      <trkpt lat="60.10073924638" lon="15.909607863253">
        <ele>173.2</ele>
        <time>2015-02-21T10:48:09Z</time>
      </trkpt>
      <trkpt lat="60.100784843916" lon="15.909552542713">
        <ele>173.4</ele>
        <time>2015-02-21T10:48:10Z</time>
      </trkpt>
      <trkpt lat="60.100947536595" lon="15.909343162851">
        <ele>173.2</ele>
        <time>2015-02-21T10:48:14Z</time>
      </trkpt>
      <trkpt lat="60.101014759433" lon="15.909183236199">
        <ele>172.4</ele>
        <time>2015-02-21T10:48:16Z</time>
      </trkpt>
      <trkpt lat="60.101036887649" lon="15.909103189054">
        <ele>172.2</ele>
        <time>2015-02-21T10:48:17Z</time>
      </trkpt>
      <trkpt lat="60.101064547919" lon="15.909013921819">
        <ele>171.6</ele>
        <time>2015-02-21T10:48:18Z</time>
      </trkpt>
      <trkpt lat="60.101139733562" lon="15.908900598531">
        <ele>171.2</ele>
        <time>2015-02-21T10:48:20Z</time>
      </trkpt>
      <trkpt lat="60.101172925886" lon="15.908874614641">
        <ele>171.2</ele>
        <time>2015-02-21T10:48:21Z</time>
      </trkpt>
      <trkpt lat="60.101315334367" lon="15.908853324615">
        <ele>171</ele>
        <time>2015-02-21T10:48:24Z</time>
      </trkpt>
      <trkpt lat="60.101342491723" lon="15.908866987112">
        <ele>171</ele>
        <time>2015-02-21T10:48:25Z</time>
      </trkpt>
      <trkpt lat="60.101564947349" lon="15.908936808339">
        <ele>171.4</ele>
        <time>2015-02-21T10:48:30Z</time>
      </trkpt>
      <trkpt lat="60.101740380516" lon="15.908778558067">
        <ele>171.4</ele>
        <time>2015-02-21T10:48:34Z</time>
      </trkpt>
      <trkpt lat="60.101909694896" lon="15.908401204929">
        <ele>170</ele>
        <time>2015-02-21T10:48:39Z</time>
      </trkpt>
      <trkpt lat="60.101964512522" lon="15.908270279651">
        <ele>169.6</ele>
        <time>2015-02-21T10:48:41Z</time>
      </trkpt>
      <trkpt lat="60.102025532754" lon="15.908117309976">
        <ele>169.6</ele>
        <time>2015-02-21T10:48:43Z</time>
      </trkpt>
      <trkpt lat="60.102141622069" lon="15.907860153284">
        <ele>170</ele>
        <time>2015-02-21T10:48:46Z</time>
      </trkpt>
      <trkpt lat="60.102161822448" lon="15.907766192185">
        <ele>169.8</ele>
        <time>2015-02-21T10:48:47Z</time>
      </trkpt>
      <trkpt lat="60.102196355876" lon="15.907330165747">
        <ele>168.6</ele>
        <time>2015-02-21T10:48:50Z</time>
      </trkpt>
      <trkpt lat="60.102192751659" lon="15.907181470841">
        <ele>168.4</ele>
        <time>2015-02-21T10:48:51Z</time>
      </trkpt>
      <trkpt lat="60.102158218231" lon="15.907062783137">
        <ele>166.8</ele>
        <time>2015-02-21T10:48:52Z</time>
      </trkpt>
      <trkpt lat="60.102108681202" lon="15.906843177357">
        <ele>165.4</ele>
        <time>2015-02-21T10:48:54Z</time>
      </trkpt>
      <trkpt lat="60.102080015104" lon="15.906673695339">
        <ele>163.6</ele>
        <time>2015-02-21T10:48:56Z</time>
      </trkpt>
      <trkpt lat="60.102071046471" lon="15.906588032321">
        <ele>163.4</ele>
        <time>2015-02-21T10:48:57Z</time>
      </trkpt>
      <trkpt lat="60.102055623775" lon="15.906218222893">
        <ele>163.8</ele>
        <time>2015-02-21T10:49:00Z</time>
      </trkpt>
      <trkpt lat="60.102059479449" lon="15.906136834644">
        <ele>163.8</ele>
        <time>2015-02-21T10:49:01Z</time>
      </trkpt>
      <trkpt lat="60.102070040643" lon="15.906018817492">
        <ele>163.6</ele>
        <time>2015-02-21T10:49:02Z</time>
      </trkpt>
      <trkpt lat="60.102098203827" lon="15.905840283022">
        <ele>163.4</ele>
        <time>2015-02-21T10:49:04Z</time>
      </trkpt>
      <trkpt lat="60.102143885182" lon="15.905595196266">
        <ele>163.6</ele>
        <time>2015-02-21T10:49:07Z</time>
      </trkpt>
      <trkpt lat="60.102244551801" lon="15.905068561489">
        <ele>164</ele>
        <time>2015-02-21T10:49:12Z</time>
      </trkpt>
      <trkpt lat="60.102269110768" lon="15.904970577078">
        <ele>164</ele>
        <time>2015-02-21T10:49:13Z</time>
      </trkpt>
      <trkpt lat="60.102317893426" lon="15.904902683688">
        <ele>163.8</ele>
        <time>2015-02-21T10:49:14Z</time>
      </trkpt>
      <trkpt lat="60.102407747394" lon="15.904774189161">
        <ele>162.8</ele>
        <time>2015-02-21T10:49:16Z</time>
      </trkpt>
      <trkpt lat="60.102440520623" lon="15.904722808114">
        <ele>162.2</ele>
        <time>2015-02-21T10:49:17Z</time>
      </trkpt>
      <trkpt lat="60.102639590748" lon="15.904425669759">
        <ele>161.8</ele>
        <time>2015-02-21T10:49:22Z</time>
      </trkpt>
      <trkpt lat="60.102811754974" lon="15.904118305486">
        <ele>162.8</ele>
        <time>2015-02-21T10:49:27Z</time>
      </trkpt>
      <trkpt lat="60.10285483794" lon="15.904051417924">
        <ele>162.8</ele>
        <time>2015-02-21T10:49:28Z</time>
      </trkpt>
      <trkpt lat="60.102887443531" lon="15.904001713257">
        <ele>162.8</ele>
        <time>2015-02-21T10:49:29Z</time>
      </trkpt>
      <trkpt lat="60.10297972825" lon="15.903898867344">
        <ele>162.4</ele>
        <time>2015-02-21T10:49:32Z</time>
      </trkpt>
      <trkpt lat="60.103063631069" lon="15.90366199485">
        <ele>163.4</ele>
        <time>2015-02-21T10:49:37Z</time>
      </trkpt>
      <trkpt lat="60.103107216949" lon="15.903351948369">
        <ele>164</ele>
        <time>2015-02-21T10:49:41Z</time>
      </trkpt>
      <trkpt lat="60.103068911666" lon="15.903000495302">
        <ele>164</ele>
        <time>2015-02-21T10:49:46Z</time>
      </trkpt>
      <trkpt lat="60.103036222256" lon="15.902871665499">
        <ele>164.4</ele>
        <time>2015-02-21T10:49:48Z</time>
      </trkpt>
      <trkpt lat="60.102988277788" lon="15.902757671659">
        <ele>164.4</ele>
        <time>2015-02-21T10:49:50Z</time>
      </trkpt>
      <trkpt lat="60.102830111335" lon="15.902446284074">
        <ele>165</ele>
        <time>2015-02-21T10:49:56Z</time>
      </trkpt>
      <trkpt lat="60.102786609274" lon="15.902385180023">
        <ele>165.4</ele>
        <time>2015-02-21T10:49:58Z</time>
      </trkpt>
      <trkpt lat="60.102729612354" lon="15.902303707955">
        <ele>165.8</ele>
        <time>2015-02-21T10:50:00Z</time>
      </trkpt>
      <trkpt lat="60.102599944361" lon="15.901986369221">
        <ele>166</ele>
        <time>2015-02-21T10:50:06Z</time>
      </trkpt>
      <trkpt lat="60.102516125361" lon="15.901796267729">
        <ele>166.2</ele>
        <time>2015-02-21T10:50:10Z</time>
      </trkpt>
      <trkpt lat="60.102435910578" lon="15.901639358561">
        <ele>166.4</ele>
        <time>2015-02-21T10:50:13Z</time>
      </trkpt>
      <trkpt lat="60.102371369948" lon="15.901457471331">
        <ele>166.2</ele>
        <time>2015-02-21T10:50:16Z</time>
      </trkpt>
      <trkpt lat="60.102298698875" lon="15.901166116487">
        <ele>166.8</ele>
        <time>2015-02-21T10:50:21Z</time>
      </trkpt>
      <trkpt lat="60.102245138534" lon="15.900868391399">
        <ele>167.8</ele>
        <time>2015-02-21T10:50:26Z</time>
      </trkpt>
      <trkpt lat="60.10223457734" lon="15.900825308433">
        <ele>167.6</ele>
        <time>2015-02-21T10:50:27Z</time>
      </trkpt>
      <trkpt lat="60.102182441922" lon="15.900638727339">
        <ele>168</ele>
        <time>2015-02-21T10:50:30Z</time>
      </trkpt>
      <trkpt lat="60.102122092242" lon="15.900508640251">
        <ele>167.8</ele>
        <time>2015-02-21T10:50:32Z</time>
      </trkpt>
      <trkpt lat="60.102060150001" lon="15.900418870102">
        <ele>167.8</ele>
        <time>2015-02-21T10:50:34Z</time>
      </trkpt>
      <trkpt lat="60.101975157535" lon="15.900370087444">
        <ele>167.8</ele>
        <time>2015-02-21T10:50:36Z</time>
      </trkpt>
      <trkpt lat="60.101936349338" lon="15.900374697489">
        <ele>167.8</ele>
        <time>2015-02-21T10:50:37Z</time>
      </trkpt>
      <trkpt lat="60.101652202928" lon="15.90050872407">
        <ele>166.4</ele>
        <time>2015-02-21T10:50:42Z</time>
      </trkpt>
      <trkpt lat="60.101605515745" lon="15.900538144539">
        <ele>165.6</ele>
        <time>2015-02-21T10:50:43Z</time>
      </trkpt>
      <trkpt lat="60.101541561848" lon="15.900579551125">
        <ele>165</ele>
        <time>2015-02-21T10:50:44Z</time>
      </trkpt>
      <trkpt lat="60.101434524985" lon="15.900629758706">
        <ele>164</ele>
        <time>2015-02-21T10:50:46Z</time>
      </trkpt>
      <trkpt lat="60.101400745928" lon="15.900646857782">
        <ele>163.8</ele>
        <time>2015-02-21T10:50:47Z</time>
      </trkpt>
      <trkpt lat="60.101358333514" lon="15.900664543591">
        <ele>163.6</ele>
        <time>2015-02-21T10:50:48Z</time>
      </trkpt>
      <trkpt lat="60.101199664147" lon="15.900689018739">
        <ele>164.6</ele>
        <time>2015-02-21T10:50:52Z</time>
      </trkpt>
      <trkpt lat="60.101160688312" lon="15.900692036223">
        <ele>164.8</ele>
        <time>2015-02-21T10:50:53Z</time>
      </trkpt>
      <trkpt lat="60.101111738016" lon="15.90070653691">
        <ele>165.2</ele>
        <time>2015-02-21T10:50:54Z</time>
      </trkpt>
      <trkpt lat="60.100986847706" lon="15.900744926012">
        <ele>165.2</ele>
        <time>2015-02-21T10:50:57Z</time>
      </trkpt>
      <trkpt lat="60.100936388668" lon="15.9007492846">
        <ele>165.2</ele>
        <time>2015-02-21T10:50:58Z</time>
      </trkpt>
      <trkpt lat="60.100840583551" lon="15.900739142501">
        <ele>165</ele>
        <time>2015-02-21T10:51:00Z</time>
      </trkpt>
      <trkpt lat="60.10075852475" lon="15.900705279625">
        <ele>165.2</ele>
        <time>2015-02-21T10:51:02Z</time>
      </trkpt>
      <trkpt lat="60.100542523187" lon="15.900614419829">
        <ele>165.8</ele>
        <time>2015-02-21T10:51:08Z</time>
      </trkpt>
      <trkpt lat="60.100421488551" lon="15.900460863421">
        <ele>165.6</ele>
        <time>2015-02-21T10:51:13Z</time>
      </trkpt>
      <trkpt lat="60.1003436207" lon="15.900348294504">
        <ele>165</ele>
        <time>2015-02-21T10:51:16Z</time>
      </trkpt>
      <trkpt lat="60.100312775308" lon="15.900340918432">
        <ele>165</ele>
        <time>2015-02-21T10:51:17Z</time>
      </trkpt>
      <trkpt lat="60.100189477559" lon="15.900397580076">
        <ele>165</ele>
        <time>2015-02-21T10:51:20Z</time>
      </trkpt>
      <trkpt lat="60.099991161805" lon="15.900672087301">
        <ele>165.6</ele>
        <time>2015-02-21T10:51:26Z</time>
      </trkpt>
      <trkpt lat="60.099850178247" lon="15.900919688627">
        <ele>164.2</ele>
        <time>2015-02-21T10:51:31Z</time>
      </trkpt>
      <trkpt lat="60.099752948207" lon="15.90101499083">
        <ele>164.8</ele>
        <time>2015-02-21T10:51:34Z</time>
      </trkpt>
      <trkpt lat="60.099713888553" lon="15.901033095734">
        <ele>164.8</ele>
        <time>2015-02-21T10:51:35Z</time>
      </trkpt>
      <trkpt lat="60.099674493623" lon="15.901054972493">
        <ele>165.4</ele>
        <time>2015-02-21T10:51:36Z</time>
      </trkpt>
      <trkpt lat="60.099514147876" lon="15.901104593341">
        <ele>165.8</ele>
        <time>2015-02-21T10:51:40Z</time>
      </trkpt>
      <trkpt lat="60.099436028568" lon="15.901104760979">
        <ele>165.8</ele>
        <time>2015-02-21T10:51:42Z</time>
      </trkpt>
      <trkpt lat="60.099365704427" lon="15.901123871711">
        <ele>165.6</ele>
        <time>2015-02-21T10:51:44Z</time>
      </trkpt>
      <trkpt lat="60.099180967351" lon="15.901198219164">
        <ele>165.6</ele>
        <time>2015-02-21T10:51:49Z</time>
      </trkpt>
      <trkpt lat="60.098997906655" lon="15.901311374814">
        <ele>165.8</ele>
        <time>2015-02-21T10:51:54Z</time>
      </trkpt>
      <trkpt lat="60.098864466807" lon="15.901343393672">
        <ele>166.2</ele>
        <time>2015-02-21T10:51:58Z</time>
      </trkpt>
      <trkpt lat="60.09876614712" lon="15.90138044167">
        <ele>166.4</ele>
        <time>2015-02-21T10:52:01Z</time>
      </trkpt>
      <trkpt lat="60.098710407485" lon="15.901392343968">
        <ele>166.8</ele>
        <time>2015-02-21T10:52:03Z</time>
      </trkpt>
      <trkpt lat="60.098677215161" lon="15.901371808313">
        <ele>166.8</ele>
        <time>2015-02-21T10:52:04Z</time>
      </trkpt>
      <trkpt lat="60.098614770006" lon="15.901301316534">
        <ele>166.8</ele>
        <time>2015-02-21T10:52:07Z</time>
      </trkpt>
      <trkpt lat="60.098572776687" lon="15.901260999595">
        <ele>167.6</ele>
        <time>2015-02-21T10:52:09Z</time>
      </trkpt>
      <trkpt lat="60.098513600473" lon="15.901207271616">
        <ele>168.2</ele>
        <time>2015-02-21T10:52:11Z</time>
      </trkpt>
      <trkpt lat="60.098471774792" lon="15.901134516724">
        <ele>168.6</ele>
        <time>2015-02-21T10:52:13Z</time>
      </trkpt>
      <trkpt lat="60.098402037384" lon="15.901034436838">
        <ele>169</ele>
        <time>2015-02-21T10:52:17Z</time>
      </trkpt>
      <trkpt lat="60.098306399905" lon="15.900920778274">
        <ele>169.4</ele>
        <time>2015-02-21T10:52:22Z</time>
      </trkpt>
      <trkpt lat="60.098249905899" lon="15.900866798838">
        <ele>169.6</ele>
        <time>2015-02-21T10:52:24Z</time>
      </trkpt>
      <trkpt lat="60.098150748022" lon="15.900789601539">
        <ele>169.8</ele>
        <time>2015-02-21T10:52:27Z</time>
      </trkpt>
      <trkpt lat="60.097995934329" lon="15.900676613527">
        <ele>169.2</ele>
        <time>2015-02-21T10:52:31Z</time>
      </trkpt>
      <trkpt lat="60.097950755888" lon="15.90065373094">
        <ele>169</ele>
        <time>2015-02-21T10:52:32Z</time>
      </trkpt>
      <trkpt lat="60.097758139826" lon="15.900611067069">
        <ele>169.4</ele>
        <time>2015-02-21T10:52:38Z</time>
      </trkpt>
      <trkpt lat="60.09762201777" lon="15.900587262473">
        <ele>170.2</ele>
        <time>2015-02-21T10:52:44Z</time>
      </trkpt>
      <trkpt lat="60.097574324759" lon="15.900588016844">
        <ele>170.8</ele>
        <time>2015-02-21T10:52:46Z</time>
      </trkpt>
      <trkpt lat="60.097536187114" lon="15.900594638545">
        <ele>171</ele>
        <time>2015-02-21T10:52:48Z</time>
      </trkpt>
      <trkpt lat="60.097517495477" lon="15.900609223051">
        <ele>171.2</ele>
        <time>2015-02-21T10:52:49Z</time>
      </trkpt>
      <trkpt lat="60.09746443805" lon="15.900639565529">
        <ele>172</ele>
        <time>2015-02-21T10:52:52Z</time>
      </trkpt>
      <trkpt lat="60.097406100026" lon="15.900643085927">
        <ele>172.8</ele>
        <time>2015-02-21T10:52:55Z</time>
      </trkpt>
      <trkpt lat="60.097301493914" lon="15.900643002108">
        <ele>172.8</ele>
        <time>2015-02-21T10:52:59Z</time>
      </trkpt>
      <trkpt lat="60.097148188963" lon="15.900755487206">
        <ele>173</ele>
        <time>2015-02-21T10:53:04Z</time>
      </trkpt>
      <trkpt lat="60.096981137696" lon="15.900956652806">
        <ele>172.8</ele>
        <time>2015-02-21T10:53:09Z</time>
      </trkpt>
      <trkpt lat="60.09680562071" lon="15.901221520846">
        <ele>172.4</ele>
        <time>2015-02-21T10:53:14Z</time>
      </trkpt>
      <trkpt lat="60.09666648117" lon="15.901399803859">
        <ele>172.2</ele>
        <time>2015-02-21T10:53:18Z</time>
      </trkpt>
      <trkpt lat="60.096577297754" lon="15.901428302319">
        <ele>172</ele>
        <time>2015-02-21T10:53:20Z</time>
      </trkpt>
      <trkpt lat="60.096469338882" lon="15.901404330085">
        <ele>171.6</ele>
        <time>2015-02-21T10:53:22Z</time>
      </trkpt>
      <trkpt lat="60.096319051415" lon="15.901339621817">
        <ele>170.8</ele>
        <time>2015-02-21T10:53:24Z</time>
      </trkpt>
      <trkpt lat="60.096160968781" lon="15.901267453658">
        <ele>169</ele>
        <time>2015-02-21T10:53:26Z</time>
      </trkpt>
      <trkpt lat="60.096032390435" lon="15.901211378747">
        <ele>167.4</ele>
        <time>2015-02-21T10:53:28Z</time>
      </trkpt>
      <trkpt lat="60.095969526185" lon="15.901186065409">
        <ele>167</ele>
        <time>2015-02-21T10:53:29Z</time>
      </trkpt>
      <trkpt lat="60.095921414079" lon="15.901189418169">
        <ele>166</ele>
        <time>2015-02-21T10:53:30Z</time>
      </trkpt>
      <trkpt lat="60.095811862646" lon="15.901225711796">
        <ele>165.2</ele>
        <time>2015-02-21T10:53:32Z</time>
      </trkpt>
      <trkpt lat="60.095779257055" lon="15.901247504736">
        <ele>164.8</ele>
        <time>2015-02-21T10:53:33Z</time>
      </trkpt>
      <trkpt lat="60.095704155231" lon="15.901344567138">
        <ele>165.4</ele>
        <time>2015-02-21T10:53:35Z</time>
      </trkpt>
      <trkpt lat="60.095661407541" lon="15.901381447498">
        <ele>166.2</ele>
        <time>2015-02-21T10:53:36Z</time>
      </trkpt>
      <trkpt lat="60.095509611332" lon="15.901537518476">
        <ele>167</ele>
        <time>2015-02-21T10:53:40Z</time>
      </trkpt>
      <trkpt lat="60.095217669755" lon="15.901668192297">
        <ele>164.8</ele>
        <time>2015-02-21T10:53:45Z</time>
      </trkpt>
      <trkpt lat="60.094986832229" lon="15.901725021579">
        <ele>163.8</ele>
        <time>2015-02-21T10:53:49Z</time>
      </trkpt>
      <trkpt lat="60.09491969321" lon="15.901723680475">
        <ele>163.4</ele>
        <time>2015-02-21T10:53:50Z</time>
      </trkpt>
      <trkpt lat="60.094862528652" lon="15.901715969127">
        <ele>163.4</ele>
        <time>2015-02-21T10:53:51Z</time>
      </trkpt>
      <trkpt lat="60.094821038247" lon="15.901662492605">
        <ele>163.2</ele>
        <time>2015-02-21T10:53:52Z</time>
      </trkpt>
      <trkpt lat="60.094744427681" lon="15.901555707199">
        <ele>162.8</ele>
        <time>2015-02-21T10:53:54Z</time>
      </trkpt>
      <trkpt lat="60.094724311121" lon="15.901524358893">
        <ele>162.6</ele>
        <time>2015-02-21T10:53:55Z</time>
      </trkpt>
      <trkpt lat="60.094639570112" lon="15.901409610682">
        <ele>162.4</ele>
        <time>2015-02-21T10:53:58Z</time>
      </trkpt>
      <trkpt lat="60.094604366132" lon="15.901386141362">
        <ele>162.2</ele>
        <time>2015-02-21T10:53:59Z</time>
      </trkpt>
      <trkpt lat="60.094531695059" lon="15.901313470289">
        <ele>162.4</ele>
        <time>2015-02-21T10:54:00Z</time>
      </trkpt>
      <trkpt lat="60.094417868857" lon="15.901217916629">
        <ele>161.8</ele>
        <time>2015-02-21T10:54:02Z</time>
      </trkpt>
      <trkpt lat="60.094316866962" lon="15.901122027693">
        <ele>160.8</ele>
        <time>2015-02-21T10:54:04Z</time>
      </trkpt>
      <trkpt lat="60.094230114297" lon="15.901006441292">
        <ele>160</ele>
        <time>2015-02-21T10:54:06Z</time>
      </trkpt>
      <trkpt lat="60.094201783475" lon="15.900964447973">
        <ele>159.8</ele>
        <time>2015-02-21T10:54:07Z</time>
      </trkpt>
      <trkpt lat="60.094165070753" lon="15.900901499904">
        <ele>159.6</ele>
        <time>2015-02-21T10:54:08Z</time>
      </trkpt>
      <trkpt lat="60.094035989493" lon="15.90063612895">
        <ele>160</ele>
        <time>2015-02-21T10:54:12Z</time>
      </trkpt>
      <trkpt lat="60.094005395558" lon="15.900590615233">
        <ele>160.2</ele>
        <time>2015-02-21T10:54:13Z</time>
      </trkpt>
      <trkpt lat="60.093849408399" lon="15.900309570126">
        <ele>159.2</ele>
        <time>2015-02-21T10:54:18Z</time>
      </trkpt>
      <trkpt lat="60.093793082031" lon="15.900180488866">
        <ele>159.2</ele>
        <time>2015-02-21T10:54:20Z</time>
      </trkpt>
      <trkpt lat="60.093702473692" lon="15.8999949136">
        <ele>159</ele>
        <time>2015-02-21T10:54:23Z</time>
      </trkpt>
      <trkpt lat="60.093656121785" lon="15.899917967758">
        <ele>158.8</ele>
        <time>2015-02-21T10:54:24Z</time>
      </trkpt>
      <trkpt lat="60.093613541733" lon="15.899845967237">
        <ele>158.6</ele>
        <time>2015-02-21T10:54:25Z</time>
      </trkpt>
      <trkpt lat="60.093530477104" lon="15.899712108294">
        <ele>158.4</ele>
        <time>2015-02-21T10:54:28Z</time>
      </trkpt>
      <trkpt lat="60.093392930125" lon="15.89948780865">
        <ele>158</ele>
        <time>2015-02-21T10:54:32Z</time>
      </trkpt>
      <trkpt lat="60.093329395323" lon="15.899364762358">
        <ele>158</ele>
        <time>2015-02-21T10:54:34Z</time>
      </trkpt>
      <trkpt lat="60.093264770874" lon="15.899212379416">
        <ele>158.2</ele>
        <time>2015-02-21T10:54:36Z</time>
      </trkpt>
      <trkpt lat="60.093243564667" lon="15.899036359516">
        <ele>158</ele>
        <time>2015-02-21T10:54:38Z</time>
      </trkpt>
      <trkpt lat="60.093242642658" lon="15.898752380744">
        <ele>158</ele>
        <time>2015-02-21T10:54:41Z</time>
      </trkpt>
      <trkpt lat="60.093253287671" lon="15.898640650017">
        <ele>157.6</ele>
        <time>2015-02-21T10:54:42Z</time>
      </trkpt>
      <trkpt lat="60.09328270814" lon="15.898490194912">
        <ele>157.2</ele>
        <time>2015-02-21T10:54:44Z</time>
      </trkpt>
      <trkpt lat="60.093338531594" lon="15.898303865275">
        <ele>157</ele>
        <time>2015-02-21T10:54:47Z</time>
      </trkpt>
      <trkpt lat="60.093416231807" lon="15.897945287593">
        <ele>157.2</ele>
        <time>2015-02-21T10:54:52Z</time>
      </trkpt>
      <trkpt lat="60.093416734721" lon="15.897872029787">
        <ele>157.2</ele>
        <time>2015-02-21T10:54:53Z</time>
      </trkpt>
      <trkpt lat="60.093423859336" lon="15.897693746774">
        <ele>157.4</ele>
        <time>2015-02-21T10:54:55Z</time>
      </trkpt>
      <trkpt lat="60.093436180729" lon="15.897530132086">
        <ele>157.4</ele>
        <time>2015-02-21T10:54:57Z</time>
      </trkpt>
      <trkpt lat="60.09342939139" lon="15.897410354735">
        <ele>157.4</ele>
        <time>2015-02-21T10:54:58Z</time>
      </trkpt>
      <trkpt lat="60.093429307571" lon="15.897313879066">
        <ele>157.2</ele>
        <time>2015-02-21T10:54:59Z</time>
      </trkpt>
      <trkpt lat="60.093424613707" lon="15.897035599986">
        <ele>157.2</ele>
        <time>2015-02-21T10:55:02Z</time>
      </trkpt>
      <trkpt lat="60.093427798829" lon="15.896681213254">
        <ele>157</ele>
        <time>2015-02-21T10:55:06Z</time>
      </trkpt>
      <trkpt lat="60.093421931499" lon="15.896511563598">
        <ele>157</ele>
        <time>2015-02-21T10:55:08Z</time>
      </trkpt>
      <trkpt lat="60.093400809111" lon="15.896104203258">
        <ele>157.6</ele>
        <time>2015-02-21T10:55:13Z</time>
      </trkpt>
      <trkpt lat="60.093398294541" lon="15.896011164168">
        <ele>157.8</ele>
        <time>2015-02-21T10:55:14Z</time>
      </trkpt>
      <trkpt lat="60.093386224605" lon="15.895761635005">
        <ele>157.4</ele>
        <time>2015-02-21T10:55:17Z</time>
      </trkpt>
      <trkpt lat="60.093392594849" lon="15.895588884046">
        <ele>157.2</ele>
        <time>2015-02-21T10:55:19Z</time>
      </trkpt>
      <trkpt lat="60.093401647301" lon="15.895438931855">
        <ele>157.4</ele>
        <time>2015-02-21T10:55:21Z</time>
      </trkpt>
      <trkpt lat="60.093400306197" lon="15.895342372367">
        <ele>157.2</ele>
        <time>2015-02-21T10:55:22Z</time>
      </trkpt>
      <trkpt lat="60.093403826595" lon="15.895190743796">
        <ele>157.4</ele>
        <time>2015-02-21T10:55:24Z</time>
      </trkpt>
      <trkpt lat="60.093412292314" lon="15.894956302053">
        <ele>157.6</ele>
        <time>2015-02-21T10:55:29Z</time>
      </trkpt>
      <trkpt lat="60.093471636166" lon="15.894787155311">
        <ele>157.6</ele>
        <time>2015-02-21T10:55:34Z</time>
      </trkpt>
      <trkpt lat="60.093520502643" lon="15.894564112952">
        <ele>157.6</ele>
        <time>2015-02-21T10:55:38Z</time>
      </trkpt>
      <trkpt lat="60.09354925256" lon="15.894251468082">
        <ele>157.2</ele>
        <time>2015-02-21T10:55:43Z</time>
      </trkpt>
      <trkpt lat="60.093563250333" lon="15.893985258938">
        <ele>157.4</ele>
        <time>2015-02-21T10:55:47Z</time>
      </trkpt>
      <trkpt lat="60.093616475398" lon="15.893688120583">
        <ele>157.6</ele>
        <time>2015-02-21T10:55:52Z</time>
      </trkpt>
      <trkpt lat="60.093676573621" lon="15.893276150198">
        <ele>157.6</ele>
        <time>2015-02-21T10:55:58Z</time>
      </trkpt>
      <trkpt lat="60.093829040382" lon="15.89276217209">
        <ele>157.6</ele>
        <time>2015-02-21T10:56:06Z</time>
      </trkpt>
      <trkpt lat="60.093941441661" lon="15.892380544183">
        <ele>157.4</ele>
        <time>2015-02-21T10:56:12Z</time>
      </trkpt>
      <trkpt lat="60.093973292881" lon="15.892107126605">
        <ele>158.2</ele>
        <time>2015-02-21T10:56:18Z</time>
      </trkpt>
      <trkpt lat="60.093988631758" lon="15.892035042265">
        <ele>159</ele>
        <time>2015-02-21T10:56:20Z</time>
      </trkpt>
      <trkpt lat="60.0940236681" lon="15.891912163611">
        <ele>160</ele>
        <time>2015-02-21T10:56:23Z</time>
      </trkpt>
      <trkpt lat="60.094036408588" lon="15.891875115613">
        <ele>160.2</ele>
        <time>2015-02-21T10:56:24Z</time>
      </trkpt>
      <trkpt lat="60.094083347228" lon="15.891682834827">
        <ele>161</ele>
        <time>2015-02-21T10:56:29Z</time>
      </trkpt>
      <trkpt lat="60.094091058576" lon="15.891663556457">
        <ele>161</ele>
        <time>2015-02-21T10:56:30Z</time>
      </trkpt>
      <trkpt lat="60.094123915624" lon="15.891625837907">
        <ele>162.2</ele>
        <time>2015-02-21T10:56:33Z</time>
      </trkpt>
      <trkpt lat="60.094160963622" lon="15.891615276713">
        <ele>162.6</ele>
        <time>2015-02-21T10:56:35Z</time>
      </trkpt>
      <trkpt lat="60.094190635548" lon="15.891615779627">
        <ele>163.2</ele>
        <time>2015-02-21T10:56:37Z</time>
      </trkpt>
      <trkpt lat="60.09433212202" lon="15.891665987208">
        <ele>164.2</ele>
        <time>2015-02-21T10:56:43Z</time>
      </trkpt>
      <trkpt lat="60.094409151681" lon="15.89167923061">
        <ele>164.4</ele>
        <time>2015-02-21T10:56:45Z</time>
      </trkpt>
      <trkpt lat="60.094561199347" lon="15.891674536746">
        <ele>163.2</ele>
        <time>2015-02-21T10:56:49Z</time>
      </trkpt>
      <trkpt lat="60.094595816594" lon="15.891662969724">
        <ele>163.2</ele>
        <time>2015-02-21T10:56:50Z</time>
      </trkpt>
      <trkpt lat="60.094748534812" lon="15.891534139921">
        <ele>163.6</ele>
        <time>2015-02-21T10:56:54Z</time>
      </trkpt>
      <trkpt lat="60.094792623606" lon="15.891473287327">
        <ele>163.8</ele>
        <time>2015-02-21T10:56:55Z</time>
      </trkpt>
      <trkpt lat="60.094867138697" lon="15.891361891876">
        <ele>164</ele>
        <time>2015-02-21T10:56:57Z</time>
      </trkpt>
      <trkpt lat="60.095010050092" lon="15.891158379344">
        <ele>163.6</ele>
        <time>2015-02-21T10:57:01Z</time>
      </trkpt>
      <trkpt lat="60.095154637867" lon="15.890924524334">
        <ele>163.8</ele>
        <time>2015-02-21T10:57:06Z</time>
      </trkpt>
      <trkpt lat="60.095302075488" lon="15.890624200857">
        <ele>163.8</ele>
        <time>2015-02-21T10:57:12Z</time>
      </trkpt>
      <trkpt lat="60.095333675251" lon="15.890542142056">
        <ele>164</ele>
        <time>2015-02-21T10:57:13Z</time>
      </trkpt>
      <trkpt lat="60.095471557506" lon="15.890303677001">
        <ele>163</ele>
        <time>2015-02-21T10:57:17Z</time>
      </trkpt>
      <trkpt lat="60.095555376506" lon="15.890241567122">
        <ele>162.6</ele>
        <time>2015-02-21T10:57:19Z</time>
      </trkpt>
      <trkpt lat="60.095680853549" lon="15.890229497186">
        <ele>162.4</ele>
        <time>2015-02-21T10:57:22Z</time>
      </trkpt>
      <trkpt lat="60.095720583755" lon="15.890242070036">
        <ele>162.2</ele>
        <time>2015-02-21T10:57:23Z</time>
      </trkpt>
      <trkpt lat="60.095816388872" lon="15.890274256532">
        <ele>162.2</ele>
        <time>2015-02-21T10:57:25Z</time>
      </trkpt>
      <trkpt lat="60.095856119078" lon="15.890291355608">
        <ele>162.2</ele>
        <time>2015-02-21T10:57:26Z</time>
      </trkpt>
      <trkpt lat="60.095963742674" lon="15.890417922298">
        <ele>162</ele>
        <time>2015-02-21T10:57:29Z</time>
      </trkpt>
      <trkpt lat="60.096055356841" lon="15.890529401568">
        <ele>161.6</ele>
        <time>2015-02-21T10:57:31Z</time>
      </trkpt>
      <trkpt lat="60.096145546085" lon="15.890640880838">
        <ele>161</ele>
        <time>2015-02-21T10:57:33Z</time>
      </trkpt>
      <trkpt lat="60.096243781953" lon="15.890771554659">
        <ele>160</ele>
        <time>2015-02-21T10:57:35Z</time>
      </trkpt>
      <trkpt lat="60.096423741346" lon="15.891031142102">
        <ele>158.8</ele>
        <time>2015-02-21T10:57:39Z</time>
      </trkpt>
      <trkpt lat="60.09646866833" lon="15.891086378823">
        <ele>158.8</ele>
        <time>2015-02-21T10:57:40Z</time>
      </trkpt>
      <trkpt lat="60.096575789012" lon="15.891176819524">
        <ele>158</ele>
        <time>2015-02-21T10:57:43Z</time>
      </trkpt>
      <trkpt lat="60.096615603037" lon="15.891203473966">
        <ele>157.8</ele>
        <time>2015-02-21T10:57:44Z</time>
      </trkpt>
      <trkpt lat="60.096726998488" lon="15.891300201092">
        <ele>158.2</ele>
        <time>2015-02-21T10:57:47Z</time>
      </trkpt>
      <trkpt lat="60.096811739497" lon="15.891363987351">
        <ele>158.6</ele>
        <time>2015-02-21T10:57:49Z</time>
      </trkpt>
      <trkpt lat="60.096981137696" lon="15.891517292302">
        <ele>158.6</ele>
        <time>2015-02-21T10:57:54Z</time>
      </trkpt>
      <trkpt lat="60.097022879558" lon="15.891550736083">
        <ele>158.6</ele>
        <time>2015-02-21T10:57:55Z</time>
      </trkpt>
      <trkpt lat="60.097111727698" lon="15.891629106848">
        <ele>159.2</ele>
        <time>2015-02-21T10:57:57Z</time>
      </trkpt>
      <trkpt lat="60.097160929451" lon="15.891674788203">
        <ele>159.2</ele>
        <time>2015-02-21T10:57:58Z</time>
      </trkpt>
      <trkpt lat="60.097182303296" lon="15.891711333287">
        <ele>159.4</ele>
        <time>2015-02-21T10:57:59Z</time>
      </trkpt>
      <trkpt lat="60.097248771763" lon="15.891826668231">
        <ele>159.4</ele>
        <time>2015-02-21T10:58:01Z</time>
      </trkpt>
      <trkpt lat="60.097315156411" lon="15.892078879602">
        <ele>159.2</ele>
        <time>2015-02-21T10:58:05Z</time>
      </trkpt>
      <trkpt lat="60.097439040893" lon="15.892344250556">
        <ele>160.2</ele>
        <time>2015-02-21T10:58:11Z</time>
      </trkpt>
      <trkpt lat="60.097465611516" lon="15.892382220563">
        <ele>160.4</ele>
        <time>2015-02-21T10:58:12Z</time>
      </trkpt>
      <trkpt lat="60.09763710519" lon="15.892503003742">
        <ele>160.6</ele>
        <time>2015-02-21T10:58:17Z</time>
      </trkpt>
      <trkpt lat="60.097800468421" lon="15.892684807153">
        <ele>160.6</ele>
        <time>2015-02-21T10:58:22Z</time>
      </trkpt>
      <trkpt lat="60.09790281142" lon="15.892819085191">
        <ele>160.8</ele>
        <time>2015-02-21T10:58:25Z</time>
      </trkpt>
      <trkpt lat="60.097981685099" lon="15.89289879706">
        <ele>160.8</ele>
        <time>2015-02-21T10:58:27Z</time>
      </trkpt>
      <trkpt lat="60.098140186828" lon="15.893034332383">
        <ele>160.6</ele>
        <time>2015-02-21T10:58:32Z</time>
      </trkpt>
      <trkpt lat="60.098310758493" lon="15.893171124991">
        <ele>161</ele>
        <time>2015-02-21T10:58:37Z</time>
      </trkpt>
      <trkpt lat="60.098463141435" lon="15.893335158774">
        <ele>161.2</ele>
        <time>2015-02-21T10:58:41Z</time>
      </trkpt>
      <trkpt lat="60.098505637668" lon="15.893371200944">
        <ele>161</ele>
        <time>2015-02-21T10:58:42Z</time>
      </trkpt>
      <trkpt lat="60.098544781141" lon="15.893398693576">
        <ele>160.8</ele>
        <time>2015-02-21T10:58:43Z</time>
      </trkpt>
      <trkpt lat="60.098746449655" lon="15.893499863109">
        <ele>159.4</ele>
        <time>2015-02-21T10:58:48Z</time>
      </trkpt>
      <trkpt lat="60.098796405779" lon="15.893500449842">
        <ele>159.4</ele>
        <time>2015-02-21T10:58:49Z</time>
      </trkpt>
      <trkpt lat="60.098895982751" lon="15.893524589714">
        <ele>159.8</ele>
        <time>2015-02-21T10:58:51Z</time>
      </trkpt>
      <trkpt lat="60.099094382324" lon="15.893593908027">
        <ele>160.4</ele>
        <time>2015-02-21T10:58:55Z</time>
      </trkpt>
      <trkpt lat="60.099209633449" lon="15.893642942142">
        <ele>160</ele>
        <time>2015-02-21T10:58:58Z</time>
      </trkpt>
      <trkpt lat="60.099362854581" lon="15.8936833429">
        <ele>160</ele>
        <time>2015-02-21T10:59:02Z</time>
      </trkpt>
      <trkpt lat="60.099466790141" lon="15.893682420891">
        <ele>160.6</ele>
        <time>2015-02-21T10:59:05Z</time>
      </trkpt>
      <trkpt lat="60.099529486753" lon="15.893715277939">
        <ele>160.8</ele>
        <time>2015-02-21T10:59:07Z</time>
      </trkpt>
      <trkpt lat="60.099657562185" lon="15.893860536266">
        <ele>161.6</ele>
        <time>2015-02-21T10:59:11Z</time>
      </trkpt>
      <trkpt lat="60.099729981801" lon="15.893936979194">
        <ele>161.6</ele>
        <time>2015-02-21T10:59:13Z</time>
      </trkpt>
      <trkpt lat="60.099816818285" lon="15.893966734939">
        <ele>161.4</ele>
        <time>2015-02-21T10:59:15Z</time>
      </trkpt>
      <trkpt lat="60.099887561521" lon="15.893921053584">
        <ele>161</ele>
        <time>2015-02-21T10:59:17Z</time>
      </trkpt>
      <trkpt lat="60.100046733802" lon="15.893749643729">
        <ele>161.4</ele>
        <time>2015-02-21T10:59:22Z</time>
      </trkpt>
      <trkpt lat="60.100219317123" lon="15.893647887463">
        <ele>161.6</ele>
        <time>2015-02-21T10:59:27Z</time>
      </trkpt>
      <trkpt lat="60.100347392555" lon="15.893648055101">
        <ele>161.6</ele>
        <time>2015-02-21T10:59:30Z</time>
      </trkpt>
      <trkpt lat="60.100448226812" lon="15.893620730107">
        <ele>161.4</ele>
        <time>2015-02-21T10:59:32Z</time>
      </trkpt>
      <trkpt lat="60.100555012218" lon="15.893550657423">
        <ele>160.2</ele>
        <time>2015-02-21T10:59:35Z</time>
      </trkpt>
      <trkpt lat="60.100587617809" lon="15.89351989585">
        <ele>160</ele>
        <time>2015-02-21T10:59:36Z</time>
      </trkpt>
      <trkpt lat="60.100743185873" lon="15.893485110965">
        <ele>160</ele>
        <time>2015-02-21T10:59:41Z</time>
      </trkpt>
      <trkpt lat="60.100939741428" lon="15.893581670453">
        <ele>160.2</ele>
        <time>2015-02-21T10:59:46Z</time>
      </trkpt>
      <trkpt lat="60.101158006104" lon="15.893664651263">
        <ele>160.2</ele>
        <time>2015-02-21T10:59:51Z</time>
      </trkpt>
      <trkpt lat="60.101204693287" lon="15.893672111154">
        <ele>160.4</ele>
        <time>2015-02-21T10:59:52Z</time>
      </trkpt>
      <trkpt lat="60.101263618044" lon="15.893701866899">
        <ele>160.4</ele>
        <time>2015-02-21T10:59:53Z</time>
      </trkpt>
      <trkpt lat="60.10141734209" lon="15.893795827998">
        <ele>160.4</ele>
        <time>2015-02-21T10:59:56Z</time>
      </trkpt>
      <trkpt lat="60.101584560995" lon="15.89383673167">
        <ele>160.6</ele>
        <time>2015-02-21T11:00:00Z</time>
      </trkpt>
      <trkpt lat="60.101806429888" lon="15.893874282582">
        <ele>161.2</ele>
        <time>2015-02-21T11:00:07Z</time>
      </trkpt>
      <trkpt lat="60.102033076464" lon="15.893682337072">
        <ele>162.4</ele>
        <time>2015-02-21T11:00:14Z</time>
      </trkpt>
      <trkpt lat="60.102256957013" lon="15.893431718262">
        <ele>162.6</ele>
        <time>2015-02-21T11:00:20Z</time>
      </trkpt>
      <trkpt lat="60.102484022684" lon="15.893190654818">
        <ele>162.4</ele>
        <time>2015-02-21T11:00:26Z</time>
      </trkpt>
      <trkpt lat="60.102613271582" lon="15.893124437808">
        <ele>163</ele>
        <time>2015-02-21T11:00:30Z</time>
      </trkpt>
      <trkpt lat="60.102801445237" lon="15.893072553847">
        <ele>162.8</ele>
        <time>2015-02-21T11:00:35Z</time>
      </trkpt>
      <trkpt lat="60.103026163976" lon="15.893020837524">
        <ele>163.2</ele>
        <time>2015-02-21T11:00:41Z</time>
      </trkpt>
      <trkpt lat="60.103286673428" lon="15.892901563087">
        <ele>163</ele>
        <time>2015-02-21T11:00:48Z</time>
      </trkpt>
      <trkpt lat="60.103412318109" lon="15.892729566499">
        <ele>163</ele>
        <time>2015-02-21T11:00:52Z</time>
      </trkpt>
      <trkpt lat="60.10343989456" lon="15.89266578024">
        <ele>163.2</ele>
        <time>2015-02-21T11:00:53Z</time>
      </trkpt>
      <trkpt lat="60.103501166249" lon="15.892510966547">
        <ele>163.4</ele>
        <time>2015-02-21T11:00:55Z</time>
      </trkpt>
      <trkpt lat="60.103578112091" lon="15.892234782942">
        <ele>162.8</ele>
        <time>2015-02-21T11:00:58Z</time>
      </trkpt>
      <trkpt lat="60.103630750423" lon="15.892061780526">
        <ele>162.2</ele>
        <time>2015-02-21T11:01:00Z</time>
      </trkpt>
      <trkpt lat="60.103743822254" lon="15.891901183322">
        <ele>161.4</ele>
        <time>2015-02-21T11:01:03Z</time>
      </trkpt>
      <trkpt lat="60.103888996762" lon="15.891758439565">
        <ele>161.2</ele>
        <time>2015-02-21T11:01:06Z</time>
      </trkpt>
      <trkpt lat="60.103976000884" lon="15.891702867568">
        <ele>160.8</ele>
        <time>2015-02-21T11:01:08Z</time>
      </trkpt>
      <trkpt lat="60.104064681386" lon="15.891643523716">
        <ele>160.6</ele>
        <time>2015-02-21T11:01:10Z</time>
      </trkpt>
      <trkpt lat="60.104100472099" lon="15.891601698035">
        <ele>160.2</ele>
        <time>2015-02-21T11:01:11Z</time>
      </trkpt>
      <trkpt lat="60.104198372691" lon="15.891525925659">
        <ele>160</ele>
        <time>2015-02-21T11:01:13Z</time>
      </trkpt>
      <trkpt lat="60.104218070156" lon="15.891459373373">
        <ele>160</ele>
        <time>2015-02-21T11:01:14Z</time>
      </trkpt>
      <trkpt lat="60.104273474515" lon="15.891366418102">
        <ele>160</ele>
        <time>2015-02-21T11:01:16Z</time>
      </trkpt>
      <trkpt lat="60.104441699248" lon="15.891298189436">
        <ele>160.6</ele>
        <time>2015-02-21T11:01:21Z</time>
      </trkpt>
      <trkpt lat="60.104465922939" lon="15.891343619334">
        <ele>161</ele>
        <time>2015-02-21T11:01:22Z</time>
      </trkpt>
      <trkpt lat="60.104528619551" lon="15.891463899599">
        <ele>161.2</ele>
        <time>2015-02-21T11:01:24Z</time>
      </trkpt>
      <trkpt lat="60.104577821304" lon="15.891660622792">
        <ele>160.8</ele>
        <time>2015-02-21T11:01:27Z</time>
      </trkpt>
      <trkpt lat="60.104598356959" lon="15.891722648852">
        <ele>160.6</ele>
        <time>2015-02-21T11:01:28Z</time>
      </trkpt>
      <trkpt lat="60.104641523744" lon="15.891848209714">
        <ele>160.2</ele>
        <time>2015-02-21T11:01:30Z</time>
      </trkpt>
      <trkpt lat="60.104689132936" lon="15.891955078939">
        <ele>160</ele>
        <time>2015-02-21T11:01:32Z</time>
      </trkpt>
      <trkpt lat="60.104854675461" lon="15.892218689694">
        <ele>160.6</ele>
        <time>2015-02-21T11:01:38Z</time>
      </trkpt>
      <trkpt lat="60.105070760843" lon="15.892356739587">
        <ele>161.2</ele>
        <time>2015-02-21T11:01:44Z</time>
      </trkpt>
      <trkpt lat="60.105227083278" lon="15.892378867803">
        <ele>161.8</ele>
        <time>2015-02-21T11:01:48Z</time>
      </trkpt>
      <trkpt lat="60.105267819312" lon="15.892381550011">
        <ele>162</ele>
        <time>2015-02-21T11:01:49Z</time>
      </trkpt>
      <trkpt lat="60.10556638259" lon="15.892347603316">
        <ele>161.8</ele>
        <time>2015-02-21T11:01:56Z</time>
      </trkpt>
      <trkpt lat="60.105918338571" lon="15.892345256384">
        <ele>161</ele>
        <time>2015-02-21T11:02:04Z</time>
      </trkpt>
      <trkpt lat="60.105954967474" lon="15.892345759298">
        <ele>161</ele>
        <time>2015-02-21T11:02:05Z</time>
      </trkpt>
      <trkpt lat="60.106080863612" lon="15.89236235546">
        <ele>161</ele>
        <time>2015-02-21T11:02:08Z</time>
      </trkpt>
      <trkpt lat="60.106284879058" lon="15.89239839763">
        <ele>161</ele>
        <time>2015-02-21T11:02:14Z</time>
      </trkpt>
      <trkpt lat="60.106449499574" lon="15.892518761714">
        <ele>161</ele>
        <time>2015-02-21T11:02:19Z</time>
      </trkpt>
      <trkpt lat="60.10649509711" lon="15.892510295995">
        <ele>161.2</ele>
        <time>2015-02-21T11:02:20Z</time>
      </trkpt>
      <trkpt lat="60.106611270244" lon="15.892586571285">
        <ele>161.2</ele>
        <time>2015-02-21T11:02:23Z</time>
      </trkpt>
      <trkpt lat="60.10672392298" lon="15.89262973807">
        <ele>161.4</ele>
        <time>2015-02-21T11:02:26Z</time>
      </trkpt>
      <trkpt lat="60.106759294598" lon="15.892652201562">
        <ele>161.4</ele>
        <time>2015-02-21T11:02:27Z</time>
      </trkpt>
      <trkpt lat="60.106794414759" lon="15.892645831318">
        <ele>161.2</ele>
        <time>2015-02-21T11:02:28Z</time>
      </trkpt>
      <trkpt lat="60.106918718336" lon="15.892665947878">
        <ele>161</ele>
        <time>2015-02-21T11:02:31Z</time>
      </trkpt>
      <trkpt lat="60.106974290333" lon="15.892664355317">
        <ele>161</ele>
        <time>2015-02-21T11:02:32Z</time>
      </trkpt>
      <trkpt lat="60.107061545912" lon="15.892661170195">
        <ele>160.8</ele>
        <time>2015-02-21T11:02:34Z</time>
      </trkpt>
      <trkpt lat="60.107158440676" lon="15.892673910683">
        <ele>160.6</ele>
        <time>2015-02-21T11:02:36Z</time>
      </trkpt>
      <trkpt lat="60.107470582632" lon="15.892686148257">
        <ele>160.4</ele>
        <time>2015-02-21T11:02:43Z</time>
      </trkpt>
      <trkpt lat="60.107541912601" lon="15.892670725561">
        <ele>160.4</ele>
        <time>2015-02-21T11:02:45Z</time>
      </trkpt>
      <trkpt lat="60.107632940035" lon="15.892668713905">
        <ele>160.2</ele>
        <time>2015-02-21T11:02:47Z</time>
      </trkpt>
      <trkpt lat="60.107676525915" lon="15.892667288982">
        <ele>160.4</ele>
        <time>2015-02-21T11:02:48Z</time>
      </trkpt>
      <trkpt lat="60.107930497485" lon="15.892668713905">
        <ele>160.6</ele>
        <time>2015-02-21T11:02:55Z</time>
      </trkpt>
      <trkpt lat="60.108153791301" lon="15.892614063917">
        <ele>161</ele>
        <time>2015-02-21T11:03:02Z</time>
      </trkpt>
      <trkpt lat="60.108208189832" lon="15.892603335085">
        <ele>161.2</ele>
        <time>2015-02-21T11:03:04Z</time>
      </trkpt>
      <trkpt lat="60.108300223094" lon="15.892608448044">
        <ele>160.6</ele>
        <time>2015-02-21T11:03:07Z</time>
      </trkpt>
      <trkpt lat="60.108406589405" lon="15.892596545746">
        <ele>161.2</ele>
        <time>2015-02-21T11:03:11Z</time>
      </trkpt>
      <trkpt lat="60.108446822525" lon="15.892592187158">
        <ele>162.2</ele>
        <time>2015-02-21T11:03:12Z</time>
      </trkpt>
      <trkpt lat="60.108586213522" lon="15.892605179103">
        <ele>162.8</ele>
        <time>2015-02-21T11:03:16Z</time>
      </trkpt>
      <trkpt lat="60.108817553962" lon="15.892616913763">
        <ele>162.8</ele>
        <time>2015-02-21T11:03:22Z</time>
      </trkpt>
      <trkpt lat="60.108886117904" lon="15.892610124424">
        <ele>162.8</ele>
        <time>2015-02-21T11:03:24Z</time>
      </trkpt>
      <trkpt lat="60.10896105209" lon="15.892614818288">
        <ele>162.8</ele>
        <time>2015-02-21T11:03:26Z</time>
      </trkpt>
      <trkpt lat="60.109194488005" lon="15.892620182704">
        <ele>162.6</ele>
        <time>2015-02-21T11:03:33Z</time>
      </trkpt>
      <trkpt lat="60.109222064456" lon="15.892632839373">
        <ele>162.4</ele>
        <time>2015-02-21T11:03:34Z</time>
      </trkpt>
      <trkpt lat="60.109423146237" lon="15.892661002557">
        <ele>162.2</ele>
        <time>2015-02-21T11:03:38Z</time>
      </trkpt>
      <trkpt lat="60.109612493358" lon="15.892691009759">
        <ele>161.2</ele>
        <time>2015-02-21T11:03:42Z</time>
      </trkpt>
      <trkpt lat="60.109756159124" lon="15.892701403315">
        <ele>160.6</ele>
        <time>2015-02-21T11:03:45Z</time>
      </trkpt>
      <trkpt lat="60.109938968363" lon="15.892593109167">
        <ele>160.4</ele>
        <time>2015-02-21T11:03:49Z</time>
      </trkpt>
      <trkpt lat="60.110077102075" lon="15.892525299596">
        <ele>160.6</ele>
        <time>2015-02-21T11:03:52Z</time>
      </trkpt>
      <trkpt lat="60.110162848912" lon="15.89253083165">
        <ele>160.4</ele>
        <time>2015-02-21T11:03:54Z</time>
      </trkpt>
      <trkpt lat="60.110195454503" lon="15.892546086708">
        <ele>160.4</ele>
        <time>2015-02-21T11:03:55Z</time>
      </trkpt>
      <trkpt lat="60.110287236308" lon="15.892684136601">
        <ele>160</ele>
        <time>2015-02-21T11:03:58Z</time>
      </trkpt>
      <trkpt lat="60.110311962913" lon="15.892742474625">
        <ele>160</ele>
        <time>2015-02-21T11:03:59Z</time>
      </trkpt>
      <trkpt lat="60.110396284827" lon="15.893076577159">
        <ele>159.8</ele>
        <time>2015-02-21T11:04:04Z</time>
      </trkpt>
      <trkpt lat="60.110529976132" lon="15.893648306558">
        <ele>160</ele>
        <time>2015-02-21T11:04:12Z</time>
      </trkpt>
      <trkpt lat="60.110672049337" lon="15.894069999947">
        <ele>160.2</ele>
        <time>2015-02-21T11:04:19Z</time>
      </trkpt>
      <trkpt lat="60.110816637112" lon="15.894510468792">
        <ele>159.8</ele>
        <time>2015-02-21T11:04:26Z</time>
      </trkpt>
      <trkpt lat="60.110910430573" lon="15.894800231075">
        <ele>160</ele>
        <time>2015-02-21T11:04:30Z</time>
      </trkpt>
      <trkpt lat="60.111019395273" lon="15.894996702811">
        <ele>159.4</ele>
        <time>2015-02-21T11:04:33Z</time>
      </trkpt>
      <trkpt lat="60.111090641423" lon="15.895073648653">
        <ele>159.2</ele>
        <time>2015-02-21T11:04:35Z</time>
      </trkpt>
      <trkpt lat="60.111170437111" lon="15.89514849902">
        <ele>159.4</ele>
        <time>2015-02-21T11:04:37Z</time>
      </trkpt>
      <trkpt lat="60.11124763441" lon="15.895178506222">
        <ele>160</ele>
        <time>2015-02-21T11:04:40Z</time>
      </trkpt>
      <trkpt lat="60.111488027302" lon="15.89521471603">
        <ele>159.6</ele>
        <time>2015-02-21T11:04:46Z</time>
      </trkpt>
      <trkpt lat="60.111665723582" lon="15.895197449316">
        <ele>159.8</ele>
        <time>2015-02-21T11:04:51Z</time>
      </trkpt>
      <trkpt lat="60.111882730973" lon="15.895199796248">
        <ele>159.8</ele>
        <time>2015-02-21T11:04:56Z</time>
      </trkpt>
      <trkpt lat="60.111918521686" lon="15.895190576158">
        <ele>159.6</ele>
        <time>2015-02-21T11:04:57Z</time>
      </trkpt>
      <trkpt lat="60.112056068665" lon="15.895163334983">
        <ele>159.6</ele>
        <time>2015-02-21T11:05:00Z</time>
      </trkpt>
      <trkpt lat="60.112119016734" lon="15.895116396343">
        <ele>159.8</ele>
        <time>2015-02-21T11:05:02Z</time>
      </trkpt>
      <trkpt lat="60.112268382192" lon="15.89501187405">
        <ele>160.4</ele>
        <time>2015-02-21T11:05:07Z</time>
      </trkpt>
      <trkpt lat="60.112465189204" lon="15.894899305133">
        <ele>160.4</ele>
        <time>2015-02-21T11:05:13Z</time>
      </trkpt>
      <trkpt lat="60.112526041798" lon="15.894799644342">
        <ele>159.8</ele>
        <time>2015-02-21T11:05:15Z</time>
      </trkpt>
      <trkpt lat="60.112630396453" lon="15.894702749578">
        <ele>159.8</ele>
        <time>2015-02-21T11:05:17Z</time>
      </trkpt>
      <trkpt lat="60.112678173283" lon="15.894608872298">
        <ele>159.6</ele>
        <time>2015-02-21T11:05:18Z</time>
      </trkpt>
      <trkpt lat="60.112753442745" lon="15.89444106666">
        <ele>159.4</ele>
        <time>2015-02-21T11:05:20Z</time>
      </trkpt>
      <trkpt lat="60.112870454069" lon="15.894141246097">
        <ele>159.6</ele>
        <time>2015-02-21T11:05:24Z</time>
      </trkpt>
      <trkpt lat="60.112971707421" lon="15.89377302923">
        <ele>159.8</ele>
        <time>2015-02-21T11:05:29Z</time>
      </trkpt>
      <trkpt lat="60.112992075438" lon="15.893612851121">
        <ele>160</ele>
        <time>2015-02-21T11:05:31Z</time>
      </trkpt>
      <trkpt lat="60.113035912775" lon="15.893388970572">
        <ele>159.8</ele>
        <time>2015-02-21T11:05:34Z</time>
      </trkpt>
      <trkpt lat="60.113088215831" lon="15.893258799665">
        <ele>159.8</ele>
        <time>2015-02-21T11:05:36Z</time>
      </trkpt>
      <trkpt lat="60.113141692353" lon="15.893075906607">
        <ele>159.6</ele>
        <time>2015-02-21T11:05:39Z</time>
      </trkpt>
      <trkpt lat="60.113183518034" lon="15.892940287465">
        <ele>159.8</ele>
        <time>2015-02-21T11:05:41Z</time>
      </trkpt>
      <trkpt lat="60.113241856058" lon="15.892736858752">
        <ele>159.8</ele>
        <time>2015-02-21T11:05:44Z</time>
      </trkpt>
      <trkpt lat="60.113343360867" lon="15.892423878606">
        <ele>159.6</ele>
        <time>2015-02-21T11:05:49Z</time>
      </trkpt>
      <trkpt lat="60.113372529879" lon="15.892351039895">
        <ele>159.8</ele>
        <time>2015-02-21T11:05:50Z</time>
      </trkpt>
      <trkpt lat="60.113462300028" lon="15.892033198247">
        <ele>160</ele>
        <time>2015-02-21T11:05:55Z</time>
      </trkpt>
      <trkpt lat="60.113508065202" lon="15.891802779816">
        <ele>159.6</ele>
        <time>2015-02-21T11:05:58Z</time>
      </trkpt>
      <trkpt lat="60.11355517148" lon="15.891573031937">
        <ele>159.4</ele>
        <time>2015-02-21T11:06:01Z</time>
      </trkpt>
      <trkpt lat="60.113690036251" lon="15.891204312156">
        <ele>159.4</ele>
        <time>2015-02-21T11:06:07Z</time>
      </trkpt>
      <trkpt lat="60.113843927935" lon="15.890945143808">
        <ele>160</ele>
        <time>2015-02-21T11:06:13Z</time>
      </trkpt>
      <trkpt lat="60.113944510735" lon="15.890794521065">
        <ele>159.8</ele>
        <time>2015-02-21T11:06:17Z</time>
      </trkpt>
      <trkpt lat="60.114073927271" lon="15.890631660748">
        <ele>160</ele>
        <time>2015-02-21T11:06:21Z</time>
      </trkpt>
      <trkpt lat="60.114203427626" lon="15.89047810434">
        <ele>160</ele>
        <time>2015-02-21T11:06:25Z</time>
      </trkpt>
      <trkpt lat="60.114466703105" lon="15.890255481076">
        <ele>160.2</ele>
        <time>2015-02-21T11:06:32Z</time>
      </trkpt>
      <trkpt lat="60.11462554011" lon="15.890154814457">
        <ele>160</ele>
        <time>2015-02-21T11:06:36Z</time>
      </trkpt>
      <trkpt lat="60.114701899219" lon="15.890112904957">
        <ele>159.6</ele>
        <time>2015-02-21T11:06:38Z</time>
      </trkpt>
      <trkpt lat="60.114864591898" lon="15.889944428767">
        <ele>159.6</ele>
        <time>2015-02-21T11:06:42Z</time>
      </trkpt>
      <trkpt lat="60.115015969012" lon="15.889833368592">
        <ele>160.2</ele>
        <time>2015-02-21T11:06:47Z</time>
      </trkpt>
      <trkpt lat="60.115050753897" lon="15.889785843219">
        <ele>160</ele>
        <time>2015-02-21T11:06:48Z</time>
      </trkpt>
      <trkpt lat="60.115102973134" lon="15.889663551298">
        <ele>160</ele>
        <time>2015-02-21T11:06:50Z</time>
      </trkpt>
      <trkpt lat="60.115212859843" lon="15.889403712398">
        <ele>159.6</ele>
        <time>2015-02-21T11:06:54Z</time>
      </trkpt>
      <trkpt lat="60.11534973627" lon="15.889058042842">
        <ele>159.4</ele>
        <time>2015-02-21T11:06:59Z</time>
      </trkpt>
      <trkpt lat="60.115394663254" lon="15.888978917706">
        <ele>159.4</ele>
        <time>2015-02-21T11:07:00Z</time>
      </trkpt>
      <trkpt lat="60.115472363467" lon="15.888801975797">
        <ele>159.4</ele>
        <time>2015-02-21T11:07:03Z</time>
      </trkpt>
      <trkpt lat="60.115491641837" lon="15.888734166226">
        <ele>159.6</ele>
        <time>2015-02-21T11:07:04Z</time>
      </trkpt>
      <trkpt lat="60.115559367589" lon="15.888533000626">
        <ele>159.6</ele>
        <time>2015-02-21T11:07:07Z</time>
      </trkpt>
      <trkpt lat="60.115658022552" lon="15.888234018253">
        <ele>160</ele>
        <time>2015-02-21T11:07:12Z</time>
      </trkpt>
      <trkpt lat="60.115791881495" lon="15.887947273454">
        <ele>160</ele>
        <time>2015-02-21T11:07:17Z</time>
      </trkpt>
      <trkpt lat="60.11585348846" lon="15.887834285442">
        <ele>160</ele>
        <time>2015-02-21T11:07:19Z</time>
      </trkpt>
      <trkpt lat="60.115985838661" lon="15.88765088947">
        <ele>160.4</ele>
        <time>2015-02-21T11:07:24Z</time>
      </trkpt>
      <trkpt lat="60.116003356832" lon="15.887641585561">
        <ele>160.6</ele>
        <time>2015-02-21T11:07:25Z</time>
      </trkpt>
      <trkpt lat="60.116086672918" lon="15.887611745997">
        <ele>161.4</ele>
        <time>2015-02-21T11:07:28Z</time>
      </trkpt>
      <trkpt lat="60.116173928497" lon="15.887615769309">
        <ele>162</ele>
        <time>2015-02-21T11:07:31Z</time>
      </trkpt>
      <trkpt lat="60.116227656476" lon="15.887638651896">
        <ele>162.2</ele>
        <time>2015-02-21T11:07:33Z</time>
      </trkpt>
      <trkpt lat="60.116389175689" lon="15.887740743438">
        <ele>162.2</ele>
        <time>2015-02-21T11:07:39Z</time>
      </trkpt>
      <trkpt lat="60.116429157352" lon="15.887722554715">
        <ele>162.4</ele>
        <time>2015-02-21T11:07:40Z</time>
      </trkpt>
      <trkpt lat="60.116504510633" lon="15.887732529176">
        <ele>162.4</ele>
        <time>2015-02-21T11:07:42Z</time>
      </trkpt>
      <trkpt lat="60.116619510301" lon="15.88771207734">
        <ele>162.4</ele>
        <time>2015-02-21T11:07:45Z</time>
      </trkpt>
      <trkpt lat="60.116699305989" lon="15.887672011858">
        <ele>161.8</ele>
        <time>2015-02-21T11:07:47Z</time>
      </trkpt>
      <trkpt lat="60.116742724231" lon="15.887625408494">
        <ele>162</ele>
        <time>2015-02-21T11:07:48Z</time>
      </trkpt>
      <trkpt lat="60.116834589855" lon="15.887456513209">
        <ele>162</ele>
        <time>2015-02-21T11:07:52Z</time>
      </trkpt>
      <trkpt lat="60.116976327784" lon="15.88726616026">
        <ele>162.2</ele>
        <time>2015-02-21T11:07:57Z</time>
      </trkpt>
      <trkpt lat="60.117054447092" lon="15.887162559976">
        <ele>162.8</ele>
        <time>2015-02-21T11:08:00Z</time>
      </trkpt>
      <trkpt lat="60.117090824538" lon="15.887095337138">
        <ele>163.2</ele>
        <time>2015-02-21T11:08:02Z</time>
      </trkpt>
      <trkpt lat="60.117139858653" lon="15.887019480943">
        <ele>163.6</ele>
        <time>2015-02-21T11:08:04Z</time>
      </trkpt>
      <trkpt lat="60.117174140624" lon="15.886977571443">
        <ele>163.8</ele>
        <time>2015-02-21T11:08:05Z</time>
      </trkpt>
      <trkpt lat="60.117209596061" lon="15.886912192623">
        <ele>163.6</ele>
        <time>2015-02-21T11:08:06Z</time>
      </trkpt>
      <trkpt lat="60.117236082865" lon="15.886874222616">
        <ele>163.8</ele>
        <time>2015-02-21T11:08:07Z</time>
      </trkpt>
      <trkpt lat="60.117348735601" lon="15.886702393666">
        <ele>163.4</ele>
        <time>2015-02-21T11:08:10Z</time>
      </trkpt>
      <trkpt lat="60.117377401699" lon="15.886652437542">
        <ele>163.6</ele>
        <time>2015-02-21T11:08:11Z</time>
      </trkpt>
      <trkpt lat="60.117483600372" lon="15.88646317424">
        <ele>163.2</ele>
        <time>2015-02-21T11:08:14Z</time>
      </trkpt>
      <trkpt lat="60.117640844816" lon="15.886176261803">
        <ele>162.6</ele>
        <time>2015-02-21T11:08:19Z</time>
      </trkpt>
      <trkpt lat="60.117679150099" lon="15.88608598874">
        <ele>162.8</ele>
        <time>2015-02-21T11:08:20Z</time>
      </trkpt>
      <trkpt lat="60.117839747303" lon="15.885727411058">
        <ele>162.8</ele>
        <time>2015-02-21T11:08:26Z</time>
      </trkpt>
      <trkpt lat="60.117971762228" lon="15.885344022952">
        <ele>163.2</ele>
        <time>2015-02-21T11:08:33Z</time>
      </trkpt>
      <trkpt lat="60.118051977011" lon="15.885207649439">
        <ele>163.6</ele>
        <time>2015-02-21T11:08:36Z</time>
      </trkpt>
      <trkpt lat="60.118097071633" lon="15.885168003052">
        <ele>163.6</ele>
        <time>2015-02-21T11:08:37Z</time>
      </trkpt>
      <trkpt lat="60.118179214253" lon="15.884996928473">
        <ele>163.8</ele>
        <time>2015-02-21T11:08:41Z</time>
      </trkpt>
      <trkpt lat="60.118313995205" lon="15.884750332975">
        <ele>164</ele>
        <time>2015-02-21T11:08:47Z</time>
      </trkpt>
      <trkpt lat="60.118427067036" lon="15.884468701135">
        <ele>164.4</ele>
        <time>2015-02-21T11:08:53Z</time>
      </trkpt>
      <trkpt lat="60.118477693712" lon="15.884380104452">
        <ele>164.6</ele>
        <time>2015-02-21T11:08:55Z</time>
      </trkpt>
      <trkpt lat="60.11853318189" lon="15.884230738994">
        <ele>164.8</ele>
        <time>2015-02-21T11:08:58Z</time>
      </trkpt>
      <trkpt lat="60.118654300345" lon="15.884042984434">
        <ele>165</ele>
        <time>2015-02-21T11:09:02Z</time>
      </trkpt>
      <trkpt lat="60.118710542894" lon="15.883955477398">
        <ele>165</ele>
        <time>2015-02-21T11:09:04Z</time>
      </trkpt>
      <trkpt lat="60.118842222543" lon="15.883775434186">
        <ele>165.6</ele>
        <time>2015-02-21T11:09:08Z</time>
      </trkpt>
      <trkpt lat="60.118936267461" lon="15.883658339043">
        <ele>165.4</ele>
        <time>2015-02-21T11:09:11Z</time>
      </trkpt>
      <trkpt lat="60.119049255473" lon="15.883529425421">
        <ele>165.2</ele>
        <time>2015-02-21T11:09:14Z</time>
      </trkpt>
      <trkpt lat="60.119185377529" lon="15.88333421097">
        <ele>165</ele>
        <time>2015-02-21T11:09:18Z</time>
      </trkpt>
      <trkpt lat="60.119224185726" lon="15.88328894871">
        <ele>165</ele>
        <time>2015-02-21T11:09:19Z</time>
      </trkpt>
      <trkpt lat="60.119257797145" lon="15.883233460532">
        <ele>165</ele>
        <time>2015-02-21T11:09:20Z</time>
      </trkpt>
      <trkpt lat="60.119361229791" lon="15.883006394861">
        <ele>164.8</ele>
        <time>2015-02-21T11:09:24Z</time>
      </trkpt>
      <trkpt lat="60.119472289966" lon="15.882757955345">
        <ele>164.8</ele>
        <time>2015-02-21T11:09:28Z</time>
      </trkpt>
      <trkpt lat="60.119525682669" lon="15.882647481903">
        <ele>165</ele>
        <time>2015-02-21T11:09:30Z</time>
      </trkpt>
      <trkpt lat="60.119689716452" lon="15.88229820813">
        <ele>165</ele>
        <time>2015-02-21T11:09:36Z</time>
      </trkpt>
      <trkpt lat="60.119871016949" lon="15.881941474466">
        <ele>165</ele>
        <time>2015-02-21T11:09:43Z</time>
      </trkpt>
      <trkpt lat="60.120006133177" lon="15.881649784346">
        <ele>165</ele>
        <time>2015-02-21T11:09:49Z</time>
      </trkpt>
      <trkpt lat="60.120175279919" lon="15.88129238013">
        <ele>165.4</ele>
        <time>2015-02-21T11:09:56Z</time>
      </trkpt>
      <trkpt lat="60.120325902662" lon="15.881001863476">
        <ele>165.8</ele>
        <time>2015-02-21T11:10:02Z</time>
      </trkpt>
      <trkpt lat="60.120371416379" lon="15.880902118866">
        <ele>166.2</ele>
        <time>2015-02-21T11:10:04Z</time>
      </trkpt>
      <trkpt lat="60.120445344737" lon="15.880733642676">
        <ele>166.4</ele>
        <time>2015-02-21T11:10:08Z</time>
      </trkpt>
      <trkpt lat="60.120551711048" lon="15.880566339952">
        <ele>166.8</ele>
        <time>2015-02-21T11:10:14Z</time>
      </trkpt>
      <trkpt lat="60.12057501273" lon="15.880532057981">
        <ele>167.2</ele>
        <time>2015-02-21T11:10:15Z</time>
      </trkpt>
      <trkpt lat="60.120653718771" lon="15.880393421355">
        <ele>168.2</ele>
        <time>2015-02-21T11:10:18Z</time>
      </trkpt>
      <trkpt lat="60.120708787854" lon="15.880304237939">
        <ele>168.4</ele>
        <time>2015-02-21T11:10:20Z</time>
      </trkpt>
      <trkpt lat="60.120736867219" lon="15.880275152746">
        <ele>168.2</ele>
        <time>2015-02-21T11:10:21Z</time>
      </trkpt>
      <trkpt lat="60.120813310147" lon="15.88017758743">
        <ele>168.2</ele>
        <time>2015-02-21T11:10:23Z</time>
      </trkpt>
      <trkpt lat="60.120853375629" lon="15.880096115362">
        <ele>168</ele>
        <time>2015-02-21T11:10:24Z</time>
      </trkpt>
      <trkpt lat="60.120983295079" lon="15.879856309203">
        <ele>167.2</ele>
        <time>2015-02-21T11:10:28Z</time>
      </trkpt>
      <trkpt lat="60.121154872572" lon="15.879508963267">
        <ele>166.2</ele>
        <time>2015-02-21T11:10:34Z</time>
      </trkpt>
      <trkpt lat="60.12117767134" lon="15.879442913895">
        <ele>166.4</ele>
        <time>2015-02-21T11:10:35Z</time>
      </trkpt>
      <trkpt lat="60.12124724111" lon="15.879236551517">
        <ele>166.8</ele>
        <time>2015-02-21T11:10:38Z</time>
      </trkpt>
      <trkpt lat="60.121289821162" lon="15.879097579615">
        <ele>166.4</ele>
        <time>2015-02-21T11:10:40Z</time>
      </trkpt>
      <trkpt lat="60.121311027369" lon="15.878933797289">
        <ele>166.2</ele>
        <time>2015-02-21T11:10:42Z</time>
      </trkpt>
      <trkpt lat="60.121325360418" lon="15.878755179">
        <ele>165.8</ele>
        <time>2015-02-21T11:10:44Z</time>
      </trkpt>
      <trkpt lat="60.121354780887" lon="15.878489724227">
        <ele>165.6</ele>
        <time>2015-02-21T11:10:47Z</time>
      </trkpt>
      <trkpt lat="60.121380010406" lon="15.878179007194">
        <ele>165.6</ele>
        <time>2015-02-21T11:10:51Z</time>
      </trkpt>
      <trkpt lat="60.121399540233" lon="15.878015141049">
        <ele>165.8</ele>
        <time>2015-02-21T11:10:53Z</time>
      </trkpt>
      <trkpt lat="60.121410520522" lon="15.877925706176">
        <ele>165.8</ele>
        <time>2015-02-21T11:10:54Z</time>
      </trkpt>
      <trkpt lat="60.121454609316" lon="15.877790925224">
        <ele>166</ele>
        <time>2015-02-21T11:10:56Z</time>
      </trkpt>
      <trkpt lat="60.121483107776" lon="15.877739879453">
        <ele>165.8</ele>
        <time>2015-02-21T11:10:57Z</time>
      </trkpt>
      <trkpt lat="60.121494590979" lon="15.877670142045">
        <ele>165.6</ele>
        <time>2015-02-21T11:10:58Z</time>
      </trkpt>
      <trkpt lat="60.121560388894" lon="15.877494708878">
        <ele>165.6</ele>
        <time>2015-02-21T11:11:01Z</time>
      </trkpt>
      <trkpt lat="60.121705898678" lon="15.877196648514">
        <ele>165.6</ele>
        <time>2015-02-21T11:11:07Z</time>
      </trkpt>
      <trkpt lat="60.121817294129" lon="15.876882913997">
        <ele>165.8</ele>
        <time>2015-02-21T11:11:12Z</time>
      </trkpt>
      <trkpt lat="60.12192198406" lon="15.876452587251">
        <ele>166.4</ele>
        <time>2015-02-21T11:11:18Z</time>
      </trkpt>
      <trkpt lat="60.12195048252" lon="15.876303557069">
        <ele>166</ele>
        <time>2015-02-21T11:11:20Z</time>
      </trkpt>
      <trkpt lat="60.121970766718" lon="15.876137930725">
        <ele>166</ele>
        <time>2015-02-21T11:11:22Z</time>
      </trkpt>
      <trkpt lat="60.121994403676" lon="15.875976076236">
        <ele>166</ele>
        <time>2015-02-21T11:11:24Z</time>
      </trkpt>
      <trkpt lat="60.122034972072" lon="15.875648092489">
        <ele>166.2</ele>
        <time>2015-02-21T11:11:29Z</time>
      </trkpt>
      <trkpt lat="60.122130190456" lon="15.875298231983">
        <ele>166</ele>
        <time>2015-02-21T11:11:34Z</time>
      </trkpt>
      <trkpt lat="60.122231192351" lon="15.874942671785">
        <ele>166</ele>
        <time>2015-02-21T11:11:39Z</time>
      </trkpt>
      <trkpt lat="60.122287770176" lon="15.874723736557">
        <ele>166.8</ele>
        <time>2015-02-21T11:11:42Z</time>
      </trkpt>
      <trkpt lat="60.122311910048" lon="15.874570683063">
        <ele>167</ele>
        <time>2015-02-21T11:11:44Z</time>
      </trkpt>
      <trkpt lat="60.122322303604" lon="15.874506142433">
        <ele>166.8</ele>
        <time>2015-02-21T11:11:45Z</time>
      </trkpt>
      <trkpt lat="60.12234946096" lon="15.874268934663">
        <ele>165.8</ele>
        <time>2015-02-21T11:11:48Z</time>
      </trkpt>
      <trkpt lat="60.122353232815" lon="15.87409987174">
        <ele>165.8</ele>
        <time>2015-02-21T11:11:50Z</time>
      </trkpt>
      <trkpt lat="60.122302354682" lon="15.873748167216">
        <ele>167</ele>
        <time>2015-02-21T11:11:56Z</time>
      </trkpt>
      <trkpt lat="60.122295062429" lon="15.873690080649">
        <ele>167.2</ele>
        <time>2015-02-21T11:11:57Z</time>
      </trkpt>
      <trkpt lat="60.122246698866" lon="15.873391768828">
        <ele>167.2</ele>
        <time>2015-02-21T11:12:02Z</time>
      </trkpt>
      <trkpt lat="60.122212165438" lon="15.873076944664">
        <ele>167</ele>
        <time>2015-02-21T11:12:06Z</time>
      </trkpt>
      <trkpt lat="60.122180817132" lon="15.872927998301">
        <ele>166.6</ele>
        <time>2015-02-21T11:12:08Z</time>
      </trkpt>
      <trkpt lat="60.122146451342" lon="15.872696993137">
        <ele>166.6</ele>
        <time>2015-02-21T11:12:11Z</time>
      </trkpt>
      <trkpt lat="60.122139745822" lon="15.872547208584">
        <ele>166.4</ele>
        <time>2015-02-21T11:12:13Z</time>
      </trkpt>
      <trkpt lat="60.122139997279" lon="15.872158036967">
        <ele>167</ele>
        <time>2015-02-21T11:12:19Z</time>
      </trkpt>
      <trkpt lat="60.122158940373" lon="15.872013868287">
        <ele>167.6</ele>
        <time>2015-02-21T11:12:22Z</time>
      </trkpt>
      <trkpt lat="60.122169166291" lon="15.871791245023">
        <ele>168.2</ele>
        <time>2015-02-21T11:12:26Z</time>
      </trkpt>
      <trkpt lat="60.122167992825" lon="15.871660403564">
        <ele>168.4</ele>
        <time>2015-02-21T11:12:29Z</time>
      </trkpt>
      <trkpt lat="60.122169082472" lon="15.871493017021">
        <ele>169.6</ele>
        <time>2015-02-21T11:12:32Z</time>
      </trkpt>
      <trkpt lat="60.122181571503" lon="15.871324792288">
        <ele>170.4</ele>
        <time>2015-02-21T11:12:36Z</time>
      </trkpt>
      <trkpt lat="60.122201436606" lon="15.871229741542">
        <ele>170.8</ele>
        <time>2015-02-21T11:12:38Z</time>
      </trkpt>
      <trkpt lat="60.122257679155" lon="15.871034527091">
        <ele>174</ele>
        <time>2015-02-21T11:12:42Z</time>
      </trkpt>
      <trkpt lat="60.122270503462" lon="15.870975853791">
        <ele>174</ele>
        <time>2015-02-21T11:12:43Z</time>
      </trkpt>
      <trkpt lat="60.122272012204" lon="15.870736131451">
        <ele>173</ele>
        <time>2015-02-21T11:12:47Z</time>
      </trkpt>
      <trkpt lat="60.122265222865" lon="15.870667651328">
        <ele>170.4</ele>
        <time>2015-02-21T11:12:48Z</time>
      </trkpt>
      <trkpt lat="60.122213255085" lon="15.870266158318">
        <ele>170.8</ele>
        <time>2015-02-21T11:12:55Z</time>
      </trkpt>
      <trkpt lat="60.122188779937" lon="15.869822001437">
        <ele>170.8</ele>
        <time>2015-02-21T11:13:02Z</time>
      </trkpt>
      <trkpt lat="60.122182242055" lon="15.869573561921">
        <ele>171.6</ele>
        <time>2015-02-21T11:13:06Z</time>
      </trkpt>
      <trkpt lat="60.12218098477" lon="15.869444145385">
        <ele>171.6</ele>
        <time>2015-02-21T11:13:08Z</time>
      </trkpt>
      <trkpt lat="60.122222726632" lon="15.869079281278">
        <ele>172.2</ele>
        <time>2015-02-21T11:13:14Z</time>
      </trkpt>
      <trkpt lat="60.122269329996" lon="15.868821370215">
        <ele>172.4</ele>
        <time>2015-02-21T11:13:18Z</time>
      </trkpt>
      <trkpt lat="60.122275532602" lon="15.868648703075">
        <ele>172.2</ele>
        <time>2015-02-21T11:13:20Z</time>
      </trkpt>
      <trkpt lat="60.122263714123" lon="15.868445777276">
        <ele>172</ele>
        <time>2015-02-21T11:13:23Z</time>
      </trkpt>
      <trkpt lat="60.122243932839" lon="15.868360114258">
        <ele>171.8</ele>
        <time>2015-02-21T11:13:24Z</time>
      </trkpt>
      <trkpt lat="60.122199927864" lon="15.868160876495">
        <ele>171.6</ele>
        <time>2015-02-21T11:13:27Z</time>
      </trkpt>
      <trkpt lat="60.122107559326" lon="15.867889638211">
        <ele>171.4</ele>
        <time>2015-02-21T11:13:32Z</time>
      </trkpt>
      <trkpt lat="60.122033798606" lon="15.867594008598">
        <ele>171.6</ele>
        <time>2015-02-21T11:13:37Z</time>
      </trkpt>
      <trkpt lat="60.122034804434" lon="15.867283962117">
        <ele>172</ele>
        <time>2015-02-21T11:13:42Z</time>
      </trkpt>
      <trkpt lat="60.122078474133" lon="15.866841397797">
        <ele>170.8</ele>
        <time>2015-02-21T11:13:48Z</time>
      </trkpt>
      <trkpt lat="60.122065733645" lon="15.866671999598">
        <ele>170.2</ele>
        <time>2015-02-21T11:13:50Z</time>
      </trkpt>
      <trkpt lat="60.122019130281" lon="15.866541158139">
        <ele>169.8</ele>
        <time>2015-02-21T11:13:52Z</time>
      </trkpt>
      <trkpt lat="60.121957942411" lon="15.86649162111">
        <ele>169</ele>
        <time>2015-02-21T11:13:54Z</time>
      </trkpt>
      <trkpt lat="60.12181134298" lon="15.8664505498">
        <ele>169.6</ele>
        <time>2015-02-21T11:14:00Z</time>
      </trkpt>
      <trkpt lat="60.121795165913" lon="15.866444347194">
        <ele>170.2</ele>
        <time>2015-02-21T11:14:01Z</time>
      </trkpt>
      <trkpt lat="60.12171998027" lon="15.866426158471">
        <ele>171.4</ele>
        <time>2015-02-21T11:14:05Z</time>
      </trkpt>
      <trkpt lat="60.121648231206" lon="15.866420207322">
        <ele>172.6</ele>
        <time>2015-02-21T11:14:09Z</time>
      </trkpt>
      <trkpt lat="60.121583942033" lon="15.866401515685">
        <ele>173.6</ele>
        <time>2015-02-21T11:14:12Z</time>
      </trkpt>
      <trkpt lat="60.121563406378" lon="15.866391373586">
        <ele>173.4</ele>
        <time>2015-02-21T11:14:13Z</time>
      </trkpt>
      <trkpt lat="60.121504900716" lon="15.866374777424">
        <ele>174.2</ele>
        <time>2015-02-21T11:14:16Z</time>
      </trkpt>
      <trkpt lat="60.121469612917" lon="15.866371508483">
        <ele>174.4</ele>
        <time>2015-02-21T11:14:18Z</time>
      </trkpt>
      <trkpt lat="60.121431978186" lon="15.866363042764">
        <ele>174.8</ele>
        <time>2015-02-21T11:14:20Z</time>
      </trkpt>
      <trkpt lat="60.121306333505" lon="15.866386679722">
        <ele>176</ele>
        <time>2015-02-21T11:14:26Z</time>
      </trkpt>
      <trkpt lat="60.121157638599" lon="15.866438563683">
        <ele>176.6</ele>
        <time>2015-02-21T11:14:33Z</time>
      </trkpt>
      <trkpt lat="60.121142215903" lon="15.86644635885">
        <ele>177.2</ele>
        <time>2015-02-21T11:14:34Z</time>
      </trkpt>
      <trkpt lat="60.121071975581" lon="15.866467145962">
        <ele>178.2</ele>
        <time>2015-02-21T11:14:38Z</time>
      </trkpt>
      <trkpt lat="60.120998885413" lon="15.866472007464">
        <ele>178.6</ele>
        <time>2015-02-21T11:14:42Z</time>
      </trkpt>
      <trkpt lat="60.120915653146" lon="15.866454992207">
        <ele>179.2</ele>
        <time>2015-02-21T11:14:49Z</time>
      </trkpt>
      <trkpt lat="60.120904672857" lon="15.866450465981">
        <ele>179.8</ele>
        <time>2015-02-21T11:14:50Z</time>
      </trkpt>
      <trkpt lat="60.120884975392" lon="15.866438898959">
        <ele>180.4</ele>
        <time>2015-02-21T11:14:52Z</time>
      </trkpt>
      <trkpt lat="60.120813142509" lon="15.866409059395">
        <ele>181</ele>
        <time>2015-02-21T11:14:58Z</time>
      </trkpt>
      <trkpt lat="60.120786404248" lon="15.866408388843">
        <ele>181.6</ele>
        <time>2015-02-21T11:15:00Z</time>
      </trkpt>
      <trkpt lat="60.120696047366" lon="15.86640947849">
        <ele>182.2</ele>
        <time>2015-02-21T11:15:06Z</time>
      </trkpt>
      <trkpt lat="60.120668806191" lon="15.866425487919">
        <ele>182.8</ele>
        <time>2015-02-21T11:15:08Z</time>
      </trkpt>
      <trkpt lat="60.120630417089" lon="15.866457087682">
        <ele>183.8</ele>
        <time>2015-02-21T11:15:11Z</time>
      </trkpt>
      <trkpt lat="60.120588675227" lon="15.866506205616">
        <ele>185</ele>
        <time>2015-02-21T11:15:14Z</time>
      </trkpt>
      <trkpt lat="60.12054232332" lon="15.866549707677">
        <ele>186.4</ele>
        <time>2015-02-21T11:15:18Z</time>
      </trkpt>
      <trkpt lat="60.120494127395" lon="15.866584073467">
        <ele>186.6</ele>
        <time>2015-02-21T11:15:22Z</time>
      </trkpt>
      <trkpt lat="60.120431179326" lon="15.866620450913">
        <ele>188</ele>
        <time>2015-02-21T11:15:26Z</time>
      </trkpt>
      <trkpt lat="60.120375858786" lon="15.866667138096">
        <ele>189</ele>
        <time>2015-02-21T11:15:30Z</time>
      </trkpt>
      <trkpt lat="60.12036378885" lon="15.866669485028">
        <ele>189.2</ele>
        <time>2015-02-21T11:15:31Z</time>
      </trkpt>
      <trkpt lat="60.120296482193" lon="15.86672463793">
        <ele>190.4</ele>
        <time>2015-02-21T11:15:36Z</time>
      </trkpt>
      <trkpt lat="60.120284244619" lon="15.866741569368">
        <ele>190.8</ele>
        <time>2015-02-21T11:15:37Z</time>
      </trkpt>
      <trkpt lat="60.120246777526" lon="15.866792363682">
        <ele>191.4</ele>
        <time>2015-02-21T11:15:40Z</time>
      </trkpt>
      <trkpt lat="60.120163042345" lon="15.866885235134">
        <ele>192.4</ele>
        <time>2015-02-21T11:15:46Z</time>
      </trkpt>
      <trkpt lat="60.120160360137" lon="15.866903004762">
        <ele>192.4</ele>
        <time>2015-02-21T11:15:47Z</time>
      </trkpt>
      <trkpt lat="60.12011903737" lon="15.866988835418">
        <ele>193.4</ele>
        <time>2015-02-21T11:15:52Z</time>
      </trkpt>
      <trkpt lat="60.120111661298" lon="15.86699704968">
        <ele>194</ele>
        <time>2015-02-21T11:15:53Z</time>
      </trkpt>
      <trkpt lat="60.120090287453" lon="15.867054968609">
        <ele>195</ele>
        <time>2015-02-21T11:15:56Z</time>
      </trkpt>
      <trkpt lat="60.120080061535" lon="15.867073157332">
        <ele>195.2</ele>
        <time>2015-02-21T11:15:57Z</time>
      </trkpt>
      <trkpt lat="60.120047455944" lon="15.867153455934">
        <ele>196.2</ele>
        <time>2015-02-21T11:16:01Z</time>
      </trkpt>
      <trkpt lat="60.120019041303" lon="15.867222187514">
        <ele>196.6</ele>
        <time>2015-02-21T11:16:04Z</time>
      </trkpt>
      <trkpt lat="60.1199991762" lon="15.867223612437">
        <ele>197.2</ele>
        <time>2015-02-21T11:16:05Z</time>
      </trkpt>
      <trkpt lat="60.119989034101" lon="15.867231491423">
        <ele>197.4</ele>
        <time>2015-02-21T11:16:06Z</time>
      </trkpt>
      <trkpt lat="60.119956679967" lon="15.867250266879">
        <ele>197.6</ele>
        <time>2015-02-21T11:16:08Z</time>
      </trkpt>
      <trkpt lat="60.119903119626" lon="15.867292595474">
        <ele>197.8</ele>
        <time>2015-02-21T11:16:12Z</time>
      </trkpt>
      <trkpt lat="60.11987177132" lon="15.8673138855">
        <ele>198.4</ele>
        <time>2015-02-21T11:16:14Z</time>
      </trkpt>
      <trkpt lat="60.119832208752" lon="15.86734406034">
        <ele>198.8</ele>
        <time>2015-02-21T11:16:16Z</time>
      </trkpt>
      <trkpt lat="60.119722405862" lon="15.867400889622">
        <ele>198.6</ele>
        <time>2015-02-21T11:16:21Z</time>
      </trkpt>
      <trkpt lat="60.119534399845" lon="15.867410947902">
        <ele>199.4</ele>
        <time>2015-02-21T11:16:26Z</time>
      </trkpt>
      <trkpt lat="60.119371707166" lon="15.867362835796">
        <ele>198.8</ele>
        <time>2015-02-21T11:16:30Z</time>
      </trkpt>
      <trkpt lat="60.119330216761" lon="15.867347329281">
        <ele>198.6</ele>
        <time>2015-02-21T11:16:31Z</time>
      </trkpt>
      <trkpt lat="60.119196357818" lon="15.867308437265">
        <ele>198.6</ele>
        <time>2015-02-21T11:16:35Z</time>
      </trkpt>
      <trkpt lat="60.119044058695" lon="15.867264180833">
        <ele>199.2</ele>
        <time>2015-02-21T11:16:41Z</time>
      </trkpt>
      <trkpt lat="60.119001813919" lon="15.867280106443">
        <ele>199.8</ele>
        <time>2015-02-21T11:16:43Z</time>
      </trkpt>
      <trkpt lat="60.118946996293" lon="15.867294439492">
        <ele>200.4</ele>
        <time>2015-02-21T11:16:46Z</time>
      </trkpt>
      <trkpt lat="60.118886143699" lon="15.867330230205">
        <ele>201</ele>
        <time>2015-02-21T11:16:49Z</time>
      </trkpt>
      <trkpt lat="60.118855549764" lon="15.86737423518">
        <ele>201</ele>
        <time>2015-02-21T11:16:51Z</time>
      </trkpt>
      <trkpt lat="60.118830990797" lon="15.867430058634">
        <ele>201</ele>
        <time>2015-02-21T11:16:53Z</time>
      </trkpt>
      <trkpt lat="60.118825207286" lon="15.867454533782">
        <ele>201.2</ele>
        <time>2015-02-21T11:16:54Z</time>
      </trkpt>
      <trkpt lat="60.118806850925" lon="15.867548494881">
        <ele>202.4</ele>
        <time>2015-02-21T11:16:57Z</time>
      </trkpt>
      <trkpt lat="60.118784052157" lon="15.86760054648">
        <ele>203</ele>
        <time>2015-02-21T11:16:59Z</time>
      </trkpt>
      <trkpt lat="60.118760666656" lon="15.867662237264">
        <ele>203.4</ele>
        <time>2015-02-21T11:17:01Z</time>
      </trkpt>
      <trkpt lat="60.118710626713" lon="15.867781763158">
        <ele>204.2</ele>
        <time>2015-02-21T11:17:05Z</time>
      </trkpt>
      <trkpt lat="60.118678104941" lon="15.867829959083">
        <ele>204.8</ele>
        <time>2015-02-21T11:17:07Z</time>
      </trkpt>
      <trkpt lat="60.11859353157" lon="15.867987706441">
        <ele>205</ele>
        <time>2015-02-21T11:17:12Z</time>
      </trkpt>
      <trkpt lat="60.118540557962" lon="15.868143609781">
        <ele>204.8</ele>
        <time>2015-02-21T11:17:15Z</time>
      </trkpt>
      <trkpt lat="60.118535193546" lon="15.868197505398">
        <ele>205</ele>
        <time>2015-02-21T11:17:16Z</time>
      </trkpt>
      <trkpt lat="60.118510886036" lon="15.868242097106">
        <ele>205.2</ele>
        <time>2015-02-21T11:17:17Z</time>
      </trkpt>
      <trkpt lat="60.118437125316" lon="15.86842197268">
        <ele>205.6</ele>
        <time>2015-02-21T11:17:21Z</time>
      </trkpt>
      <trkpt lat="60.118407537209" lon="15.868499672893">
        <ele>205.8</ele>
        <time>2015-02-21T11:17:23Z</time>
      </trkpt>
      <trkpt lat="60.118377530007" lon="15.868627580687">
        <ele>206.2</ele>
        <time>2015-02-21T11:17:26Z</time>
      </trkpt>
      <trkpt lat="60.118336542516" lon="15.868868057398">
        <ele>206.8</ele>
        <time>2015-02-21T11:17:32Z</time>
      </trkpt>
      <trkpt lat="60.11833033991" lon="15.868905105396">
        <ele>207</ele>
        <time>2015-02-21T11:17:33Z</time>
      </trkpt>
      <trkpt lat="60.11828507765" lon="15.869106941548">
        <ele>208</ele>
        <time>2015-02-21T11:17:39Z</time>
      </trkpt>
      <trkpt lat="60.118282982175" lon="15.869143905727">
        <ele>208</ele>
        <time>2015-02-21T11:17:40Z</time>
      </trkpt>
      <trkpt lat="60.118272923895" lon="15.869277261756">
        <ele>209</ele>
        <time>2015-02-21T11:17:44Z</time>
      </trkpt>
      <trkpt lat="60.118273845904" lon="15.869360829299">
        <ele>209.4</ele>
        <time>2015-02-21T11:17:46Z</time>
      </trkpt>
      <trkpt lat="60.118246101815" lon="15.869552439533">
        <ele>210.2</ele>
        <time>2015-02-21T11:17:51Z</time>
      </trkpt>
      <trkpt lat="60.118149123232" lon="15.869751761115">
        <ele>210.8</ele>
        <time>2015-02-21T11:17:59Z</time>
      </trkpt>
      <trkpt lat="60.118120960048" lon="15.869777158272">
        <ele>211.2</ele>
        <time>2015-02-21T11:18:01Z</time>
      </trkpt>
      <trkpt lat="60.118111069406" lon="15.869788138561">
        <ele>211.6</ele>
        <time>2015-02-21T11:18:02Z</time>
      </trkpt>
      <trkpt lat="60.118091707217" lon="15.869817307573">
        <ele>212</ele>
        <time>2015-02-21T11:18:04Z</time>
      </trkpt>
      <trkpt lat="60.118079218186" lon="15.869813535718">
        <ele>212.6</ele>
        <time>2015-02-21T11:18:05Z</time>
      </trkpt>
      <trkpt lat="60.117997662299" lon="15.869933313069">
        <ele>213.8</ele>
        <time>2015-02-21T11:18:11Z</time>
      </trkpt>
      <trkpt lat="60.117912586014" lon="15.870096508662">
        <ele>214.8</ele>
        <time>2015-02-21T11:18:17Z</time>
      </trkpt>
      <trkpt lat="60.11788609921" lon="15.870160546378">
        <ele>215</ele>
        <time>2015-02-21T11:18:19Z</time>
      </trkpt>
      <trkpt lat="60.117830443394" lon="15.870272109467">
        <ele>215.8</ele>
        <time>2015-02-21T11:18:23Z</time>
      </trkpt>
      <trkpt lat="60.117799430364" lon="15.870337320649">
        <ele>216</ele>
        <time>2015-02-21T11:18:25Z</time>
      </trkpt>
      <trkpt lat="60.117723741807" lon="15.870512250902">
        <ele>216</ele>
        <time>2015-02-21T11:18:30Z</time>
      </trkpt>
      <trkpt lat="60.117669678552" lon="15.870606379639">
        <ele>217</ele>
        <time>2015-02-21T11:18:33Z</time>
      </trkpt>
      <trkpt lat="60.117654842589" lon="15.87064652894">
        <ele>217.2</ele>
        <time>2015-02-21T11:18:34Z</time>
      </trkpt>
      <trkpt lat="60.117562976965" lon="15.870804360117">
        <ele>218</ele>
        <time>2015-02-21T11:18:39Z</time>
      </trkpt>
      <trkpt lat="60.117524252587" lon="15.870876528276">
        <ele>218.2</ele>
        <time>2015-02-21T11:18:42Z</time>
      </trkpt>
      <trkpt lat="60.117500447991" lon="15.870921874355">
        <ele>218.6</ele>
        <time>2015-02-21T11:18:44Z</time>
      </trkpt>
      <trkpt lat="60.117442948157" lon="15.870979541827">
        <ele>219.2</ele>
        <time>2015-02-21T11:18:47Z</time>
      </trkpt>
      <trkpt lat="60.117429453298" lon="15.870994461609">
        <ele>219.2</ele>
        <time>2015-02-21T11:18:48Z</time>
      </trkpt>
      <trkpt lat="60.117417886276" lon="15.871022708612">
        <ele>219.6</ele>
        <time>2015-02-21T11:18:49Z</time>
      </trkpt>
      <trkpt lat="60.117374216577" lon="15.87109998973">
        <ele>219.8</ele>
        <time>2015-02-21T11:18:53Z</time>
      </trkpt>
      <trkpt lat="60.117347394497" lon="15.871134774615">
        <ele>220.4</ele>
        <time>2015-02-21T11:18:55Z</time>
      </trkpt>
      <trkpt lat="60.117317471114" lon="15.871184898377">
        <ele>220.6</ele>
        <time>2015-02-21T11:18:57Z</time>
      </trkpt>
      <trkpt lat="60.117283105324" lon="15.871244745143">
        <ele>220.4</ele>
        <time>2015-02-21T11:18:59Z</time>
      </trkpt>
      <trkpt lat="60.117136254436" lon="15.871453789729">
        <ele>219.2</ele>
        <time>2015-02-21T11:19:05Z</time>
      </trkpt>
      <trkpt lat="60.117032402695" lon="15.871558731117">
        <ele>218</ele>
        <time>2015-02-21T11:19:09Z</time>
      </trkpt>
      <trkpt lat="60.116959815441" lon="15.871608519603">
        <ele>217.8</ele>
        <time>2015-02-21T11:19:12Z</time>
      </trkpt>
      <trkpt lat="60.116902567064" lon="15.871675239527">
        <ele>217.8</ele>
        <time>2015-02-21T11:19:15Z</time>
      </trkpt>
      <trkpt lat="60.116888234015" lon="15.871703737987">
        <ele>217.8</ele>
        <time>2015-02-21T11:19:16Z</time>
      </trkpt>
      <trkpt lat="60.11687188931" lon="15.871712622801">
        <ele>217.6</ele>
        <time>2015-02-21T11:19:17Z</time>
      </trkpt>
      <trkpt lat="60.116812126363" lon="15.871767775703">
        <ele>217.6</ele>
        <time>2015-02-21T11:19:21Z</time>
      </trkpt>
      <trkpt lat="60.11677633565" lon="15.871813876153">
        <ele>218.6</ele>
        <time>2015-02-21T11:19:24Z</time>
      </trkpt>
      <trkpt lat="60.116749681208" lon="15.871858886956">
        <ele>218.8</ele>
        <time>2015-02-21T11:19:26Z</time>
      </trkpt>
      <trkpt lat="60.116724535508" lon="15.87191135765">
        <ele>219.4</ele>
        <time>2015-02-21T11:19:28Z</time>
      </trkpt>
      <trkpt lat="60.116697964885" lon="15.871912950211">
        <ele>219.4</ele>
        <time>2015-02-21T11:19:29Z</time>
      </trkpt>
      <trkpt lat="60.116646583838" lon="15.871973216072">
        <ele>220</ele>
        <time>2015-02-21T11:19:32Z</time>
      </trkpt>
      <trkpt lat="60.116530578342" lon="15.872144709746">
        <ele>220.4</ele>
        <time>2015-02-21T11:19:38Z</time>
      </trkpt>
      <trkpt lat="60.116512892533" lon="15.872171531826">
        <ele>220.4</ele>
        <time>2015-02-21T11:19:39Z</time>
      </trkpt>
      <trkpt lat="60.116444328591" lon="15.872330033555">
        <ele>220.6</ele>
        <time>2015-02-21T11:19:43Z</time>
      </trkpt>
      <trkpt lat="60.116298986445" lon="15.872488954379">
        <ele>219.6</ele>
        <time>2015-02-21T11:19:48Z</time>
      </trkpt>
      <trkpt lat="60.116276690591" lon="15.872496833365">
        <ele>219.2</ele>
        <time>2015-02-21T11:19:49Z</time>
      </trkpt>
      <trkpt lat="60.116206114993" lon="15.872512172242">
        <ele>219</ele>
        <time>2015-02-21T11:19:52Z</time>
      </trkpt>
      <trkpt lat="60.116082481968" lon="15.87244444649">
        <ele>220.6</ele>
        <time>2015-02-21T11:19:57Z</time>
      </trkpt>
      <trkpt lat="60.1159591004" lon="15.872374122349">
        <ele>221.4</ele>
        <time>2015-02-21T11:20:02Z</time>
      </trkpt>
      <trkpt lat="60.115921717126" lon="15.872358532015">
        <ele>221.6</ele>
        <time>2015-02-21T11:20:03Z</time>
      </trkpt>
      <trkpt lat="60.115840412696" lon="15.872339253645">
        <ele>221.8</ele>
        <time>2015-02-21T11:20:05Z</time>
      </trkpt>
      <trkpt lat="60.11574787652" lon="15.872346042984">
        <ele>221.8</ele>
        <time>2015-02-21T11:20:07Z</time>
      </trkpt>
      <trkpt lat="60.11566070476" lon="15.872388623036">
        <ele>221.6</ele>
        <time>2015-02-21T11:20:09Z</time>
      </trkpt>
      <trkpt lat="60.11550815418" lon="15.872489792569">
        <ele>221</ele>
        <time>2015-02-21T11:20:13Z</time>
      </trkpt>
      <trkpt lat="60.115352837573" lon="15.872591800292">
        <ele>221.8</ele>
        <time>2015-02-21T11:20:17Z</time>
      </trkpt>
      <trkpt lat="60.11531285591" lon="15.872611497757">
        <ele>222</ele>
        <time>2015-02-21T11:20:18Z</time>
      </trkpt>
      <trkpt lat="60.115278238663" lon="15.872658101121">
        <ele>222.2</ele>
        <time>2015-02-21T11:20:19Z</time>
      </trkpt>
      <trkpt lat="60.115114959251" lon="15.872760947034">
        <ele>222</ele>
        <time>2015-02-21T11:20:23Z</time>
      </trkpt>
      <trkpt lat="60.114960983748" lon="15.872938224219">
        <ele>222.6</ele>
        <time>2015-02-21T11:20:28Z</time>
      </trkpt>
      <trkpt lat="60.114928881071" lon="15.872976445683">
        <ele>223</ele>
        <time>2015-02-21T11:20:29Z</time>
      </trkpt>
      <trkpt lat="60.114735762095" lon="15.873155902162">
        <ele>222.6</ele>
        <time>2015-02-21T11:20:34Z</time>
      </trkpt>
      <trkpt lat="60.114472570435" lon="15.873388583706">
        <ele>221.8</ele>
        <time>2015-02-21T11:20:39Z</time>
      </trkpt>
      <trkpt lat="60.114419429189" lon="15.873431079939">
        <ele>221.8</ele>
        <time>2015-02-21T11:20:40Z</time>
      </trkpt>
      <trkpt lat="60.114280624925" lon="15.873536021327">
        <ele>220.8</ele>
        <time>2015-02-21T11:20:43Z</time>
      </trkpt>
      <trkpt lat="60.114197727934" lon="15.873612715712">
        <ele>220.6</ele>
        <time>2015-02-21T11:20:45Z</time>
      </trkpt>
      <trkpt lat="60.114102593369" lon="15.873686308794">
        <ele>219.6</ele>
        <time>2015-02-21T11:20:48Z</time>
      </trkpt>
      <trkpt lat="60.114047943381" lon="15.873736851651">
        <ele>218.8</ele>
        <time>2015-02-21T11:20:51Z</time>
      </trkpt>
      <trkpt lat="60.114055151815" lon="15.873752693442">
        <ele>218.6</ele>
        <time>2015-02-21T11:20:56Z</time>
      </trkpt>
      <trkpt lat="60.114743054348" lon="15.873276852979">
        <ele>224.2</ele>
        <time>2015-02-21T11:22:11Z</time>
      </trkpt>
      <trkpt lat="60.114704665246" lon="15.873310799674">
        <ele>224</ele>
        <time>2015-02-21T11:22:12Z</time>
      </trkpt>
      <trkpt lat="60.114512552098" lon="15.873468798489">
        <ele>223</ele>
        <time>2015-02-21T11:22:16Z</time>
      </trkpt>
      <trkpt lat="60.114420015922" lon="15.873547001616">
        <ele>222.6</ele>
        <time>2015-02-21T11:22:18Z</time>
      </trkpt>
      <trkpt lat="60.114047272829" lon="15.873803320118">
        <ele>221</ele>
        <time>2015-02-21T11:22:25Z</time>
      </trkpt>
      <trkpt lat="60.113949707513" lon="15.873873895716">
        <ele>219.8</ele>
        <time>2015-02-21T11:22:27Z</time>
      </trkpt>
      <trkpt lat="60.113860021183" lon="15.873951763567">
        <ele>218.4</ele>
        <time>2015-02-21T11:22:29Z</time>
      </trkpt>
      <trkpt lat="60.113661956886" lon="15.874099285007">
        <ele>217.2</ele>
        <time>2015-02-21T11:22:33Z</time>
      </trkpt>
      <trkpt lat="60.113502114053" lon="15.874218559444">
        <ele>216.6</ele>
        <time>2015-02-21T11:22:36Z</time>
      </trkpt>
      <trkpt lat="60.113366243454" lon="15.874343198297">
        <ele>216.2</ele>
        <time>2015-02-21T11:22:38Z</time>
      </trkpt>
      <trkpt lat="60.113177231609" lon="15.874540592042">
        <ele>214.4</ele>
        <time>2015-02-21T11:22:41Z</time>
      </trkpt>
      <trkpt lat="60.113044629951" lon="15.874677133193">
        <ele>212.6</ele>
        <time>2015-02-21T11:22:43Z</time>
      </trkpt>
      <trkpt lat="60.112897946701" lon="15.874790121205">
        <ele>210.8</ele>
        <time>2015-02-21T11:22:45Z</time>
      </trkpt>
      <trkpt lat="60.112750928175" lon="15.874843430089">
        <ele>209.6</ele>
        <time>2015-02-21T11:22:47Z</time>
      </trkpt>
      <trkpt lat="60.112608603513" lon="15.874889195263">
        <ele>208.2</ele>
        <time>2015-02-21T11:22:49Z</time>
      </trkpt>
      <trkpt lat="60.112415568356" lon="15.874952478608">
        <ele>207</ele>
        <time>2015-02-21T11:22:52Z</time>
      </trkpt>
      <trkpt lat="60.112303334715" lon="15.874978713955">
        <ele>206.4</ele>
        <time>2015-02-21T11:22:54Z</time>
      </trkpt>
      <trkpt lat="60.112144832986" lon="15.874981060887">
        <ele>206.4</ele>
        <time>2015-02-21T11:22:57Z</time>
      </trkpt>
      <trkpt lat="60.112098145803" lon="15.874971002607">
        <ele>206</ele>
        <time>2015-02-21T11:22:58Z</time>
      </trkpt>
      <trkpt lat="60.112038550494" lon="15.874957004834">
        <ele>203</ele>
        <time>2015-02-21T11:22:59Z</time>
      </trkpt>
      <trkpt lat="60.111684582857" lon="15.874946108364">
        <ele>204.8</ele>
        <time>2015-02-21T11:23:05Z</time>
      </trkpt>
      <trkpt lat="60.111541755281" lon="15.874971337883">
        <ele>203.4</ele>
        <time>2015-02-21T11:23:07Z</time>
      </trkpt>
      <trkpt lat="60.111396999868" lon="15.875031603744">
        <ele>200.6</ele>
        <time>2015-02-21T11:23:09Z</time>
      </trkpt>
      <trkpt lat="60.111261967459" lon="15.875116260934">
        <ele>195.4</ele>
        <time>2015-02-21T11:23:11Z</time>
      </trkpt>
      <trkpt lat="60.111203042702" lon="15.875161942289">
        <ele>193</ele>
        <time>2015-02-21T11:23:12Z</time>
      </trkpt>
      <trkpt lat="60.111128946706" lon="15.875227907842">
        <ele>190</ele>
        <time>2015-02-21T11:23:13Z</time>
      </trkpt>
      <trkpt lat="60.111075302546" lon="15.875281468183">
        <ele>186.8</ele>
        <time>2015-02-21T11:23:14Z</time>
      </trkpt>
      <trkpt lat="60.110946137467" lon="15.87541331547">
        <ele>186.8</ele>
        <time>2015-02-21T11:23:16Z</time>
      </trkpt>
      <trkpt lat="60.110884195226" lon="15.875460170291">
        <ele>187.4</ele>
        <time>2015-02-21T11:23:17Z</time>
      </trkpt>
      <trkpt lat="60.110562497904" lon="15.875701233735">
        <ele>185.8</ele>
        <time>2015-02-21T11:23:22Z</time>
      </trkpt>
      <trkpt lat="60.110481696388" lon="15.875763930347">
        <ele>185.4</ele>
        <time>2015-02-21T11:23:23Z</time>
      </trkpt>
      <trkpt lat="60.110215151968" lon="15.876068193317">
        <ele>183.4</ele>
        <time>2015-02-21T11:23:27Z</time>
      </trkpt>
      <trkpt lat="60.110186234413" lon="15.8761651719">
        <ele>182.8</ele>
        <time>2015-02-21T11:23:28Z</time>
      </trkpt>
      <trkpt lat="60.110155724297" lon="15.876426184266">
        <ele>182.2</ele>
        <time>2015-02-21T11:23:30Z</time>
      </trkpt>
      <trkpt lat="60.110142145619" lon="15.876592481162">
        <ele>181.8</ele>
        <time>2015-02-21T11:23:31Z</time>
      </trkpt>
      <trkpt lat="60.110133931357" lon="15.87669071703">
        <ele>181.6</ele>
        <time>2015-02-21T11:23:32Z</time>
      </trkpt>
      <trkpt lat="60.110093530599" lon="15.877015767112">
        <ele>181.2</ele>
        <time>2015-02-21T11:23:35Z</time>
      </trkpt>
      <trkpt lat="60.110078443179" lon="15.877102687415">
        <ele>181</ele>
        <time>2015-02-21T11:23:36Z</time>
      </trkpt>
      <trkpt lat="60.110045921407" lon="15.877337212977">
        <ele>180.6</ele>
        <time>2015-02-21T11:23:40Z</time>
      </trkpt>
      <trkpt lat="60.110041479" lon="15.877478699449">
        <ele>179.8</ele>
        <time>2015-02-21T11:23:43Z</time>
      </trkpt>
      <trkpt lat="60.110035360213" lon="15.877612474573">
        <ele>180</ele>
        <time>2015-02-21T11:23:45Z</time>
      </trkpt>
      <trkpt lat="60.110011136522" lon="15.87803517379">
        <ele>179.2</ele>
        <time>2015-02-21T11:23:52Z</time>
      </trkpt>
      <trkpt lat="60.110030414892" lon="15.878305992979">
        <ele>180.2</ele>
        <time>2015-02-21T11:23:58Z</time>
      </trkpt>
      <trkpt lat="60.110018512594" lon="15.878478408662">
        <ele>181</ele>
        <time>2015-02-21T11:24:02Z</time>
      </trkpt>
      <trkpt lat="60.11000962778" lon="15.878521240171">
        <ele>182.2</ele>
        <time>2015-02-21T11:24:03Z</time>
      </trkpt>
      <trkpt lat="60.109993869808" lon="15.878607573741">
        <ele>183.4</ele>
        <time>2015-02-21T11:24:05Z</time>
      </trkpt>
      <trkpt lat="60.109928155712" lon="15.878900521146">
        <ele>183</ele>
        <time>2015-02-21T11:24:11Z</time>
      </trkpt>
      <trkpt lat="60.109870404421" lon="15.879125491342">
        <ele>181.2</ele>
        <time>2015-02-21T11:24:15Z</time>
      </trkpt>
      <trkpt lat="60.109870320602" lon="15.879190953981">
        <ele>181</ele>
        <time>2015-02-21T11:24:16Z</time>
      </trkpt>
      <trkpt lat="60.109880714158" lon="15.879298242301">
        <ele>180.2</ele>
        <time>2015-02-21T11:24:18Z</time>
      </trkpt>
      <trkpt lat="60.109885156565" lon="15.879437884755">
        <ele>180.8</ele>
        <time>2015-02-21T11:24:21Z</time>
      </trkpt>
      <trkpt lat="60.109890856257" lon="15.879484739576">
        <ele>181.4</ele>
        <time>2015-02-21T11:24:22Z</time>
      </trkpt>
      <trkpt lat="60.109883815461" lon="15.879525307972">
        <ele>181.8</ele>
        <time>2015-02-21T11:24:23Z</time>
      </trkpt>
      <trkpt lat="60.109876439389" lon="15.87962773479">
        <ele>182.4</ele>
        <time>2015-02-21T11:24:25Z</time>
      </trkpt>
      <trkpt lat="60.109874511552" lon="15.879680037846">
        <ele>182.8</ele>
        <time>2015-02-21T11:24:26Z</time>
      </trkpt>
      <trkpt lat="60.109857663933" lon="15.879722785536">
        <ele>183</ele>
        <time>2015-02-21T11:24:27Z</time>
      </trkpt>
      <trkpt lat="60.109833272604" lon="15.879806185441">
        <ele>183.6</ele>
        <time>2015-02-21T11:24:29Z</time>
      </trkpt>
      <trkpt lat="60.109823884876" lon="15.879842227611">
        <ele>183.6</ele>
        <time>2015-02-21T11:24:30Z</time>
      </trkpt>
      <trkpt lat="60.109727660664" lon="15.880088152557">
        <ele>184.8</ele>
        <time>2015-02-21T11:24:35Z</time>
      </trkpt>
      <trkpt lat="60.109567147279" lon="15.880322175205">
        <ele>185.4</ele>
        <time>2015-02-21T11:24:41Z</time>
      </trkpt>
      <trkpt lat="60.109515347137" lon="15.880422841824">
        <ele>186</ele>
        <time>2015-02-21T11:24:43Z</time>
      </trkpt>
      <trkpt lat="60.109491458722" lon="15.880482185676">
        <ele>186</ele>
        <time>2015-02-21T11:24:44Z</time>
      </trkpt>
      <trkpt lat="60.109411663034" lon="15.880675975204">
        <ele>186.2</ele>
        <time>2015-02-21T11:24:46Z</time>
      </trkpt>
      <trkpt lat="60.109268584001" lon="15.881050897591">
        <ele>184.4</ele>
        <time>2015-02-21T11:24:49Z</time>
      </trkpt>
      <trkpt lat="60.109230362537" lon="15.88114988783">
        <ele>183.8</ele>
        <time>2015-02-21T11:24:50Z</time>
      </trkpt>
      <trkpt lat="60.109172695065" lon="15.881295313795">
        <ele>182.8</ele>
        <time>2015-02-21T11:24:51Z</time>
      </trkpt>
      <trkpt lat="60.109091558273" lon="15.881504861295">
        <ele>181.4</ele>
        <time>2015-02-21T11:24:53Z</time>
      </trkpt>
      <trkpt lat="60.109020479761" lon="15.881682473756">
        <ele>180.6</ele>
        <time>2015-02-21T11:24:55Z</time>
      </trkpt>
      <trkpt lat="60.108954765665" lon="15.881818679631">
        <ele>181.2</ele>
        <time>2015-02-21T11:24:57Z</time>
      </trkpt>
      <trkpt lat="60.108887878103" lon="15.881996292092">
        <ele>182</ele>
        <time>2015-02-21T11:24:59Z</time>
      </trkpt>
      <trkpt lat="60.108857535625" lon="15.882080027273">
        <ele>182.2</ele>
        <time>2015-02-21T11:25:00Z</time>
      </trkpt>
      <trkpt lat="60.108808669148" lon="15.882201732461">
        <ele>182.4</ele>
        <time>2015-02-21T11:25:01Z</time>
      </trkpt>
      <trkpt lat="60.108695094403" lon="15.882482777568">
        <ele>181.4</ele>
        <time>2015-02-21T11:25:04Z</time>
      </trkpt>
      <trkpt lat="60.108630553773" lon="15.882629125542">
        <ele>181</ele>
        <time>2015-02-21T11:25:06Z</time>
      </trkpt>
      <trkpt lat="60.108577580165" lon="15.882750663092">
        <ele>180.2</ele>
        <time>2015-02-21T11:25:07Z</time>
      </trkpt>
      <trkpt lat="60.108504154721" lon="15.882877648877">
        <ele>179.8</ele>
        <time>2015-02-21T11:25:09Z</time>
      </trkpt>
      <trkpt lat="60.108468950741" lon="15.882935903082">
        <ele>179.8</ele>
        <time>2015-02-21T11:25:10Z</time>
      </trkpt>
      <trkpt lat="60.108428298526" lon="15.882970268872">
        <ele>180</ele>
        <time>2015-02-21T11:25:11Z</time>
      </trkpt>
      <trkpt lat="60.108289997176" lon="15.883091303508">
        <ele>180.8</ele>
        <time>2015-02-21T11:25:14Z</time>
      </trkpt>
      <trkpt lat="60.108250434608" lon="15.883149557713">
        <ele>181</ele>
        <time>2015-02-21T11:25:15Z</time>
      </trkpt>
      <trkpt lat="60.108126969221" lon="15.883337144635">
        <ele>181</ele>
        <time>2015-02-21T11:25:19Z</time>
      </trkpt>
      <trkpt lat="60.1080633506" lon="15.883435045227">
        <ele>181.2</ele>
        <time>2015-02-21T11:25:21Z</time>
      </trkpt>
      <trkpt lat="60.107893533306" lon="15.883699410353">
        <ele>182.2</ele>
        <time>2015-02-21T11:25:26Z</time>
      </trkpt>
      <trkpt lat="60.107850534159" lon="15.883756910187">
        <ele>182.2</ele>
        <time>2015-02-21T11:25:27Z</time>
      </trkpt>
      <trkpt lat="60.107720614709" lon="15.883939635607">
        <ele>182.2</ele>
        <time>2015-02-21T11:25:30Z</time>
      </trkpt>
      <trkpt lat="60.107591365811" lon="15.884115655507">
        <ele>181</ele>
        <time>2015-02-21T11:25:33Z</time>
      </trkpt>
      <trkpt lat="60.107275284362" lon="15.884448333118">
        <ele>179.8</ele>
        <time>2015-02-21T11:25:39Z</time>
      </trkpt>
      <trkpt lat="60.107161877255" lon="15.884512035558">
        <ele>179</ele>
        <time>2015-02-21T11:25:41Z</time>
      </trkpt>
      <trkpt lat="60.107113597511" lon="15.884528799358">
        <ele>178.8</ele>
        <time>2015-02-21T11:25:42Z</time>
      </trkpt>
      <trkpt lat="60.106991976142" lon="15.884546652805">
        <ele>177.8</ele>
        <time>2015-02-21T11:25:44Z</time>
      </trkpt>
      <trkpt lat="60.106923747476" lon="15.884528966996">
        <ele>177.4</ele>
        <time>2015-02-21T11:25:45Z</time>
      </trkpt>
      <trkpt lat="60.106796426415" lon="15.88449426593">
        <ele>176.2</ele>
        <time>2015-02-21T11:25:47Z</time>
      </trkpt>
      <trkpt lat="60.106677571073" lon="15.884510862092">
        <ele>175.2</ele>
        <time>2015-02-21T11:25:49Z</time>
      </trkpt>
      <trkpt lat="60.106564080147" lon="15.884593088531">
        <ele>174.8</ele>
        <time>2015-02-21T11:25:51Z</time>
      </trkpt>
      <trkpt lat="60.106446230633" lon="15.884725438732">
        <ele>174.8</ele>
        <time>2015-02-21T11:25:53Z</time>
      </trkpt>
      <trkpt lat="60.106383450202" lon="15.884800456737">
        <ele>175</ele>
        <time>2015-02-21T11:25:54Z</time>
      </trkpt>
      <trkpt lat="60.10613886636" lon="15.885151490709">
        <ele>174.4</ele>
        <time>2015-02-21T11:25:59Z</time>
      </trkpt>
      <trkpt lat="60.10600894691" lon="15.885335305776">
        <ele>174.8</ele>
        <time>2015-02-21T11:26:03Z</time>
      </trkpt>
      <trkpt lat="60.105945998841" lon="15.885419543871">
        <ele>175.4</ele>
        <time>2015-02-21T11:26:05Z</time>
      </trkpt>
      <trkpt lat="60.105894617794" lon="15.885500513025">
        <ele>176</ele>
        <time>2015-02-21T11:26:07Z</time>
      </trkpt>
      <trkpt lat="60.105824964205" lon="15.885596737237">
        <ele>177.2</ele>
        <time>2015-02-21T11:26:10Z</time>
      </trkpt>
      <trkpt lat="60.105787245655" lon="15.885681059151">
        <ele>178.4</ele>
        <time>2015-02-21T11:26:12Z</time>
      </trkpt>
      <trkpt lat="60.105717089152" lon="15.885806117099">
        <ele>179.8</ele>
        <time>2015-02-21T11:26:15Z</time>
      </trkpt>
      <trkpt lat="60.105608040633" lon="15.88594936377">
        <ele>181</ele>
        <time>2015-02-21T11:26:19Z</time>
      </trkpt>
      <trkpt lat="60.105543583822" lon="15.886006193052">
        <ele>182</ele>
        <time>2015-02-21T11:26:21Z</time>
      </trkpt>
      <trkpt lat="60.105480803391" lon="15.886068889664">
        <ele>182</ele>
        <time>2015-02-21T11:26:23Z</time>
      </trkpt>
      <trkpt lat="60.105311991925" lon="15.886236611483">
        <ele>182.2</ele>
        <time>2015-02-21T11:26:28Z</time>
      </trkpt>
      <trkpt lat="60.105273602823" lon="15.886283633942">
        <ele>182.2</ele>
        <time>2015-02-21T11:26:29Z</time>
      </trkpt>
      <trkpt lat="60.105154915119" lon="15.886423863129">
        <ele>182.8</ele>
        <time>2015-02-21T11:26:33Z</time>
      </trkpt>
      <trkpt lat="60.10510034895" lon="15.886480608592">
        <ele>183.6</ele>
        <time>2015-02-21T11:26:35Z</time>
      </trkpt>
      <trkpt lat="60.105013093371" lon="15.886569037637">
        <ele>184.8</ele>
        <time>2015-02-21T11:26:38Z</time>
      </trkpt>
      <trkpt lat="60.10488158136" lon="15.886659143062">
        <ele>185.4</ele>
        <time>2015-02-21T11:26:41Z</time>
      </trkpt>
      <trkpt lat="60.104506826611" lon="15.886867768553">
        <ele>183.8</ele>
        <time>2015-02-21T11:26:49Z</time>
      </trkpt>
      <trkpt lat="60.104333991833" lon="15.886943373291">
        <ele>184</ele>
        <time>2015-02-21T11:26:53Z</time>
      </trkpt>
      <trkpt lat="60.104248244996" lon="15.887015792907">
        <ele>184.4</ele>
        <time>2015-02-21T11:26:55Z</time>
      </trkpt>
      <trkpt lat="60.104170628602" lon="15.887111598024">
        <ele>184.4</ele>
        <time>2015-02-21T11:26:57Z</time>
      </trkpt>
      <trkpt lat="60.104010199036" lon="15.887326174664">
        <ele>184.8</ele>
        <time>2015-02-21T11:27:01Z</time>
      </trkpt>
      <trkpt lat="60.103968457174" lon="15.887383171584">
        <ele>185</ele>
        <time>2015-02-21T11:27:02Z</time>
      </trkpt>
      <trkpt lat="60.103889667314" lon="15.887425248722">
        <ele>185</ele>
        <time>2015-02-21T11:27:03Z</time>
      </trkpt>
      <trkpt lat="60.103736027087" lon="15.88751594088">
        <ele>184.6</ele>
        <time>2015-02-21T11:27:05Z</time>
      </trkpt>
      <trkpt lat="60.103265383402" lon="15.887718112308">
        <ele>184.2</ele>
        <time>2015-02-21T11:27:11Z</time>
      </trkpt>
      <trkpt lat="60.103178966013" lon="15.887751220813">
        <ele>184.2</ele>
        <time>2015-02-21T11:27:12Z</time>
      </trkpt>
      <trkpt lat="60.103090285511" lon="15.887808553009">
        <ele>183</ele>
        <time>2015-02-21T11:27:13Z</time>
      </trkpt>
      <trkpt lat="60.10293530418" lon="15.887956661182">
        <ele>180.8</ele>
        <time>2015-02-21T11:27:15Z</time>
      </trkpt>
      <trkpt lat="60.102864141849" lon="15.888041402191">
        <ele>180.6</ele>
        <time>2015-02-21T11:27:16Z</time>
      </trkpt>
      <trkpt lat="60.102647050639" lon="15.888301660186">
        <ele>178.8</ele>
        <time>2015-02-21T11:27:19Z</time>
      </trkpt>
      <trkpt lat="60.10249273986" lon="15.888386987928">
        <ele>178</ele>
        <time>2015-02-21T11:27:21Z</time>
      </trkpt>
      <trkpt lat="60.102364580609" lon="15.888411295438">
        <ele>177.8</ele>
        <time>2015-02-21T11:27:23Z</time>
      </trkpt>
      <trkpt lat="60.102304817662" lon="15.888421856632">
        <ele>177.8</ele>
        <time>2015-02-21T11:27:24Z</time>
      </trkpt>
      <trkpt lat="60.102251676416" lon="15.888448091979">
        <ele>177</ele>
        <time>2015-02-21T11:27:25Z</time>
      </trkpt>
      <trkpt lat="60.102138520766" lon="15.888476758077">
        <ele>177</ele>
        <time>2015-02-21T11:27:27Z</time>
      </trkpt>
      <trkpt lat="60.101988736213" lon="15.888480613751">
        <ele>177.2</ele>
        <time>2015-02-21T11:27:30Z</time>
      </trkpt>
      <trkpt lat="60.101882369902" lon="15.888466532159">
        <ele>176.6</ele>
        <time>2015-02-21T11:27:32Z</time>
      </trkpt>
      <trkpt lat="60.101827133181" lon="15.88844046445">
        <ele>176.4</ele>
        <time>2015-02-21T11:27:33Z</time>
      </trkpt>
      <trkpt lat="60.101779691627" lon="15.888415905483">
        <ele>176</ele>
        <time>2015-02-21T11:27:34Z</time>
      </trkpt>
      <trkpt lat="60.10172495782" lon="15.888367793377">
        <ele>175.4</ele>
        <time>2015-02-21T11:27:35Z</time>
      </trkpt>
      <trkpt lat="60.10150954299" lon="15.888162269189">
        <ele>175.8</ele>
        <time>2015-02-21T11:27:40Z</time>
      </trkpt>
      <trkpt lat="60.101372750382" lon="15.888049113539">
        <ele>176.2</ele>
        <time>2015-02-21T11:27:44Z</time>
      </trkpt>
      <trkpt lat="60.101347353225" lon="15.888029918988">
        <ele>176.6</ele>
        <time>2015-02-21T11:27:45Z</time>
      </trkpt>
      <trkpt lat="60.101276190894" lon="15.887985159642">
        <ele>176.6</ele>
        <time>2015-02-21T11:27:48Z</time>
      </trkpt>
      <trkpt lat="60.101138811553" lon="15.887851887432">
        <ele>177.8</ele>
        <time>2015-02-21T11:27:53Z</time>
      </trkpt>
      <trkpt lat="60.101107547066" lon="15.887825652085">
        <ele>177.6</ele>
        <time>2015-02-21T11:27:54Z</time>
      </trkpt>
      <trkpt lat="60.100960779997" lon="15.887804026783">
        <ele>177.4</ele>
        <time>2015-02-21T11:27:57Z</time>
      </trkpt>
      <trkpt lat="60.100871261305" lon="15.887816180538">
        <ele>177</ele>
        <time>2015-02-21T11:27:59Z</time>
      </trkpt>
      <trkpt lat="60.100777216387" lon="15.887858844409">
        <ele>176.6</ele>
        <time>2015-02-21T11:28:01Z</time>
      </trkpt>
      <trkpt lat="60.100644447091" lon="15.887917601528">
        <ele>176.6</ele>
        <time>2015-02-21T11:28:04Z</time>
      </trkpt>
      <trkpt lat="60.100558951711" lon="15.887929336188">
        <ele>176.2</ele>
        <time>2015-02-21T11:28:06Z</time>
      </trkpt>
      <trkpt lat="60.100497596203" lon="15.887921121926">
        <ele>175.6</ele>
        <time>2015-02-21T11:28:07Z</time>
      </trkpt>
      <trkpt lat="60.100403551285" lon="15.887908884352">
        <ele>174.8</ele>
        <time>2015-02-21T11:28:09Z</time>
      </trkpt>
      <trkpt lat="60.100359630129" lon="15.887902514108">
        <ele>174.6</ele>
        <time>2015-02-21T11:28:10Z</time>
      </trkpt>
      <trkpt lat="60.100226357919" lon="15.887879128607">
        <ele>173.8</ele>
        <time>2015-02-21T11:28:13Z</time>
      </trkpt>
      <trkpt lat="60.100130888078" lon="15.88788055353">
        <ele>173.6</ele>
        <time>2015-02-21T11:28:15Z</time>
      </trkpt>
      <trkpt lat="60.10008713456" lon="15.887880302073">
        <ele>173.4</ele>
        <time>2015-02-21T11:28:16Z</time>
      </trkpt>
      <trkpt lat="60.100033406581" lon="15.88789731733">
        <ele>173.2</ele>
        <time>2015-02-21T11:28:17Z</time>
      </trkpt>
      <trkpt lat="60.099932656143" lon="15.887944423608">
        <ele>172.6</ele>
        <time>2015-02-21T11:28:19Z</time>
      </trkpt>
      <trkpt lat="60.099829055859" lon="15.888003516003">
        <ele>171.8</ele>
        <time>2015-02-21T11:28:21Z</time>
      </trkpt>
      <trkpt lat="60.099642977679" lon="15.888132094349">
        <ele>170.8</ele>
        <time>2015-02-21T11:28:25Z</time>
      </trkpt>
      <trkpt lat="60.099426808478" lon="15.8883189269">
        <ele>170</ele>
        <time>2015-02-21T11:28:29Z</time>
      </trkpt>
      <trkpt lat="60.099326309497" lon="15.888454797499">
        <ele>169.4</ele>
        <time>2015-02-21T11:28:31Z</time>
      </trkpt>
      <trkpt lat="60.099238718642" lon="15.888565103303">
        <ele>168</ele>
        <time>2015-02-21T11:28:34Z</time>
      </trkpt>
      <trkpt lat="60.099104859699" lon="15.888676079659">
        <ele>166.6</ele>
        <time>2015-02-21T11:28:37Z</time>
      </trkpt>
      <trkpt lat="60.099027159486" lon="15.888778757934">
        <ele>167.8</ele>
        <time>2015-02-21T11:28:39Z</time>
      </trkpt>
      <trkpt lat="60.098886343566" lon="15.888971122539">
        <ele>168.8</ele>
        <time>2015-02-21T11:28:43Z</time>
      </trkpt>
      <trkpt lat="60.098813840131" lon="15.889059719222">
        <ele>168.6</ele>
        <time>2015-02-21T11:28:45Z</time>
      </trkpt>
      <trkpt lat="60.098595072541" lon="15.889338082121">
        <ele>168.6</ele>
        <time>2015-02-21T11:28:51Z</time>
      </trkpt>
      <trkpt lat="60.098508403695" lon="15.889429193374">
        <ele>168.4</ele>
        <time>2015-02-21T11:28:53Z</time>
      </trkpt>
      <trkpt lat="60.098412179483" lon="15.889563303774">
        <ele>168</ele>
        <time>2015-02-21T11:28:55Z</time>
      </trkpt>
      <trkpt lat="60.098369767069" lon="15.889640584892">
        <ele>168</ele>
        <time>2015-02-21T11:28:56Z</time>
      </trkpt>
      <trkpt lat="60.098222580905" lon="15.889974184512">
        <ele>167.4</ele>
        <time>2015-02-21T11:28:59Z</time>
      </trkpt>
      <trkpt lat="60.098123925942" lon="15.890183312917">
        <ele>166.2</ele>
        <time>2015-02-21T11:29:01Z</time>
      </trkpt>
      <trkpt lat="60.098040190761" lon="15.890376767169">
        <ele>164.8</ele>
        <time>2015-02-21T11:29:03Z</time>
      </trkpt>
      <trkpt lat="60.09796651386" lon="15.890556139829">
        <ele>163.4</ele>
        <time>2015-02-21T11:29:05Z</time>
      </trkpt>
      <trkpt lat="60.097895016253" lon="15.890725789485">
        <ele>163.2</ele>
        <time>2015-02-21T11:29:07Z</time>
      </trkpt>
      <trkpt lat="60.097818238049" lon="15.890825115">
        <ele>163.2</ele>
        <time>2015-02-21T11:29:09Z</time>
      </trkpt>
      <trkpt lat="60.097750512297" lon="15.890915052787">
        <ele>163.6</ele>
        <time>2015-02-21T11:29:11Z</time>
      </trkpt>
      <trkpt lat="60.097529397775" lon="15.891174472592">
        <ele>164.2</ele>
        <time>2015-02-21T11:29:17Z</time>
      </trkpt>
      <trkpt lat="60.09717358612" lon="15.891472700594">
        <ele>161.4</ele>
        <time>2015-02-21T11:29:23Z</time>
      </trkpt>
      <trkpt lat="60.097065878705" lon="15.891423666479">
        <ele>160.2</ele>
        <time>2015-02-21T11:29:25Z</time>
      </trkpt>
      <trkpt lat="60.096979796592" lon="15.891353929071">
        <ele>159.6</ele>
        <time>2015-02-21T11:29:27Z</time>
      </trkpt>
      <trkpt lat="60.096822468329" lon="15.891220992137">
        <ele>160.4</ele>
        <time>2015-02-21T11:29:32Z</time>
      </trkpt>
      <trkpt lat="60.096578219763" lon="15.89109165942">
        <ele>160.6</ele>
        <time>2015-02-21T11:29:38Z</time>
      </trkpt>
      <trkpt lat="60.096462968638" lon="15.890989484059">
        <ele>159.8</ele>
        <time>2015-02-21T11:29:41Z</time>
      </trkpt>
      <trkpt lat="60.096359284535" lon="15.890844477189">
        <ele>159.6</ele>
        <time>2015-02-21T11:29:44Z</time>
      </trkpt>
      <trkpt lat="60.096167590482" lon="15.890607772333">
        <ele>160</ele>
        <time>2015-02-21T11:29:50Z</time>
      </trkpt>
      <trkpt lat="60.095983691596" lon="15.890382299223">
        <ele>160.6</ele>
        <time>2015-02-21T11:29:57Z</time>
      </trkpt>
      <trkpt lat="60.095864081883" lon="15.89024592571">
        <ele>161.4</ele>
        <time>2015-02-21T11:30:02Z</time>
      </trkpt>
      <trkpt lat="60.095844719694" lon="15.890230419195">
        <ele>161.8</ele>
        <time>2015-02-21T11:30:03Z</time>
      </trkpt>
      <trkpt lat="60.095803061651" lon="15.890196807776">
        <ele>162.6</ele>
        <time>2015-02-21T11:30:05Z</time>
      </trkpt>
      <trkpt lat="60.095700551014" lon="15.890097398442">
        <ele>162.6</ele>
        <time>2015-02-21T11:30:09Z</time>
      </trkpt>
      <trkpt lat="60.095520591621" lon="15.890087591619">
        <ele>163.6</ele>
        <time>2015-02-21T11:30:15Z</time>
      </trkpt>
      <trkpt lat="60.095333088518" lon="15.890241818579">
        <ele>164.2</ele>
        <time>2015-02-21T11:30:21Z</time>
      </trkpt>
      <trkpt lat="60.095307858999" lon="15.89029370254">
        <ele>164.2</ele>
        <time>2015-02-21T11:30:22Z</time>
      </trkpt>
      <trkpt lat="60.095151452745" lon="15.890598216967">
        <ele>164.8</ele>
        <time>2015-02-21T11:30:29Z</time>
      </trkpt>
      <trkpt lat="60.095053887429" lon="15.890785552432">
        <ele>165</ele>
        <time>2015-02-21T11:30:34Z</time>
      </trkpt>
      <trkpt lat="60.094905611618" lon="15.891043966409">
        <ele>165.2</ele>
        <time>2015-02-21T11:30:39Z</time>
      </trkpt>
      <trkpt lat="60.094700171249" lon="15.891381254065">
        <ele>164.8</ele>
        <time>2015-02-21T11:30:45Z</time>
      </trkpt>
      <trkpt lat="60.094631607307" lon="15.891472952051">
        <ele>165.2</ele>
        <time>2015-02-21T11:30:47Z</time>
      </trkpt>
      <trkpt lat="60.094441170539" lon="15.891603542053">
        <ele>165.4</ele>
        <time>2015-02-21T11:30:53Z</time>
      </trkpt>
      <trkpt lat="60.094254002712" lon="15.891622401328">
        <ele>165</ele>
        <time>2015-02-21T11:30:58Z</time>
      </trkpt>
      <trkpt lat="60.094082006124" lon="15.891622904242">
        <ele>165.4</ele>
        <time>2015-02-21T11:31:04Z</time>
      </trkpt>
      <trkpt lat="60.093967257913" lon="15.89174628581">
        <ele>165.4</ele>
        <time>2015-02-21T11:31:07Z</time>
      </trkpt>
      <trkpt lat="60.093930042277" lon="15.891815604123">
        <ele>165.4</ele>
        <time>2015-02-21T11:31:08Z</time>
      </trkpt>
      <trkpt lat="60.093900705627" lon="15.891955414215">
        <ele>165</ele>
        <time>2015-02-21T11:31:09Z</time>
      </trkpt>
      <trkpt lat="60.093843792526" lon="15.892177366927">
        <ele>163.4</ele>
        <time>2015-02-21T11:31:11Z</time>
      </trkpt>
      <trkpt lat="60.093776821145" lon="15.892426812271">
        <ele>162</ele>
        <time>2015-02-21T11:31:13Z</time>
      </trkpt>
      <trkpt lat="60.093698953294" lon="15.892693943424">
        <ele>160.6</ele>
        <time>2015-02-21T11:31:15Z</time>
      </trkpt>
      <trkpt lat="60.093632652465" lon="15.892926960244">
        <ele>159.4</ele>
        <time>2015-02-21T11:31:17Z</time>
      </trkpt>
      <trkpt lat="60.093583785988" lon="15.89314354854">
        <ele>158.6</ele>
        <time>2015-02-21T11:31:19Z</time>
      </trkpt>
      <trkpt lat="60.093564172342" lon="15.89324664591">
        <ele>158.4</ele>
        <time>2015-02-21T11:31:20Z</time>
      </trkpt>
      <trkpt lat="60.093538607547" lon="15.893418139584">
        <ele>157.8</ele>
        <time>2015-02-21T11:31:22Z</time>
      </trkpt>
      <trkpt lat="60.093502481558" lon="15.893658700114">
        <ele>157.6</ele>
        <time>2015-02-21T11:31:25Z</time>
      </trkpt>
      <trkpt lat="60.093473731641" lon="15.893889872916">
        <ele>158</ele>
        <time>2015-02-21T11:31:28Z</time>
      </trkpt>
      <trkpt lat="60.093451771063" lon="15.894251803358">
        <ele>158.2</ele>
        <time>2015-02-21T11:31:34Z</time>
      </trkpt>
      <trkpt lat="60.093435845453" lon="15.894549360808">
        <ele>158.6</ele>
        <time>2015-02-21T11:31:39Z</time>
      </trkpt>
      <trkpt lat="60.093401144387" lon="15.894798554695">
        <ele>158.4</ele>
        <time>2015-02-21T11:31:43Z</time>
      </trkpt>
      <trkpt lat="60.09337155628" lon="15.894927635955">
        <ele>158.6</ele>
        <time>2015-02-21T11:31:45Z</time>
      </trkpt>
      <trkpt lat="60.093303411433" lon="15.895337510865">
        <ele>158</ele>
        <time>2015-02-21T11:31:52Z</time>
      </trkpt>
      <trkpt lat="60.093308105297" lon="15.895400542753">
        <ele>158</ele>
        <time>2015-02-21T11:31:53Z</time>
      </trkpt>
      <trkpt lat="60.093291173859" lon="15.895602043629">
        <ele>158.2</ele>
        <time>2015-02-21T11:31:56Z</time>
      </trkpt>
      <trkpt lat="60.093258903544" lon="15.895896751233">
        <ele>158.4</ele>
        <time>2015-02-21T11:32:00Z</time>
      </trkpt>
      <trkpt lat="60.093261082838" lon="15.896150471346">
        <ele>158.4</ele>
        <time>2015-02-21T11:32:03Z</time>
      </trkpt>
      <trkpt lat="60.093260244648" lon="15.896326491246">
        <ele>158.4</ele>
        <time>2015-02-21T11:32:05Z</time>
      </trkpt>
      <trkpt lat="60.093265273788" lon="15.896913391884">
        <ele>158</ele>
        <time>2015-02-21T11:32:12Z</time>
      </trkpt>
      <trkpt lat="60.093269548557" lon="15.897176835001">
        <ele>158</ele>
        <time>2015-02-21T11:32:15Z</time>
      </trkpt>
      <trkpt lat="60.093267536901" lon="15.897355118014">
        <ele>158</ele>
        <time>2015-02-21T11:32:17Z</time>
      </trkpt>
      <trkpt lat="60.093260999019" lon="15.89745268333">
        <ele>157.8</ele>
        <time>2015-02-21T11:32:18Z</time>
      </trkpt>
      <trkpt lat="60.093268710367" lon="15.897537675796">
        <ele>158</ele>
        <time>2015-02-21T11:32:19Z</time>
      </trkpt>
      <trkpt lat="60.093270638204" lon="15.897716210266">
        <ele>158</ele>
        <time>2015-02-21T11:32:21Z</time>
      </trkpt>
      <trkpt lat="60.093258316811" lon="15.897975965347">
        <ele>158</ele>
        <time>2015-02-21T11:32:24Z</time>
      </trkpt>
      <trkpt lat="60.093203499185" lon="15.898337560513">
        <ele>157.8</ele>
        <time>2015-02-21T11:32:29Z</time>
      </trkpt>
      <trkpt lat="60.093101910557" lon="15.898753051296">
        <ele>158</ele>
        <time>2015-02-21T11:32:35Z</time>
      </trkpt>
      <trkpt lat="60.093091181725" lon="15.899091596237">
        <ele>158</ele>
        <time>2015-02-21T11:32:40Z</time>
      </trkpt>
      <trkpt lat="60.093170306861" lon="15.89944087001">
        <ele>158.4</ele>
        <time>2015-02-21T11:32:46Z</time>
      </trkpt>
      <trkpt lat="60.093299807216" lon="15.899715628692">
        <ele>159.4</ele>
        <time>2015-02-21T11:32:52Z</time>
      </trkpt>
      <trkpt lat="60.093469708329" lon="15.900043696258">
        <ele>159.8</ele>
        <time>2015-02-21T11:32:59Z</time>
      </trkpt>
      <trkpt lat="60.093680094019" lon="15.900405794338">
        <ele>159.6</ele>
        <time>2015-02-21T11:33:07Z</time>
      </trkpt>
      <trkpt lat="60.093816802808" lon="15.90063612895">
        <ele>160.4</ele>
        <time>2015-02-21T11:33:13Z</time>
      </trkpt>
      <trkpt lat="60.093830968219" lon="15.900708297109">
        <ele>160.6</ele>
        <time>2015-02-21T11:33:15Z</time>
      </trkpt>
      <trkpt lat="60.093795345144" lon="15.900778788888">
        <ele>160.8</ele>
        <time>2015-02-21T11:33:17Z</time>
      </trkpt>
      <trkpt lat="60.093609350783" lon="15.900850537952">
        <ele>160.2</ele>
        <time>2015-02-21T11:33:22Z</time>
      </trkpt>
      <trkpt lat="60.093467529035" lon="15.900951372209">
        <ele>159.4</ele>
        <time>2015-02-21T11:33:26Z</time>
      </trkpt>
      <trkpt lat="60.093480604799" lon="15.901125548091">
        <ele>158.8</ele>
        <time>2015-02-21T11:33:29Z</time>
      </trkpt>
      <trkpt lat="60.09359032387" lon="15.901258987939">
        <ele>158.8</ele>
        <time>2015-02-21T11:33:34Z</time>
      </trkpt>
      <trkpt lat="60.093654445405" lon="15.901295868299">
        <ele>159.2</ele>
        <time>2015-02-21T11:33:36Z</time>
      </trkpt>
      <trkpt lat="60.093749999065" lon="15.901312045366">
        <ele>159.4</ele>
        <time>2015-02-21T11:33:39Z</time>
      </trkpt>
      <trkpt lat="60.093911853554" lon="15.901274997368">
        <ele>159.8</ele>
        <time>2015-02-21T11:33:45Z</time>
      </trkpt>
      <trkpt lat="60.093999109133" lon="15.901296874127">
        <ele>160.6</ele>
        <time>2015-02-21T11:33:48Z</time>
      </trkpt>
      <trkpt lat="60.094054597311" lon="15.901316571592">
        <ele>161</ele>
        <time>2015-02-21T11:33:50Z</time>
      </trkpt>
      <trkpt lat="60.09431200546" lon="15.901377843281">
        <ele>161.8</ele>
        <time>2015-02-21T11:33:59Z</time>
      </trkpt>
      <trkpt lat="60.094510405033" lon="15.901639274742">
        <ele>162.2</ele>
        <time>2015-02-21T11:34:07Z</time>
      </trkpt>
      <trkpt lat="60.094644096338" lon="15.901865334585">
        <ele>163.2</ele>
        <time>2015-02-21T11:34:13Z</time>
      </trkpt>
      <trkpt lat="60.094669158219" lon="15.901894922692">
        <ele>163.2</ele>
        <time>2015-02-21T11:34:14Z</time>
      </trkpt>
      <trkpt lat="60.094697824317" lon="15.901922247686">
        <ele>161</ele>
        <time>2015-02-21T11:34:15Z</time>
      </trkpt>
      <trkpt lat="60.09479228833" lon="15.902101452708">
        <ele>161.2</ele>
        <time>2015-02-21T11:34:20Z</time>
      </trkpt>
      <trkpt lat="60.094818020763" lon="15.902156857067">
        <ele>163.8</ele>
        <time>2015-02-21T11:34:21Z</time>
      </trkpt>
      <trkpt lat="60.094913909699" lon="15.902358022667">
        <ele>164.4</ele>
        <time>2015-02-21T11:34:26Z</time>
      </trkpt>
      <trkpt lat="60.094987335143" lon="15.902559858819">
        <ele>164.4</ele>
        <time>2015-02-21T11:34:30Z</time>
      </trkpt>
      <trkpt lat="60.095029160824" lon="15.902663123827">
        <ele>164.8</ele>
        <time>2015-02-21T11:34:32Z</time>
      </trkpt>
      <trkpt lat="60.095130162719" lon="15.90288499272">
        <ele>165.2</ele>
        <time>2015-02-21T11:34:36Z</time>
      </trkpt>
      <trkpt lat="60.095185650897" lon="15.903005356804">
        <ele>165.2</ele>
        <time>2015-02-21T11:34:39Z</time>
      </trkpt>
      <trkpt lat="60.095212053882" lon="15.903036956567">
        <ele>165.2</ele>
        <time>2015-02-21T11:34:40Z</time>
      </trkpt>
      <trkpt lat="60.095245413844" lon="15.90302664683">
        <ele>165.4</ele>
        <time>2015-02-21T11:34:41Z</time>
      </trkpt>
      <trkpt lat="60.095319761297" lon="15.903029915771">
        <ele>165.6</ele>
        <time>2015-02-21T11:34:44Z</time>
      </trkpt>
      <trkpt lat="60.095343482074" lon="15.903041901888">
        <ele>166.2</ele>
        <time>2015-02-21T11:34:45Z</time>
      </trkpt>
      <trkpt lat="60.095427468712" lon="15.903124882698">
        <ele>167.4</ele>
        <time>2015-02-21T11:34:50Z</time>
      </trkpt>
      <trkpt lat="60.095584964613" lon="15.903352535102">
        <ele>168</ele>
        <time>2015-02-21T11:34:57Z</time>
      </trkpt>
      <trkpt lat="60.09576207416" lon="15.903506678243">
        <ele>169</ele>
        <time>2015-02-21T11:35:05Z</time>
      </trkpt>
      <trkpt lat="60.095911774894" lon="15.903599298238">
        <ele>169.8</ele>
        <time>2015-02-21T11:35:11Z</time>
      </trkpt>
      <trkpt lat="60.096121322394" lon="15.903681105582">
        <ele>169.8</ele>
        <time>2015-02-21T11:35:18Z</time>
      </trkpt>
      <trkpt lat="60.096252750586" lon="15.903812366136">
        <ele>170</ele>
        <time>2015-02-21T11:35:24Z</time>
      </trkpt>
      <trkpt lat="60.09632617603" lon="15.90398134524">
        <ele>171</ele>
        <time>2015-02-21T11:35:28Z</time>
      </trkpt>
      <trkpt lat="60.096349226255" lon="15.904046807879">
        <ele>171.2</ele>
        <time>2015-02-21T11:35:29Z</time>
      </trkpt>
      <trkpt lat="60.096392057764" lon="15.904200029011">
        <ele>171.6</ele>
        <time>2015-02-21T11:35:31Z</time>
      </trkpt>
      <trkpt lat="60.096446791571" lon="15.90439038196">
        <ele>171.4</ele>
        <time>2015-02-21T11:35:34Z</time>
      </trkpt>
      <trkpt lat="60.096585092921" lon="15.904850632089">
        <ele>170.8</ele>
        <time>2015-02-21T11:35:41Z</time>
      </trkpt>
      <trkpt lat="60.096673521966" lon="15.905184902261">
        <ele>171.2</ele>
        <time>2015-02-21T11:35:47Z</time>
      </trkpt>
      <trkpt lat="60.096720460606" lon="15.905256986601">
        <ele>171.6</ele>
        <time>2015-02-21T11:35:49Z</time>
      </trkpt>
      <trkpt lat="60.096818864112" lon="15.905357988496">
        <ele>171.8</ele>
        <time>2015-02-21T11:35:52Z</time>
      </trkpt>
      <trkpt lat="60.0969908607" lon="15.905389252983">
        <ele>171.8</ele>
        <time>2015-02-21T11:35:58Z</time>
      </trkpt>
      <trkpt lat="60.097048360534" lon="15.905412806122">
        <ele>172.2</ele>
        <time>2015-02-21T11:36:00Z</time>
      </trkpt>
      <trkpt lat="60.097118600856" lon="15.905453290699">
        <ele>172.8</ele>
        <time>2015-02-21T11:36:02Z</time>
      </trkpt>
      <trkpt lat="60.097162941107" lon="15.905489584326">
        <ele>173.4</ele>
        <time>2015-02-21T11:36:04Z</time>
      </trkpt>
      <trkpt lat="60.097224380434" lon="15.905525542677">
        <ele>173.6</ele>
        <time>2015-02-21T11:36:06Z</time>
      </trkpt>
      <trkpt lat="60.097241730967" lon="15.905547670893">
        <ele>173.8</ele>
        <time>2015-02-21T11:36:07Z</time>
      </trkpt>
      <trkpt lat="60.097320939922" lon="15.905659066344">
        <ele>174</ele>
        <time>2015-02-21T11:36:10Z</time>
      </trkpt>
      <trkpt lat="60.097395287375" lon="15.90589660939">
        <ele>174.4</ele>
        <time>2015-02-21T11:36:14Z</time>
      </trkpt>
      <trkpt lat="60.097460582376" lon="15.906286116283">
        <ele>174.6</ele>
        <time>2015-02-21T11:36:19Z</time>
      </trkpt>
      <trkpt lat="60.097481285669" lon="15.9063567757">
        <ele>174.4</ele>
        <time>2015-02-21T11:36:20Z</time>
      </trkpt>
      <trkpt lat="60.097571558732" lon="15.906730440802">
        <ele>173.2</ele>
        <time>2015-02-21T11:36:25Z</time>
      </trkpt>
      <trkpt lat="60.097583880125" lon="15.906804452979">
        <ele>173.2</ele>
        <time>2015-02-21T11:36:26Z</time>
      </trkpt>
      <trkpt lat="60.097644145986" lon="15.907137633504">
        <ele>173.8</ele>
        <time>2015-02-21T11:36:32Z</time>
      </trkpt>
      <trkpt lat="60.097701310544" lon="15.907298230708">
        <ele>174.4</ele>
        <time>2015-02-21T11:36:35Z</time>
      </trkpt>
      <trkpt lat="60.097734921963" lon="15.907351791049">
        <ele>174.6</ele>
        <time>2015-02-21T11:36:36Z</time>
      </trkpt>
      <trkpt lat="60.097766605545" lon="15.907402250087">
        <ele>174.8</ele>
        <time>2015-02-21T11:36:37Z</time>
      </trkpt>
      <trkpt lat="60.097876073159" lon="15.907542563093">
        <ele>174.2</ele>
        <time>2015-02-21T11:36:40Z</time>
      </trkpt>
      <trkpt lat="60.098002053116" lon="15.907647672119">
        <ele>174</ele>
        <time>2015-02-21T11:36:43Z</time>
      </trkpt>
      <trkpt lat="60.098176564274" lon="15.907801982898">
        <ele>173.6</ele>
        <time>2015-02-21T11:36:48Z</time>
      </trkpt>
      <trkpt lat="60.09829256977" lon="15.907863338406">
        <ele>174</ele>
        <time>2015-02-21T11:36:51Z</time>
      </trkpt>
      <trkpt lat="60.098375299123" lon="15.907889489934">
        <ele>174</ele>
        <time>2015-02-21T11:36:53Z</time>
      </trkpt>
      <trkpt lat="60.098423914143" lon="15.907907008105">
        <ele>173.8</ele>
        <time>2015-02-21T11:36:54Z</time>
      </trkpt>
      <trkpt lat="60.098497842501" lon="15.907960568446">
        <ele>173.8</ele>
        <time>2015-02-21T11:36:56Z</time>
      </trkpt>
      <trkpt lat="60.098527346789" lon="15.908009602561">
        <ele>173.8</ele>
        <time>2015-02-21T11:36:57Z</time>
      </trkpt>
      <trkpt lat="60.098720381946" lon="15.908145556979">
        <ele>174.2</ele>
        <time>2015-02-21T11:37:02Z</time>
      </trkpt>
      <trkpt lat="60.098778384694" lon="15.908228202513">
        <ele>174</ele>
        <time>2015-02-21T11:37:04Z</time>
      </trkpt>
      <trkpt lat="60.098891624163" lon="15.908508074154">
        <ele>173.4</ele>
        <time>2015-02-21T11:37:08Z</time>
      </trkpt>
      <trkpt lat="60.098915261121" lon="15.908577308648">
        <ele>173</ele>
        <time>2015-02-21T11:37:09Z</time>
      </trkpt>
      <trkpt lat="60.098995224447" lon="15.90878417394">
        <ele>172.8</ele>
        <time>2015-02-21T11:37:12Z</time>
      </trkpt>
      <trkpt lat="60.099059597439" lon="15.908978550201">
        <ele>173.2</ele>
        <time>2015-02-21T11:37:15Z</time>
      </trkpt>
      <trkpt lat="60.099147188294" lon="15.909165047476">
        <ele>173.4</ele>
        <time>2015-02-21T11:37:18Z</time>
      </trkpt>
      <trkpt lat="60.099210890734" lon="15.909276694384">
        <ele>173.4</ele>
        <time>2015-02-21T11:37:20Z</time>
      </trkpt>
      <trkpt lat="60.099350114093" lon="15.90966343525">
        <ele>173.2</ele>
        <time>2015-02-21T11:37:26Z</time>
      </trkpt>
      <trkpt lat="60.099390347213" lon="15.909797461831">
        <ele>173.6</ele>
        <time>2015-02-21T11:37:28Z</time>
      </trkpt>
      <trkpt lat="60.099543233069" lon="15.910260897082">
        <ele>173.8</ele>
        <time>2015-02-21T11:37:35Z</time>
      </trkpt>
      <trkpt lat="60.099569300778" lon="15.910332646146">
        <ele>173.8</ele>
        <time>2015-02-21T11:37:36Z</time>
      </trkpt>
      <trkpt lat="60.099653371235" lon="15.910486118735">
        <ele>174</ele>
        <time>2015-02-21T11:37:39Z</time>
      </trkpt>
      <trkpt lat="60.099779602649" lon="15.910534398479">
        <ele>174</ele>
        <time>2015-02-21T11:37:42Z</time>
      </trkpt>
      <trkpt lat="60.099820254864" lon="15.91054856389">
        <ele>174</ele>
        <time>2015-02-21T11:37:43Z</time>
      </trkpt>
      <trkpt lat="60.099869037522" lon="15.910533141194">
        <ele>174.2</ele>
        <time>2015-02-21T11:37:44Z</time>
      </trkpt>
      <trkpt lat="60.100012116555" lon="15.910452674954">
        <ele>174.6</ele>
        <time>2015-02-21T11:37:48Z</time>
      </trkpt>
      <trkpt lat="60.100084955266" lon="15.910370197058">
        <ele>174.8</ele>
        <time>2015-02-21T11:37:50Z</time>
      </trkpt>
      <trkpt lat="60.100157207244" lon="15.910277996158">
        <ele>175.4</ele>
        <time>2015-02-21T11:37:52Z</time>
      </trkpt>
      <trkpt lat="60.100222502245" lon="15.91017389296">
        <ele>175.6</ele>
        <time>2015-02-21T11:37:54Z</time>
      </trkpt>
      <trkpt lat="60.100482508783" lon="15.909862756832">
        <ele>175.2</ele>
        <time>2015-02-21T11:38:02Z</time>
      </trkpt>
      <trkpt lat="60.100689038799" lon="15.909718588152">
        <ele>175.8</ele>
        <time>2015-02-21T11:38:08Z</time>
      </trkpt>
      <trkpt lat="60.100785011554" lon="15.909619597913">
        <ele>176.4</ele>
        <time>2015-02-21T11:38:10Z</time>
      </trkpt>
      <trkpt lat="60.100830106176" lon="15.909566708124">
        <ele>176.4</ele>
        <time>2015-02-21T11:38:11Z</time>
      </trkpt>
      <trkpt lat="60.100872434771" lon="15.909507867186">
        <ele>176.4</ele>
        <time>2015-02-21T11:38:12Z</time>
      </trkpt>
      <trkpt lat="60.100951056993" lon="15.909386581093">
        <ele>176</ele>
        <time>2015-02-21T11:38:14Z</time>
      </trkpt>
      <trkpt lat="60.101010065569" lon="15.909212572849">
        <ele>175.2</ele>
        <time>2015-02-21T11:38:16Z</time>
      </trkpt>
      <trkpt lat="60.101036300916" lon="15.909117438284">
        <ele>174.8</ele>
        <time>2015-02-21T11:38:17Z</time>
      </trkpt>
      <trkpt lat="60.101067649222" lon="15.909037391139">
        <ele>174</ele>
        <time>2015-02-21T11:38:18Z</time>
      </trkpt>
      <trkpt lat="60.1011399012" lon="15.908923145842">
        <ele>173.6</ele>
        <time>2015-02-21T11:38:20Z</time>
      </trkpt>
      <trkpt lat="60.10117510518" lon="15.908894312106">
        <ele>173.4</ele>
        <time>2015-02-21T11:38:21Z</time>
      </trkpt>
      <trkpt lat="60.101317848937" lon="15.908879559962">
        <ele>173.4</ele>
        <time>2015-02-21T11:38:24Z</time>
      </trkpt>
      <trkpt lat="60.101353052917" lon="15.90889481502">
        <ele>173.4</ele>
        <time>2015-02-21T11:38:25Z</time>
      </trkpt>
      <trkpt lat="60.101607695039" lon="15.908947537171">
        <ele>173.4</ele>
        <time>2015-02-21T11:38:31Z</time>
      </trkpt>
      <trkpt lat="60.101738033584" lon="15.908806972708">
        <ele>173.6</ele>
        <time>2015-02-21T11:38:34Z</time>
      </trkpt>
      <trkpt lat="60.101773489021" lon="15.908730278323">
        <ele>173.6</ele>
        <time>2015-02-21T11:38:35Z</time>
      </trkpt>
      <trkpt lat="60.101880944979" lon="15.908498770245">
        <ele>172.8</ele>
        <time>2015-02-21T11:38:38Z</time>
      </trkpt>
      <trkpt lat="60.101951939672" lon="15.908358289601">
        <ele>172.4</ele>
        <time>2015-02-21T11:38:40Z</time>
      </trkpt>
      <trkpt lat="60.101985551091" lon="15.908282517225">
        <ele>172.2</ele>
        <time>2015-02-21T11:38:41Z</time>
      </trkpt>
      <trkpt lat="60.102030394256" lon="15.908209762333">
        <ele>172</ele>
        <time>2015-02-21T11:38:42Z</time>
      </trkpt>
      <trkpt lat="60.102109603211" lon="15.908037095193">
        <ele>172</ele>
        <time>2015-02-21T11:38:44Z</time>
      </trkpt>
      <trkpt lat="60.102143046992" lon="15.90795185127">
        <ele>172</ele>
        <time>2015-02-21T11:38:45Z</time>
      </trkpt>
      <trkpt lat="60.102161570991" lon="15.907821345087">
        <ele>171.6</ele>
        <time>2015-02-21T11:38:46Z</time>
      </trkpt>
      <trkpt lat="60.102191578193" lon="15.907538036867">
        <ele>171.2</ele>
        <time>2015-02-21T11:38:48Z</time>
      </trkpt>
      <trkpt lat="60.102168444149" lon="15.907227822748">
        <ele>170.4</ele>
        <time>2015-02-21T11:38:50Z</time>
      </trkpt>
      <trkpt lat="60.102144304277" lon="15.90710779394">
        <ele>170</ele>
        <time>2015-02-21T11:38:51Z</time>
      </trkpt>
      <trkpt lat="60.102111866324" lon="15.906976533386">
        <ele>169</ele>
        <time>2015-02-21T11:38:52Z</time>
      </trkpt>
      <trkpt lat="60.102035339577" lon="15.906649052553">
        <ele>167.6</ele>
        <time>2015-02-21T11:38:55Z</time>
      </trkpt>
      <trkpt lat="60.102026957677" lon="15.906525168071">
        <ele>166.8</ele>
        <time>2015-02-21T11:38:56Z</time>
      </trkpt>
      <trkpt lat="60.10202083889" lon="15.906299024409">
        <ele>166.2</ele>
        <time>2015-02-21T11:38:58Z</time>
      </trkpt>
      <trkpt lat="60.102031483903" lon="15.905959725097">
        <ele>166</ele>
        <time>2015-02-21T11:39:01Z</time>
      </trkpt>
      <trkpt lat="60.102048834436" lon="15.905669124624">
        <ele>165.8</ele>
        <time>2015-02-21T11:39:04Z</time>
      </trkpt>
      <trkpt lat="60.102089402832" lon="15.905467791386">
        <ele>166.2</ele>
        <time>2015-02-21T11:39:06Z</time>
      </trkpt>
      <trkpt lat="60.102125864097" lon="15.905244749027">
        <ele>166.8</ele>
        <time>2015-02-21T11:39:08Z</time>
      </trkpt>
      <trkpt lat="60.102178502429" lon="15.905018102451">
        <ele>166.6</ele>
        <time>2015-02-21T11:39:10Z</time>
      </trkpt>
      <trkpt lat="60.102211191839" lon="15.904918106384">
        <ele>166.6</ele>
        <time>2015-02-21T11:39:11Z</time>
      </trkpt>
      <trkpt lat="60.102260645049" lon="15.90485222465">
        <ele>166.2</ele>
        <time>2015-02-21T11:39:12Z</time>
      </trkpt>
      <trkpt lat="60.102339434909" lon="15.904728675444">
        <ele>165.4</ele>
        <time>2015-02-21T11:39:14Z</time>
      </trkpt>
      <trkpt lat="60.102411854525" lon="15.904623231142">
        <ele>164.4</ele>
        <time>2015-02-21T11:39:16Z</time>
      </trkpt>
      <trkpt lat="60.102493661869" lon="15.90452868331">
        <ele>163.8</ele>
        <time>2015-02-21T11:39:18Z</time>
      </trkpt>
      <trkpt lat="60.102575133937" lon="15.904416114393">
        <ele>164.4</ele>
        <time>2015-02-21T11:39:20Z</time>
      </trkpt>
      <trkpt lat="60.102744532136" lon="15.904094919985">
        <ele>165</ele>
        <time>2015-02-21T11:39:25Z</time>
      </trkpt>
      <trkpt lat="60.102861375822" lon="15.903952762961">
        <ele>165</ele>
        <time>2015-02-21T11:39:28Z</time>
      </trkpt>
      <trkpt lat="60.102929017755" lon="15.903874643653">
        <ele>165.2</ele>
        <time>2015-02-21T11:39:30Z</time>
      </trkpt>
      <trkpt lat="60.102981572268" lon="15.903777413613">
        <ele>165.4</ele>
        <time>2015-02-21T11:39:32Z</time>
      </trkpt>
      <trkpt lat="60.103027169804" lon="15.903595358745">
        <ele>166.2</ele>
        <time>2015-02-21T11:39:35Z</time>
      </trkpt>
      <trkpt lat="60.103040580844" lon="15.903506845881">
        <ele>166.2</ele>
        <time>2015-02-21T11:39:36Z</time>
      </trkpt>
      <trkpt lat="60.103048208373" lon="15.903327389402">
        <ele>166.6</ele>
        <time>2015-02-21T11:39:38Z</time>
      </trkpt>
      <trkpt lat="60.103039407378" lon="15.903161930696">
        <ele>167</ele>
        <time>2015-02-21T11:39:40Z</time>
      </trkpt>
      <trkpt lat="60.102944272813" lon="15.902731352493">
        <ele>167.6</ele>
        <time>2015-02-21T11:39:46Z</time>
      </trkpt>
      <trkpt lat="60.102771102759" lon="15.902422479478">
        <ele>168.2</ele>
        <time>2015-02-21T11:39:52Z</time>
      </trkpt>
      <trkpt lat="60.102701281532" lon="15.902321309945">
        <ele>168.4</ele>
        <time>2015-02-21T11:39:54Z</time>
      </trkpt>
      <trkpt lat="60.102578402878" lon="15.90212810715">
        <ele>168.8</ele>
        <time>2015-02-21T11:39:58Z</time>
      </trkpt>
      <trkpt lat="60.102559711241" lon="15.902075049723">
        <ele>168.6</ele>
        <time>2015-02-21T11:39:59Z</time>
      </trkpt>
      <trkpt lat="60.102462900296" lon="15.901774474789">
        <ele>169</ele>
        <time>2015-02-21T11:40:04Z</time>
      </trkpt>
      <trkpt lat="60.102387379377" lon="15.901610021911">
        <ele>169</ele>
        <time>2015-02-21T11:40:07Z</time>
      </trkpt>
      <trkpt lat="60.10230917625" lon="15.901423021722">
        <ele>169</ele>
        <time>2015-02-21T11:40:10Z</time>
      </trkpt>
      <trkpt lat="60.102212365305" lon="15.90098313961">
        <ele>169.6</ele>
        <time>2015-02-21T11:40:17Z</time>
      </trkpt>
      <trkpt lat="60.102200965921" lon="15.90092949545">
        <ele>169.8</ele>
        <time>2015-02-21T11:40:18Z</time>
      </trkpt>
      <trkpt lat="60.102120248224" lon="15.900571420682">
        <ele>170.4</ele>
        <time>2015-02-21T11:40:24Z</time>
      </trkpt>
      <trkpt lat="60.102014803922" lon="15.900371344729">
        <ele>170.8</ele>
        <time>2015-02-21T11:40:28Z</time>
      </trkpt>
      <trkpt lat="60.101935762605" lon="15.90030672028">
        <ele>170.8</ele>
        <time>2015-02-21T11:40:30Z</time>
      </trkpt>
      <trkpt lat="60.101769633347" lon="15.90036036444">
        <ele>170.4</ele>
        <time>2015-02-21T11:40:33Z</time>
      </trkpt>
      <trkpt lat="60.10166209357" lon="15.900433370789">
        <ele>169.2</ele>
        <time>2015-02-21T11:40:35Z</time>
      </trkpt>
      <trkpt lat="60.101481715082" lon="15.900560272755">
        <ele>167.8</ele>
        <time>2015-02-21T11:40:38Z</time>
      </trkpt>
      <trkpt lat="60.101425137257" lon="15.900590615233">
        <ele>167.6</ele>
        <time>2015-02-21T11:40:39Z</time>
      </trkpt>
      <trkpt lat="60.101373840029" lon="15.900610396517">
        <ele>167</ele>
        <time>2015-02-21T11:40:40Z</time>
      </trkpt>
      <trkpt lat="60.101326063199" lon="15.900620790073">
        <ele>166.8</ele>
        <time>2015-02-21T11:40:41Z</time>
      </trkpt>
      <trkpt lat="60.101270072107" lon="15.900602685169">
        <ele>166.6</ele>
        <time>2015-02-21T11:40:42Z</time>
      </trkpt>
      <trkpt lat="60.101217769051" lon="15.900584077351">
        <ele>166.6</ele>
        <time>2015-02-21T11:40:43Z</time>
      </trkpt>
      <trkpt lat="60.101184995822" lon="15.900611067069">
        <ele>167</ele>
        <time>2015-02-21T11:40:44Z</time>
      </trkpt>
      <trkpt lat="60.101105367772" lon="15.900647779791">
        <ele>167.4</ele>
        <time>2015-02-21T11:40:46Z</time>
      </trkpt>
      <trkpt lat="60.1010644641" lon="15.900665214143">
        <ele>167.6</ele>
        <time>2015-02-21T11:40:47Z</time>
      </trkpt>
      <trkpt lat="60.101030768862" lon="15.900691198033">
        <ele>168</ele>
        <time>2015-02-21T11:40:48Z</time>
      </trkpt>
      <trkpt lat="60.100944686749" lon="15.900733191352">
        <ele>168</ele>
        <time>2015-02-21T11:40:50Z</time>
      </trkpt>
      <trkpt lat="60.100862292672" lon="15.900749452238">
        <ele>168</ele>
        <time>2015-02-21T11:40:52Z</time>
      </trkpt>
      <trkpt lat="60.100775707645" lon="15.900753727007">
        <ele>167.8</ele>
        <time>2015-02-21T11:40:54Z</time>
      </trkpt>
      <trkpt lat="60.100564986679" lon="15.900685246884">
        <ele>167.8</ele>
        <time>2015-02-21T11:41:00Z</time>
      </trkpt>
      <trkpt lat="60.100532800183" lon="15.90065876008">
        <ele>168</ele>
        <time>2015-02-21T11:41:01Z</time>
      </trkpt>
      <trkpt lat="60.100422578198" lon="15.900519788178">
        <ele>168.2</ele>
        <time>2015-02-21T11:41:04Z</time>
      </trkpt>
      <trkpt lat="60.100365246002" lon="15.900419121559">
        <ele>168</ele>
        <time>2015-02-21T11:41:06Z</time>
      </trkpt>
      <trkpt lat="60.100300453915" lon="15.900364136295">
        <ele>168</ele>
        <time>2015-02-21T11:41:08Z</time>
      </trkpt>
      <trkpt lat="60.100207666282" lon="15.900348126866">
        <ele>168</ele>
        <time>2015-02-21T11:41:10Z</time>
      </trkpt>
      <trkpt lat="60.100126110395" lon="15.900387940891">
        <ele>167.8</ele>
        <time>2015-02-21T11:41:12Z</time>
      </trkpt>
      <trkpt lat="60.100061318308" lon="15.900471424615">
        <ele>167.8</ele>
        <time>2015-02-21T11:41:14Z</time>
      </trkpt>
      <trkpt lat="60.099851519351" lon="15.900789433901">
        <ele>167.8</ele>
        <time>2015-02-21T11:41:20Z</time>
      </trkpt>
      <trkpt lat="60.099655299072" lon="15.901025300567">
        <ele>167.8</ele>
        <time>2015-02-21T11:41:26Z</time>
      </trkpt>
      <trkpt lat="60.099569300778" lon="15.901051703552">
        <ele>167.8</ele>
        <time>2015-02-21T11:41:28Z</time>
      </trkpt>
      <trkpt lat="60.099465784313" lon="15.901069389361">
        <ele>167.8</ele>
        <time>2015-02-21T11:41:30Z</time>
      </trkpt>
      <trkpt lat="60.09937802582" lon="15.901083387134">
        <ele>167.4</ele>
        <time>2015-02-21T11:41:32Z</time>
      </trkpt>
      <trkpt lat="60.09929923596" lon="15.901106269721">
        <ele>167.6</ele>
        <time>2015-02-21T11:41:34Z</time>
      </trkpt>
      <trkpt lat="60.099167807768" lon="15.901137534208">
        <ele>168</ele>
        <time>2015-02-21T11:41:37Z</time>
      </trkpt>
      <trkpt lat="60.099049958254" lon="15.901193692938">
        <ele>168.2</ele>
        <time>2015-02-21T11:41:40Z</time>
      </trkpt>
      <trkpt lat="60.09888852286" lon="15.901287737856">
        <ele>168.4</ele>
        <time>2015-02-21T11:41:44Z</time>
      </trkpt>
      <trkpt lat="60.098702193223" lon="15.901318750886">
        <ele>168.4</ele>
        <time>2015-02-21T11:41:50Z</time>
      </trkpt>
      <trkpt lat="60.098571351764" lon="15.901283463087">
        <ele>168.8</ele>
        <time>2015-02-21T11:41:55Z</time>
      </trkpt>
      <trkpt lat="60.098563053683" lon="15.901274159178">
        <ele>169.2</ele>
        <time>2015-02-21T11:41:56Z</time>
      </trkpt>
      <trkpt lat="60.09852139564" lon="15.901183886115">
        <ele>169.8</ele>
        <time>2015-02-21T11:41:59Z</time>
      </trkpt>
      <trkpt lat="60.098496752854" lon="15.901174833663">
        <ele>170</ele>
        <time>2015-02-21T11:42:00Z</time>
      </trkpt>
      <trkpt lat="60.098475630466" lon="15.901149436506">
        <ele>170.2</ele>
        <time>2015-02-21T11:42:01Z</time>
      </trkpt>
      <trkpt lat="60.098453334612" lon="15.901108532834">
        <ele>170.6</ele>
        <time>2015-02-21T11:42:02Z</time>
      </trkpt>
      <trkpt lat="60.098358283866" lon="15.90093871554">
        <ele>171.6</ele>
        <time>2015-02-21T11:42:08Z</time>
      </trkpt>
      <trkpt lat="60.098341436247" lon="15.900906445225">
        <ele>171.6</ele>
        <time>2015-02-21T11:42:09Z</time>
      </trkpt>
      <trkpt lat="60.098308243923" lon="15.900884652285">
        <ele>172</ele>
        <time>2015-02-21T11:42:10Z</time>
      </trkpt>
      <trkpt lat="60.098208415494" lon="15.900780549087">
        <ele>172.2</ele>
        <time>2015-02-21T11:42:13Z</time>
      </trkpt>
      <trkpt lat="60.098087129401" lon="15.900633698199">
        <ele>171.6</ele>
        <time>2015-02-21T11:42:17Z</time>
      </trkpt>
      <trkpt lat="60.097896441176" lon="15.900525906965">
        <ele>171.2</ele>
        <time>2015-02-21T11:42:22Z</time>
      </trkpt>
      <trkpt lat="60.0978206688" lon="15.90052464968">
        <ele>171</ele>
        <time>2015-02-21T11:42:24Z</time>
      </trkpt>
      <trkpt lat="60.097752691591" lon="15.900539150367">
        <ele>171</ele>
        <time>2015-02-21T11:42:26Z</time>
      </trkpt>
      <trkpt lat="60.097551358353" lon="15.900545772068">
        <ele>172.6</ele>
        <time>2015-02-21T11:42:33Z</time>
      </trkpt>
      <trkpt lat="60.097514477993" lon="15.900589357948">
        <ele>173.2</ele>
        <time>2015-02-21T11:42:34Z</time>
      </trkpt>
      <trkpt lat="60.097451362286" lon="15.900604613006">
        <ele>173.6</ele>
        <time>2015-02-21T11:42:36Z</time>
      </trkpt>
      <trkpt lat="60.097361592137" lon="15.900586927197">
        <ele>174.2</ele>
        <time>2015-02-21T11:42:39Z</time>
      </trkpt>
      <trkpt lat="60.097302415923" lon="15.90059421945">
        <ele>174.8</ele>
        <time>2015-02-21T11:42:41Z</time>
      </trkpt>
      <trkpt lat="60.097184985504" lon="15.900621963539">
        <ele>175.2</ele>
        <time>2015-02-21T11:42:45Z</time>
      </trkpt>
      <trkpt lat="60.097035368589" lon="15.900849783581">
        <ele>175.4</ele>
        <time>2015-02-21T11:42:50Z</time>
      </trkpt>
      <trkpt lat="60.096880890172" lon="15.901115908906">
        <ele>174.4</ele>
        <time>2015-02-21T11:42:55Z</time>
      </trkpt>
      <trkpt lat="60.096709815593" lon="15.901405922646">
        <ele>175</ele>
        <time>2015-02-21T11:43:00Z</time>
      </trkpt>
      <trkpt lat="60.096503620853" lon="15.901441797178">
        <ele>175</ele>
        <time>2015-02-21T11:43:04Z</time>
      </trkpt>
      <trkpt lat="60.096201034263" lon="15.901303076733">
        <ele>173.8</ele>
        <time>2015-02-21T11:43:08Z</time>
      </trkpt>
      <trkpt lat="60.096120651842" lon="15.901265274364">
        <ele>173.6</ele>
        <time>2015-02-21T11:43:09Z</time>
      </trkpt>
      <trkpt lat="60.0960604698" lon="15.901239458112">
        <ele>172.6</ele>
        <time>2015-02-21T11:43:10Z</time>
      </trkpt>
      <trkpt lat="60.095997521731" lon="15.901216240249">
        <ele>171.4</ele>
        <time>2015-02-21T11:43:11Z</time>
      </trkpt>
      <trkpt lat="60.095936250042" lon="15.90121112729">
        <ele>169.8</ele>
        <time>2015-02-21T11:43:12Z</time>
      </trkpt>
      <trkpt lat="60.095832901215" lon="15.901245744537">
        <ele>168.8</ele>
        <time>2015-02-21T11:43:14Z</time>
      </trkpt>
      <trkpt lat="60.095782442177" lon="15.901269549133">
        <ele>168.6</ele>
        <time>2015-02-21T11:43:15Z</time>
      </trkpt>
      <trkpt lat="60.095742041419" lon="15.90131422466">
        <ele>168.4</ele>
        <time>2015-02-21T11:43:16Z</time>
      </trkpt>
      <trkpt lat="60.095696611521" lon="15.901357726721">
        <ele>168.4</ele>
        <time>2015-02-21T11:43:17Z</time>
      </trkpt>
      <trkpt lat="60.095673142201" lon="15.901419501324">
        <ele>169</ele>
        <time>2015-02-21T11:43:18Z</time>
      </trkpt>
      <trkpt lat="60.09560030349" lon="15.901536512648">
        <ele>169.4</ele>
        <time>2015-02-21T11:43:20Z</time>
      </trkpt>
      <trkpt lat="60.09556426132" lon="15.901577164863">
        <ele>169.4</ele>
        <time>2015-02-21T11:43:21Z</time>
      </trkpt>
      <trkpt lat="60.095510784798" lon="15.901622594761">
        <ele>169.6</ele>
        <time>2015-02-21T11:43:22Z</time>
      </trkpt>
      <trkpt lat="60.095393689655" lon="15.901684872278">
        <ele>169.4</ele>
        <time>2015-02-21T11:43:24Z</time>
      </trkpt>
      <trkpt lat="60.095332417966" lon="15.901712700186">
        <ele>169.2</ele>
        <time>2015-02-21T11:43:25Z</time>
      </trkpt>
      <trkpt lat="60.095104262648" lon="15.901774055694">
        <ele>168.6</ele>
        <time>2015-02-21T11:43:29Z</time>
      </trkpt>
      <trkpt lat="60.095000243269" lon="15.901787550553">
        <ele>167.6</ele>
        <time>2015-02-21T11:43:31Z</time>
      </trkpt>
      <trkpt lat="60.094934696811" lon="15.901783108146">
        <ele>167</ele>
        <time>2015-02-21T11:43:32Z</time>
      </trkpt>
      <trkpt lat="60.094879124814" lon="15.901775648255">
        <ele>166.4</ele>
        <time>2015-02-21T11:43:33Z</time>
      </trkpt>
      <trkpt lat="60.09484593249" lon="15.90172493776">
        <ele>165.6</ele>
        <time>2015-02-21T11:43:34Z</time>
      </trkpt>
      <trkpt lat="60.094811985795" lon="15.901680765147">
        <ele>165</ele>
        <time>2015-02-21T11:43:35Z</time>
      </trkpt>
      <trkpt lat="60.094776865634" lon="15.901630389928">
        <ele>164.6</ele>
        <time>2015-02-21T11:43:36Z</time>
      </trkpt>
      <trkpt lat="60.094545441375" lon="15.901328809166">
        <ele>165</ele>
        <time>2015-02-21T11:43:42Z</time>
      </trkpt>
      <trkpt lat="60.094340923015" lon="15.901147760126">
        <ele>163.6</ele>
        <time>2015-02-21T11:43:46Z</time>
      </trkpt>
      <trkpt lat="60.094215865067" lon="15.901010632242">
        <ele>162.6</ele>
        <time>2015-02-21T11:43:49Z</time>
      </trkpt>
      <trkpt lat="60.09417705687" lon="15.900948941458">
        <ele>162.2</ele>
        <time>2015-02-21T11:43:50Z</time>
      </trkpt>
      <trkpt lat="60.094068762722" lon="15.900798570172">
        <ele>162.8</ele>
        <time>2015-02-21T11:43:53Z</time>
      </trkpt>
      <trkpt lat="60.094027523774" lon="15.900736041198">
        <ele>162.6</ele>
        <time>2015-02-21T11:43:54Z</time>
      </trkpt>
      <trkpt lat="60.093896682315" lon="15.900616515304">
        <ele>162.2</ele>
        <time>2015-02-21T11:43:58Z</time>
      </trkpt>
      <trkpt lat="60.093800961017" lon="15.900667812532">
        <ele>162</ele>
        <time>2015-02-21T11:44:00Z</time>
      </trkpt>
      <trkpt lat="60.093700629674" lon="15.900688767282">
        <ele>161.2</ele>
        <time>2015-02-21T11:44:02Z</time>
      </trkpt>
      <trkpt lat="60.093651930835" lon="15.900693377327">
        <ele>161</ele>
        <time>2015-02-21T11:44:03Z</time>
      </trkpt>
      <trkpt lat="60.093606081842" lon="15.900710392584">
        <ele>160.6</ele>
        <time>2015-02-21T11:44:04Z</time>
      </trkpt>
      <trkpt lat="60.093563837066" lon="15.900725647642">
        <ele>160.2</ele>
        <time>2015-02-21T11:44:05Z</time>
      </trkpt>
      <trkpt lat="60.093454201814" lon="15.900775855223">
        <ele>159.4</ele>
        <time>2015-02-21T11:44:08Z</time>
      </trkpt>
      <trkpt lat="60.093398043084" lon="15.900793205756">
        <ele>159.2</ele>
        <time>2015-02-21T11:44:10Z</time>
      </trkpt>
      <trkpt lat="60.093356217403" lon="15.900810053375">
        <ele>159.4</ele>
        <time>2015-02-21T11:44:12Z</time>
      </trkpt>
      <trkpt lat="60.093358815792" lon="15.900817597085">
        <ele>159.6</ele>
        <time>2015-02-21T12:02:09Z</time>
      </trkpt>
      <trkpt lat="60.093446658104" lon="15.900860260956">
        <ele>159.6</ele>
        <time>2015-02-21T12:02:15Z</time>
      </trkpt>
      <trkpt lat="60.093533829864" lon="15.900968303647">
        <ele>159.4</ele>
        <time>2015-02-21T12:02:19Z</time>
      </trkpt>
      <trkpt lat="60.093552186225" lon="15.90101079988">
        <ele>159.4</ele>
        <time>2015-02-21T12:02:20Z</time>
      </trkpt>
      <trkpt lat="60.093701719321" lon="15.901187238875">
        <ele>160</ele>
        <time>2015-02-21T12:02:26Z</time>
      </trkpt>
      <trkpt lat="60.093851587693" lon="15.901180700993">
        <ele>160</ele>
        <time>2015-02-21T12:02:30Z</time>
      </trkpt>
      <trkpt lat="60.093946889896" lon="15.901163266641">
        <ele>160.2</ele>
        <time>2015-02-21T12:02:33Z</time>
      </trkpt>
      <trkpt lat="60.094039677529" lon="15.901185813952">
        <ele>160.8</ele>
        <time>2015-02-21T12:02:36Z</time>
      </trkpt>
      <trkpt lat="60.09410329615" lon="15.901215066783">
        <ele>161.2</ele>
        <time>2015-02-21T12:02:38Z</time>
      </trkpt>
      <trkpt lat="60.094336983522" lon="15.901285307105">
        <ele>162</ele>
        <time>2015-02-21T12:02:45Z</time>
      </trkpt>
      <trkpt lat="60.094445948222" lon="15.901363258775">
        <ele>162.2</ele>
        <time>2015-02-21T12:02:49Z</time>
      </trkpt>
      <trkpt lat="60.094469501361" lon="15.901398630393">
        <ele>162.4</ele>
        <time>2015-02-21T12:02:50Z</time>
      </trkpt>
      <trkpt lat="60.094495066156" lon="15.901431738898">
        <ele>162.2</ele>
        <time>2015-02-21T12:02:51Z</time>
      </trkpt>
      <trkpt lat="60.094594056395" lon="15.901646566995">
        <ele>163.2</ele>
        <time>2015-02-21T12:02:56Z</time>
      </trkpt>
      <trkpt lat="60.094617358077" lon="15.901701552259">
        <ele>163.6</ele>
        <time>2015-02-21T12:02:57Z</time>
      </trkpt>
      <trkpt lat="60.094730932822" lon="15.901940771685">
        <ele>164</ele>
        <time>2015-02-21T12:03:02Z</time>
      </trkpt>
      <trkpt lat="60.09481659584" lon="15.902117965051">
        <ele>164.6</ele>
        <time>2015-02-21T12:03:06Z</time>
      </trkpt>
      <trkpt lat="60.094906785084" lon="15.902261546998">
        <ele>164.6</ele>
        <time>2015-02-21T12:03:10Z</time>
      </trkpt>
      <trkpt lat="60.095044918796" lon="15.902584669243">
        <ele>165</ele>
        <time>2015-02-21T12:03:17Z</time>
      </trkpt>
      <trkpt lat="60.095117841326" lon="15.902831600017">
        <ele>165.6</ele>
        <time>2015-02-21T12:03:22Z</time>
      </trkpt>
      <trkpt lat="60.095166540165" lon="15.902957999069">
        <ele>166</ele>
        <time>2015-02-21T12:03:25Z</time>
      </trkpt>
      <trkpt lat="60.095252119364" lon="15.903058246593">
        <ele>166.2</ele>
        <time>2015-02-21T12:03:29Z</time>
      </trkpt>
      <trkpt lat="60.095282545661" lon="15.90306017443">
        <ele>166.4</ele>
        <time>2015-02-21T12:03:30Z</time>
      </trkpt>
      <trkpt lat="60.095321437677" lon="15.903077189687">
        <ele>166.8</ele>
        <time>2015-02-21T12:03:32Z</time>
      </trkpt>
      <trkpt lat="60.095367119032" lon="15.903101832473">
        <ele>167.4</ele>
        <time>2015-02-21T12:03:35Z</time>
      </trkpt>
      <trkpt lat="60.095395868949" lon="15.903148352018">
        <ele>168</ele>
        <time>2015-02-21T12:03:37Z</time>
      </trkpt>
      <trkpt lat="60.09548798603" lon="15.90329822039">
        <ele>169.2</ele>
        <time>2015-02-21T12:03:42Z</time>
      </trkpt>
      <trkpt lat="60.095597956558" lon="15.903508270804">
        <ele>169.4</ele>
        <time>2015-02-21T12:03:48Z</time>
      </trkpt>
      <trkpt lat="60.095739526849" lon="15.903616397314">
        <ele>169.6</ele>
        <time>2015-02-21T12:03:53Z</time>
      </trkpt>
      <trkpt lat="60.095845222608" lon="15.903705496911">
        <ele>170.2</ele>
        <time>2015-02-21T12:03:57Z</time>
      </trkpt>
      <trkpt lat="60.095957623887" lon="15.903755117759">
        <ele>170.6</ele>
        <time>2015-02-21T12:04:01Z</time>
      </trkpt>
      <trkpt lat="60.095979081551" lon="15.903784873504">
        <ele>170.6</ele>
        <time>2015-02-21T12:04:02Z</time>
      </trkpt>
      <trkpt lat="60.096016297187" lon="15.903777162156">
        <ele>170.6</ele>
        <time>2015-02-21T12:04:03Z</time>
      </trkpt>
      <trkpt lat="60.096094751771" lon="15.903822508235">
        <ele>170.8</ele>
        <time>2015-02-21T12:04:06Z</time>
      </trkpt>
      <trkpt lat="60.096213355656" lon="15.903898532068">
        <ele>171</ele>
        <time>2015-02-21T12:04:11Z</time>
      </trkpt>
      <trkpt lat="60.096232550207" lon="15.903915044411">
        <ele>171.4</ele>
        <time>2015-02-21T12:04:12Z</time>
      </trkpt>
      <trkpt lat="60.096308657859" lon="15.904034654124">
        <ele>172.2</ele>
        <time>2015-02-21T12:04:16Z</time>
      </trkpt>
      <trkpt lat="60.096323242365" lon="15.90408025166">
        <ele>172.8</ele>
        <time>2015-02-21T12:04:17Z</time>
      </trkpt>
      <trkpt lat="60.096404295338" lon="15.904347466632">
        <ele>172.6</ele>
        <time>2015-02-21T12:04:21Z</time>
      </trkpt>
      <trkpt lat="60.096488701071" lon="15.904557936141">
        <ele>172.2</ele>
        <time>2015-02-21T12:04:25Z</time>
      </trkpt>
      <trkpt lat="60.096533125141" lon="15.904638067105">
        <ele>172.2</ele>
        <time>2015-02-21T12:04:27Z</time>
      </trkpt>
      <trkpt lat="60.096612166458" lon="15.904993292027">
        <ele>172.4</ele>
        <time>2015-02-21T12:04:33Z</time>
      </trkpt>
      <trkpt lat="60.096689782852" lon="15.905253130927">
        <ele>173.2</ele>
        <time>2015-02-21T12:04:39Z</time>
      </trkpt>
      <trkpt lat="60.096765052314" lon="15.905336530832">
        <ele>173.2</ele>
        <time>2015-02-21T12:04:42Z</time>
      </trkpt>
      <trkpt lat="60.096829676763" lon="15.905365280749">
        <ele>173.4</ele>
        <time>2015-02-21T12:04:44Z</time>
      </trkpt>
      <trkpt lat="60.09695062758" lon="15.905392689562">
        <ele>173.6</ele>
        <time>2015-02-21T12:04:49Z</time>
      </trkpt>
      <trkpt lat="60.096974683633" lon="15.905406603516">
        <ele>173.8</ele>
        <time>2015-02-21T12:04:50Z</time>
      </trkpt>
      <trkpt lat="60.097124635824" lon="15.905491093068">
        <ele>174.8</ele>
        <time>2015-02-21T12:04:55Z</time>
      </trkpt>
      <trkpt lat="60.097280287707" lon="15.905604583994">
        <ele>175.2</ele>
        <time>2015-02-21T12:05:01Z</time>
      </trkpt>
      <trkpt lat="60.097353294056" lon="15.905798876436">
        <ele>175.4</ele>
        <time>2015-02-21T12:05:05Z</time>
      </trkpt>
      <trkpt lat="60.097378691213" lon="15.905910942439">
        <ele>175.4</ele>
        <time>2015-02-21T12:05:07Z</time>
      </trkpt>
      <trkpt lat="60.097402328171" lon="15.906042622088">
        <ele>175.6</ele>
        <time>2015-02-21T12:05:09Z</time>
      </trkpt>
      <trkpt lat="60.097433341201" lon="15.906204979491">
        <ele>175.6</ele>
        <time>2015-02-21T12:05:11Z</time>
      </trkpt>
      <trkpt lat="60.097452451933" lon="15.906274549261">
        <ele>175.6</ele>
        <time>2015-02-21T12:05:12Z</time>
      </trkpt>
      <trkpt lat="60.097580192089" lon="15.9067088155">
        <ele>174.6</ele>
        <time>2015-02-21T12:05:18Z</time>
      </trkpt>
      <trkpt lat="60.09764045795" lon="15.907081390955">
        <ele>174.4</ele>
        <time>2015-02-21T12:05:24Z</time>
      </trkpt>
      <trkpt lat="60.097706255865" lon="15.907359502397">
        <ele>175.6</ele>
        <time>2015-02-21T12:05:29Z</time>
      </trkpt>
      <trkpt lat="60.097747830089" lon="15.907476513721">
        <ele>176.2</ele>
        <time>2015-02-21T12:05:31Z</time>
      </trkpt>
      <trkpt lat="60.097801474249" lon="15.907584304955">
        <ele>176.4</ele>
        <time>2015-02-21T12:05:33Z</time>
      </trkpt>
      <trkpt lat="60.097835085668" lon="15.907624538075">
        <ele>176.4</ele>
        <time>2015-02-21T12:05:34Z</time>
      </trkpt>
      <trkpt lat="60.097868277992" lon="15.907699975175">
        <ele>176.2</ele>
        <time>2015-02-21T12:05:35Z</time>
      </trkpt>
      <trkpt lat="60.097952180811" lon="15.907791673161">
        <ele>175.8</ele>
        <time>2015-02-21T12:05:37Z</time>
      </trkpt>
      <trkpt lat="60.097992330112" lon="15.907855543239">
        <ele>175.6</ele>
        <time>2015-02-21T12:05:38Z</time>
      </trkpt>
      <trkpt lat="60.098026276807" lon="15.907864763329">
        <ele>175.6</ele>
        <time>2015-02-21T12:05:39Z</time>
      </trkpt>
      <trkpt lat="60.098139851552" lon="15.907954449659">
        <ele>175.6</ele>
        <time>2015-02-21T12:05:42Z</time>
      </trkpt>
      <trkpt lat="60.098178324473" lon="15.90796358593">
        <ele>175.2</ele>
        <time>2015-02-21T12:05:43Z</time>
      </trkpt>
      <trkpt lat="60.098337329116" lon="15.908035334994">
        <ele>175.6</ele>
        <time>2015-02-21T12:05:47Z</time>
      </trkpt>
      <trkpt lat="60.098424249419" lon="15.908047740206">
        <ele>175.2</ele>
        <time>2015-02-21T12:05:49Z</time>
      </trkpt>
      <trkpt lat="60.098555007059" lon="15.908067856766">
        <ele>175.6</ele>
        <time>2015-02-21T12:05:52Z</time>
      </trkpt>
      <trkpt lat="60.098611584884" lon="15.908126613885">
        <ele>175.2</ele>
        <time>2015-02-21T12:05:54Z</time>
      </trkpt>
      <trkpt lat="60.098699343377" lon="15.908164919168">
        <ele>175.2</ele>
        <time>2015-02-21T12:05:56Z</time>
      </trkpt>
      <trkpt lat="60.098795735227" lon="15.908281930492">
        <ele>175.6</ele>
        <time>2015-02-21T12:05:59Z</time>
      </trkpt>
      <trkpt lat="60.098831023026" lon="15.90833825686">
        <ele>175.6</ele>
        <time>2015-02-21T12:06:00Z</time>
      </trkpt>
      <trkpt lat="60.098856168726" lon="15.908400366739">
        <ele>175.4</ele>
        <time>2015-02-21T12:06:01Z</time>
      </trkpt>
      <trkpt lat="60.098952057662" lon="15.908697169818">
        <ele>175.4</ele>
        <time>2015-02-21T12:06:05Z</time>
      </trkpt>
      <trkpt lat="60.098994386257" lon="15.908830106752">
        <ele>175</ele>
        <time>2015-02-21T12:06:07Z</time>
      </trkpt>
      <trkpt lat="60.099037217766" lon="15.908944687325">
        <ele>174.8</ele>
        <time>2015-02-21T12:06:09Z</time>
      </trkpt>
      <trkpt lat="60.099143835534" lon="15.90919740161">
        <ele>174.8</ele>
        <time>2015-02-21T12:06:13Z</time>
      </trkpt>
      <trkpt lat="60.099261936505" lon="15.909409128404">
        <ele>174.8</ele>
        <time>2015-02-21T12:06:17Z</time>
      </trkpt>
      <trkpt lat="60.099302169625" lon="15.909521194407">
        <ele>174.8</ele>
        <time>2015-02-21T12:06:19Z</time>
      </trkpt>
      <trkpt lat="60.099332176827" lon="15.909650946219">
        <ele>174.8</ele>
        <time>2015-02-21T12:06:21Z</time>
      </trkpt>
      <trkpt lat="60.099371487938" lon="15.909786984456">
        <ele>175.2</ele>
        <time>2015-02-21T12:06:23Z</time>
      </trkpt>
      <trkpt lat="60.099392945602" lon="15.909862589194">
        <ele>175.2</ele>
        <time>2015-02-21T12:06:24Z</time>
      </trkpt>
      <trkpt lat="60.099465532856" lon="15.910106586303">
        <ele>175.4</ele>
        <time>2015-02-21T12:06:28Z</time>
      </trkpt>
      <trkpt lat="60.099527726554" lon="15.910277409425">
        <ele>175</ele>
        <time>2015-02-21T12:06:31Z</time>
      </trkpt>
      <trkpt lat="60.099595452306" lon="15.910448903099">
        <ele>175</ele>
        <time>2015-02-21T12:06:35Z</time>
      </trkpt>
      <trkpt lat="60.09967977422" lon="15.910560214731">
        <ele>175.2</ele>
        <time>2015-02-21T12:06:37Z</time>
      </trkpt>
      <trkpt lat="60.099754037854" lon="15.910594915797">
        <ele>175.4</ele>
        <time>2015-02-21T12:06:39Z</time>
      </trkpt>
      <trkpt lat="60.100007255053" lon="15.910552084288">
        <ele>176</ele>
        <time>2015-02-21T12:06:46Z</time>
      </trkpt>
      <trkpt lat="60.100113286088" lon="15.910438090448">
        <ele>176.2</ele>
        <time>2015-02-21T12:06:50Z</time>
      </trkpt>
      <trkpt lat="60.100141533091" lon="15.910407496513">
        <ele>176.4</ele>
        <time>2015-02-21T12:06:51Z</time>
      </trkpt>
      <trkpt lat="60.100358205206" lon="15.910103401181">
        <ele>176.6</ele>
        <time>2015-02-21T12:06:58Z</time>
      </trkpt>
      <trkpt lat="60.100559538444" lon="15.909877676614">
        <ele>176.8</ele>
        <time>2015-02-21T12:07:05Z</time>
      </trkpt>
      <trkpt lat="60.100682836193" lon="15.909760749109">
        <ele>177.2</ele>
        <time>2015-02-21T12:07:10Z</time>
      </trkpt>
      <trkpt lat="60.100731618851" lon="15.909682043068">
        <ele>178</ele>
        <time>2015-02-21T12:07:12Z</time>
      </trkpt>
      <trkpt lat="60.100801356259" lon="15.909571653445">
        <ele>178.6</ele>
        <time>2015-02-21T12:07:14Z</time>
      </trkpt>
      <trkpt lat="60.100852737306" lon="15.909532593791">
        <ele>178.6</ele>
        <time>2015-02-21T12:07:15Z</time>
      </trkpt>
      <trkpt lat="60.100905543276" lon="15.909500574933">
        <ele>178.6</ele>
        <time>2015-02-21T12:07:16Z</time>
      </trkpt>
      <trkpt lat="60.100945357301" lon="15.909455647949">
        <ele>178.4</ele>
        <time>2015-02-21T12:07:17Z</time>
      </trkpt>
      <trkpt lat="60.101014340338" lon="15.909328075431">
        <ele>177.8</ele>
        <time>2015-02-21T12:07:19Z</time>
      </trkpt>
      <trkpt lat="60.101046778291" lon="15.909250291399">
        <ele>177.6</ele>
        <time>2015-02-21T12:07:20Z</time>
      </trkpt>
      <trkpt lat="60.101064883195" lon="15.909152558445">
        <ele>177</ele>
        <time>2015-02-21T12:07:21Z</time>
      </trkpt>
      <trkpt lat="60.101115509871" lon="15.909013083629">
        <ele>176.6</ele>
        <time>2015-02-21T12:07:23Z</time>
      </trkpt>
      <trkpt lat="60.101146103806" lon="15.908954075053">
        <ele>176.4</ele>
        <time>2015-02-21T12:07:24Z</time>
      </trkpt>
      <trkpt lat="60.101179715225" lon="15.908918871073">
        <ele>175.8</ele>
        <time>2015-02-21T12:07:25Z</time>
      </trkpt>
      <trkpt lat="60.101263282768" lon="15.908863466714">
        <ele>175.4</ele>
        <time>2015-02-21T12:07:27Z</time>
      </trkpt>
      <trkpt lat="60.101304856992" lon="15.908857850841">
        <ele>175.2</ele>
        <time>2015-02-21T12:07:28Z</time>
      </trkpt>
      <trkpt lat="60.10134693413" lon="15.908869250225">
        <ele>175</ele>
        <time>2015-02-21T12:07:29Z</time>
      </trkpt>
      <trkpt lat="60.101427232732" lon="15.908901939635">
        <ele>175.2</ele>
        <time>2015-02-21T12:07:31Z</time>
      </trkpt>
      <trkpt lat="60.101469393689" lon="15.908923564937">
        <ele>175.4</ele>
        <time>2015-02-21T12:07:32Z</time>
      </trkpt>
      <trkpt lat="60.101508369524" lon="15.908927252973">
        <ele>175.4</ele>
        <time>2015-02-21T12:07:33Z</time>
      </trkpt>
      <trkpt lat="60.101590428325" lon="15.908930941009">
        <ele>175.2</ele>
        <time>2015-02-21T12:07:35Z</time>
      </trkpt>
      <trkpt lat="60.101687658365" lon="15.90888224217">
        <ele>175.4</ele>
        <time>2015-02-21T12:07:37Z</time>
      </trkpt>
      <trkpt lat="60.10177776379" lon="15.908809068183">
        <ele>175.6</ele>
        <time>2015-02-21T12:07:39Z</time>
      </trkpt>
      <trkpt lat="60.101844651352" lon="15.908681411846">
        <ele>175.6</ele>
        <time>2015-02-21T12:07:41Z</time>
      </trkpt>
      <trkpt lat="60.101878178952" lon="15.908610752429">
        <ele>175.6</ele>
        <time>2015-02-21T12:07:42Z</time>
      </trkpt>
      <trkpt lat="60.101957387907" lon="15.908414113055">
        <ele>174.8</ele>
        <time>2015-02-21T12:07:45Z</time>
      </trkpt>
      <trkpt lat="60.101988652394" lon="15.908357116135">
        <ele>174.6</ele>
        <time>2015-02-21T12:07:46Z</time>
      </trkpt>
      <trkpt lat="60.102150003969" lon="15.90806416873">
        <ele>173.8</ele>
        <time>2015-02-21T12:07:51Z</time>
      </trkpt>
      <trkpt lat="60.102178250972" lon="15.907998622272">
        <ele>173.6</ele>
        <time>2015-02-21T12:07:52Z</time>
      </trkpt>
      <trkpt lat="60.102198199894" lon="15.907908768304">
        <ele>173.4</ele>
        <time>2015-02-21T12:07:53Z</time>
      </trkpt>
      <trkpt lat="60.102220076653" lon="15.907819333431">
        <ele>173.2</ele>
        <time>2015-02-21T12:07:54Z</time>
      </trkpt>
      <trkpt lat="60.102230637847" lon="15.907691928551">
        <ele>173</ele>
        <time>2015-02-21T12:07:55Z</time>
      </trkpt>
      <trkpt lat="60.102242037231" lon="15.907438795171">
        <ele>172</ele>
        <time>2015-02-21T12:07:57Z</time>
      </trkpt>
      <trkpt lat="60.102203648129" lon="15.907157833883">
        <ele>170.6</ele>
        <time>2015-02-21T12:07:59Z</time>
      </trkpt>
      <trkpt lat="60.102147992313" lon="15.906926996357">
        <ele>169.2</ele>
        <time>2015-02-21T12:08:01Z</time>
      </trkpt>
      <trkpt lat="60.102101724225" lon="15.906740247625">
        <ele>168.6</ele>
        <time>2015-02-21T12:08:03Z</time>
      </trkpt>
      <trkpt lat="60.102073728679" lon="15.906518462551">
        <ele>168.4</ele>
        <time>2015-02-21T12:08:05Z</time>
      </trkpt>
      <trkpt lat="60.102068867177" lon="15.90642634547">
        <ele>168.4</ele>
        <time>2015-02-21T12:08:06Z</time>
      </trkpt>
      <trkpt lat="60.102087726452" lon="15.905769539786">
        <ele>168</ele>
        <time>2015-02-21T12:08:13Z</time>
      </trkpt>
      <trkpt lat="60.102089486651" lon="15.905691420478">
        <ele>168</ele>
        <time>2015-02-21T12:08:14Z</time>
      </trkpt>
      <trkpt lat="60.102098539103" lon="15.905605422184">
        <ele>167.8</ele>
        <time>2015-02-21T12:08:15Z</time>
      </trkpt>
      <trkpt lat="60.102162660638" lon="15.905196636921">
        <ele>168</ele>
        <time>2015-02-21T12:08:19Z</time>
      </trkpt>
      <trkpt lat="60.102219322282" lon="15.904999829909">
        <ele>167.4</ele>
        <time>2015-02-21T12:08:21Z</time>
      </trkpt>
      <trkpt lat="60.102288808233" lon="15.904866892975">
        <ele>166.2</ele>
        <time>2015-02-21T12:08:23Z</time>
      </trkpt>
      <trkpt lat="60.102516460637" lon="15.904504459619">
        <ele>165.8</ele>
        <time>2015-02-21T12:08:30Z</time>
      </trkpt>
      <trkpt lat="60.102672531615" lon="15.904231712593">
        <ele>166.6</ele>
        <time>2015-02-21T12:08:35Z</time>
      </trkpt>
      <trkpt lat="60.102749226" lon="15.904109755948">
        <ele>167</ele>
        <time>2015-02-21T12:08:37Z</time>
      </trkpt>
      <trkpt lat="60.10282969224" lon="15.904022332731">
        <ele>167.2</ele>
        <time>2015-02-21T12:08:39Z</time>
      </trkpt>
      <trkpt lat="60.102948631401" lon="15.903885037209">
        <ele>166.6</ele>
        <time>2015-02-21T12:08:43Z</time>
      </trkpt>
      <trkpt lat="60.102987439598" lon="15.903793758318">
        <ele>167.4</ele>
        <time>2015-02-21T12:08:45Z</time>
      </trkpt>
      <trkpt lat="60.103043011595" lon="15.903608266871">
        <ele>168</ele>
        <time>2015-02-21T12:08:48Z</time>
      </trkpt>
      <trkpt lat="60.103043179233" lon="15.903528135907">
        <ele>168.2</ele>
        <time>2015-02-21T12:08:49Z</time>
      </trkpt>
      <trkpt lat="60.103055835902" lon="15.903372735481">
        <ele>168.4</ele>
        <time>2015-02-21T12:08:51Z</time>
      </trkpt>
      <trkpt lat="60.10306103268" lon="15.903297968933">
        <ele>168.4</ele>
        <time>2015-02-21T12:08:52Z</time>
      </trkpt>
      <trkpt lat="60.103004706312" lon="15.902967302978">
        <ele>168.2</ele>
        <time>2015-02-21T12:08:57Z</time>
      </trkpt>
      <trkpt lat="60.102878977812" lon="15.902642336715">
        <ele>169.4</ele>
        <time>2015-02-21T12:09:04Z</time>
      </trkpt>
      <trkpt lat="60.102841510719" lon="15.902586177985">
        <ele>169.8</ele>
        <time>2015-02-21T12:09:05Z</time>
      </trkpt>
      <trkpt lat="60.102755680063" lon="15.902441674029">
        <ele>169.6</ele>
        <time>2015-02-21T12:09:08Z</time>
      </trkpt>
      <trkpt lat="60.102567003494" lon="15.902079073035">
        <ele>170.2</ele>
        <time>2015-02-21T12:09:16Z</time>
      </trkpt>
      <trkpt lat="60.102362149858" lon="15.901608680807">
        <ele>170.6</ele>
        <time>2015-02-21T12:09:25Z</time>
      </trkpt>
      <trkpt lat="60.102247401647" lon="15.901267453658">
        <ele>170.6</ele>
        <time>2015-02-21T12:09:31Z</time>
      </trkpt>
      <trkpt lat="60.102208090536" lon="15.901102581685">
        <ele>170.8</ele>
        <time>2015-02-21T12:09:34Z</time>
      </trkpt>
      <trkpt lat="60.102136425291" lon="15.900730341506">
        <ele>171.4</ele>
        <time>2015-02-21T12:09:41Z</time>
      </trkpt>
      <trkpt lat="60.102103316786" lon="15.900615760933">
        <ele>171.8</ele>
        <time>2015-02-21T12:09:43Z</time>
      </trkpt>
      <trkpt lat="60.102056713422" lon="15.900496402677">
        <ele>172.4</ele>
        <time>2015-02-21T12:09:45Z</time>
      </trkpt>
      <trkpt lat="60.102003991271" lon="15.900406297252">
        <ele>172.2</ele>
        <time>2015-02-21T12:09:47Z</time>
      </trkpt>
      <trkpt lat="60.101942384306" lon="15.900346785762">
        <ele>172</ele>
        <time>2015-02-21T12:09:49Z</time>
      </trkpt>
      <trkpt lat="60.10184649537" lon="15.900340331699">
        <ele>171.4</ele>
        <time>2015-02-21T12:09:51Z</time>
      </trkpt>
      <trkpt lat="60.10174255981" lon="15.900391712746">
        <ele>171.4</ele>
        <time>2015-02-21T12:09:53Z</time>
      </trkpt>
      <trkpt lat="60.101633176015" lon="15.900463964724">
        <ele>170.8</ele>
        <time>2015-02-21T12:09:55Z</time>
      </trkpt>
      <trkpt lat="60.101512979569" lon="15.900551136484">
        <ele>169.8</ele>
        <time>2015-02-21T12:09:57Z</time>
      </trkpt>
      <trkpt lat="60.101456234106" lon="15.900589357948">
        <ele>169.4</ele>
        <time>2015-02-21T12:09:58Z</time>
      </trkpt>
      <trkpt lat="60.101406697077" lon="15.90061601239">
        <ele>169.8</ele>
        <time>2015-02-21T12:09:59Z</time>
      </trkpt>
      <trkpt lat="60.101280465663" lon="15.900659262994">
        <ele>170.2</ele>
        <time>2015-02-21T12:10:02Z</time>
      </trkpt>
      <trkpt lat="60.101205531477" lon="15.900685079246">
        <ele>171.6</ele>
        <time>2015-02-21T12:10:04Z</time>
      </trkpt>
      <trkpt lat="60.101095560949" lon="15.90072162433">
        <ele>172.8</ele>
        <time>2015-02-21T12:10:07Z</time>
      </trkpt>
      <trkpt lat="60.101026577912" lon="15.900761522174">
        <ele>173</ele>
        <time>2015-02-21T12:10:09Z</time>
      </trkpt>
      <trkpt lat="60.10093705922" lon="15.900776358137">
        <ele>173.2</ele>
        <time>2015-02-21T12:10:11Z</time>
      </trkpt>
      <trkpt lat="60.100848965451" lon="15.900772921558">
        <ele>173.4</ele>
        <time>2015-02-21T12:10:13Z</time>
      </trkpt>
      <trkpt lat="60.100803870829" lon="15.900779794716">
        <ele>173.4</ele>
        <time>2015-02-21T12:10:14Z</time>
      </trkpt>
      <trkpt lat="60.100688032971" lon="15.900772502463">
        <ele>173</ele>
        <time>2015-02-21T12:10:18Z</time>
      </trkpt>
      <trkpt lat="60.100519975876" lon="15.900642247737">
        <ele>172.6</ele>
        <time>2015-02-21T12:10:23Z</time>
      </trkpt>
      <trkpt lat="60.100331550764" lon="15.900352653092">
        <ele>172.2</ele>
        <time>2015-02-21T12:10:30Z</time>
      </trkpt>
      <trkpt lat="60.100208085377" lon="15.900325747193">
        <ele>172.2</ele>
        <time>2015-02-21T12:10:33Z</time>
      </trkpt>
      <trkpt lat="60.100170283008" lon="15.900328597039">
        <ele>172.2</ele>
        <time>2015-02-21T12:10:34Z</time>
      </trkpt>
      <trkpt lat="60.100138096512" lon="15.900389365814">
        <ele>172.4</ele>
        <time>2015-02-21T12:10:35Z</time>
      </trkpt>
      <trkpt lat="60.100079842307" lon="15.900465557285">
        <ele>172.6</ele>
        <time>2015-02-21T12:10:37Z</time>
      </trkpt>
      <trkpt lat="60.099843388908" lon="15.900861350603">
        <ele>173.2</ele>
        <time>2015-02-21T12:10:45Z</time>
      </trkpt>
      <trkpt lat="60.099655550529" lon="15.901016834848">
        <ele>172.4</ele>
        <time>2015-02-21T12:10:51Z</time>
      </trkpt>
      <trkpt lat="60.099615065952" lon="15.901018511228">
        <ele>172.4</ele>
        <time>2015-02-21T12:10:52Z</time>
      </trkpt>
      <trkpt lat="60.099575084289" lon="15.901052374104">
        <ele>172.4</ele>
        <time>2015-02-21T12:10:53Z</time>
      </trkpt>
      <trkpt lat="60.099433681636" lon="15.901113813431">
        <ele>172.6</ele>
        <time>2015-02-21T12:10:57Z</time>
      </trkpt>
      <trkpt lat="60.099213908218" lon="15.901167373772">
        <ele>173.6</ele>
        <time>2015-02-21T12:11:03Z</time>
      </trkpt>
      <trkpt lat="60.099141153326" lon="15.901199476449">
        <ele>173.8</ele>
        <time>2015-02-21T12:11:05Z</time>
      </trkpt>
      <trkpt lat="60.099014167541" lon="15.901305088389">
        <ele>174</ele>
        <time>2015-02-21T12:11:09Z</time>
      </trkpt>
      <trkpt lat="60.098754161003" lon="15.901358732549">
        <ele>173.4</ele>
        <time>2015-02-21T12:11:17Z</time>
      </trkpt>
      <trkpt lat="60.098676544609" lon="15.901359738377">
        <ele>173.4</ele>
        <time>2015-02-21T12:11:20Z</time>
      </trkpt>
      <trkpt lat="60.098643603742" lon="15.901348506631">
        <ele>173.4</ele>
        <time>2015-02-21T12:11:21Z</time>
      </trkpt>
      <trkpt lat="60.098566154986" lon="15.901332329564">
        <ele>173.6</ele>
        <time>2015-02-21T12:11:25Z</time>
      </trkpt>
      <trkpt lat="60.098444365979" lon="15.901199057354">
        <ele>174.2</ele>
        <time>2015-02-21T12:11:32Z</time>
      </trkpt>
      <trkpt lat="60.098309082113" lon="15.901027144585">
        <ele>174.2</ele>
        <time>2015-02-21T12:11:38Z</time>
      </trkpt>
      <trkpt lat="60.098113364748" lon="15.900846682278">
        <ele>174</ele>
        <time>2015-02-21T12:11:44Z</time>
      </trkpt>
      <trkpt lat="60.098035999811" lon="15.900787422245">
        <ele>173.6</ele>
        <time>2015-02-21T12:11:46Z</time>
      </trkpt>
      <trkpt lat="60.097959137788" lon="15.900683319047">
        <ele>173.2</ele>
        <time>2015-02-21T12:11:48Z</time>
      </trkpt>
      <trkpt lat="60.097865511965" lon="15.900605451196">
        <ele>173</ele>
        <time>2015-02-21T12:11:50Z</time>
      </trkpt>
      <trkpt lat="60.09782653613" lon="15.900582903885">
        <ele>172.8</ele>
        <time>2015-02-21T12:11:51Z</time>
      </trkpt>
      <trkpt lat="60.097717068516" lon="15.900583406799">
        <ele>173</ele>
        <time>2015-02-21T12:11:55Z</time>
      </trkpt>
      <trkpt lat="60.097609361101" lon="15.900588855034">
        <ele>174.2</ele>
        <time>2015-02-21T12:12:00Z</time>
      </trkpt>
      <trkpt lat="60.097508107749" lon="15.900624561928">
        <ele>174.4</ele>
        <time>2015-02-21T12:12:05Z</time>
      </trkpt>
      <trkpt lat="60.097439124712" lon="15.900646354868">
        <ele>175.4</ele>
        <time>2015-02-21T12:12:09Z</time>
      </trkpt>
      <trkpt lat="60.097402328171" lon="15.900652976569">
        <ele>176</ele>
        <time>2015-02-21T12:12:11Z</time>
      </trkpt>
      <trkpt lat="60.097375757548" lon="15.900651719284">
        <ele>176.6</ele>
        <time>2015-02-21T12:12:12Z</time>
      </trkpt>
      <trkpt lat="60.097277102585" lon="15.900682564676">
        <ele>177.2</ele>
        <time>2015-02-21T12:12:16Z</time>
      </trkpt>
      <trkpt lat="60.097086665817" lon="15.900862272612">
        <ele>177.2</ele>
        <time>2015-02-21T12:12:22Z</time>
      </trkpt>
      <trkpt lat="60.096918608722" lon="15.901082632763">
        <ele>177</ele>
        <time>2015-02-21T12:12:27Z</time>
      </trkpt>
      <trkpt lat="60.096748037057" lon="15.901342471663">
        <ele>176.6</ele>
        <time>2015-02-21T12:12:33Z</time>
      </trkpt>
      <trkpt lat="60.096626415688" lon="15.901435594572">
        <ele>176.4</ele>
        <time>2015-02-21T12:12:36Z</time>
      </trkpt>
      <trkpt lat="60.096582745989" lon="15.901435259296">
        <ele>176.4</ele>
        <time>2015-02-21T12:12:37Z</time>
      </trkpt>
      <trkpt lat="60.096396500171" lon="15.901375077254">
        <ele>175.6</ele>
        <time>2015-02-21T12:12:40Z</time>
      </trkpt>
      <trkpt lat="60.096326259849" lon="15.90133937036">
        <ele>175.6</ele>
        <time>2015-02-21T12:12:41Z</time>
      </trkpt>
      <trkpt lat="60.096151078139" lon="15.90125890412">
        <ele>174.4</ele>
        <time>2015-02-21T12:12:43Z</time>
      </trkpt>
      <trkpt lat="60.096085112586" lon="15.901226382348">
        <ele>173.4</ele>
        <time>2015-02-21T12:12:44Z</time>
      </trkpt>
      <trkpt lat="60.096019230852" lon="15.901197967707">
        <ele>173</ele>
        <time>2015-02-21T12:12:45Z</time>
      </trkpt>
      <trkpt lat="60.095968687995" lon="15.901191346006">
        <ele>172</ele>
        <time>2015-02-21T12:12:46Z</time>
      </trkpt>
      <trkpt lat="60.095868272833" lon="15.901197045698">
        <ele>171</ele>
        <time>2015-02-21T12:12:48Z</time>
      </trkpt>
      <trkpt lat="60.095825608962" lon="15.901206014331">
        <ele>170.6</ele>
        <time>2015-02-21T12:12:49Z</time>
      </trkpt>
      <trkpt lat="60.095781855444" lon="15.901245241623">
        <ele>170.2</ele>
        <time>2015-02-21T12:12:50Z</time>
      </trkpt>
      <trkpt lat="60.095646152483" lon="15.901421764437">
        <ele>171</ele>
        <time>2015-02-21T12:12:54Z</time>
      </trkpt>
      <trkpt lat="60.095576247437" lon="15.901520922314">
        <ele>171.4</ele>
        <time>2015-02-21T12:12:56Z</time>
      </trkpt>
      <trkpt lat="60.095541127276" lon="15.901560987796">
        <ele>171.6</ele>
        <time>2015-02-21T12:12:57Z</time>
      </trkpt>
      <trkpt lat="60.095492260799" lon="15.901603819305">
        <ele>171.4</ele>
        <time>2015-02-21T12:12:58Z</time>
      </trkpt>
      <trkpt lat="60.095440963571" lon="15.901638939466">
        <ele>171.6</ele>
        <time>2015-02-21T12:12:59Z</time>
      </trkpt>
      <trkpt lat="60.095371309982" lon="15.901667521745">
        <ele>171.4</ele>
        <time>2015-02-21T12:13:00Z</time>
      </trkpt>
      <trkpt lat="60.095253628106" lon="15.90171907043">
        <ele>170.6</ele>
        <time>2015-02-21T12:13:02Z</time>
      </trkpt>
      <trkpt lat="60.095148435261" lon="15.901756621342">
        <ele>169.8</ele>
        <time>2015-02-21T12:13:04Z</time>
      </trkpt>
      <trkpt lat="60.095097640947" lon="15.901769864744">
        <ele>169.6</ele>
        <time>2015-02-21T12:13:05Z</time>
      </trkpt>
      <trkpt lat="60.09498591022" lon="15.901782856689">
        <ele>168.4</ele>
        <time>2015-02-21T12:13:07Z</time>
      </trkpt>
      <trkpt lat="60.094931595508" lon="15.901771708762">
        <ele>168</ele>
        <time>2015-02-21T12:13:08Z</time>
      </trkpt>
      <trkpt lat="60.094838640237" lon="15.901698702413">
        <ele>167.4</ele>
        <time>2015-02-21T12:13:10Z</time>
      </trkpt>
      <trkpt lat="60.094763203137" lon="15.90158244546">
        <ele>166.8</ele>
        <time>2015-02-21T12:13:12Z</time>
      </trkpt>
      <trkpt lat="60.094635965895" lon="15.901387314828">
        <ele>167.2</ele>
        <time>2015-02-21T12:13:16Z</time>
      </trkpt>
      <trkpt lat="60.094461119461" lon="15.901166535582">
        <ele>166.8</ele>
        <time>2015-02-21T12:13:20Z</time>
      </trkpt>
      <trkpt lat="60.094376629909" lon="15.901095876165">
        <ele>166.2</ele>
        <time>2015-02-21T12:13:22Z</time>
      </trkpt>
      <trkpt lat="60.094229527564" lon="15.900925472138">
        <ele>165.4</ele>
        <time>2015-02-21T12:13:26Z</time>
      </trkpt>
      <trkpt lat="60.094176805413" lon="15.900824470243">
        <ele>165</ele>
        <time>2015-02-21T12:13:28Z</time>
      </trkpt>
      <trkpt lat="60.093956109986" lon="15.900435885359">
        <ele>164.6</ele>
        <time>2015-02-21T12:13:35Z</time>
      </trkpt>
      <trkpt lat="60.093921073644" lon="15.90036958453">
        <ele>164.4</ele>
        <time>2015-02-21T12:13:36Z</time>
      </trkpt>
      <trkpt lat="60.093857790299" lon="15.900241173822">
        <ele>164.4</ele>
        <time>2015-02-21T12:13:38Z</time>
      </trkpt>
      <trkpt lat="60.093799787551" lon="15.900136986805">
        <ele>164.4</ele>
        <time>2015-02-21T12:13:40Z</time>
      </trkpt>
      <trkpt lat="60.093732397075" lon="15.900024669345">
        <ele>164</ele>
        <time>2015-02-21T12:13:42Z</time>
      </trkpt>
      <trkpt lat="60.093598873408" lon="15.899774134354">
        <ele>163.4</ele>
        <time>2015-02-21T12:13:46Z</time>
      </trkpt>
      <trkpt lat="60.093547995275" lon="15.899661984532">
        <ele>163.2</ele>
        <time>2015-02-21T12:13:48Z</time>
      </trkpt>
      <trkpt lat="60.093464343913" lon="15.899520078965">
        <ele>163</ele>
        <time>2015-02-21T12:13:51Z</time>
      </trkpt>
      <trkpt lat="60.09343525872" lon="15.899492251057">
        <ele>163</ele>
        <time>2015-02-21T12:13:52Z</time>
      </trkpt>
      <trkpt lat="60.093373735574" lon="15.899398792872">
        <ele>162.6</ele>
        <time>2015-02-21T12:13:54Z</time>
      </trkpt>
      <trkpt lat="60.093254042042" lon="15.899201734403">
        <ele>162</ele>
        <time>2015-02-21T12:13:58Z</time>
      </trkpt>
      <trkpt lat="60.09320810923" lon="15.89905781718">
        <ele>162</ele>
        <time>2015-02-21T12:14:00Z</time>
      </trkpt>
      <trkpt lat="60.093196039294" lon="15.89890442841">
        <ele>162.2</ele>
        <time>2015-02-21T12:14:02Z</time>
      </trkpt>
      <trkpt lat="60.093198805321" lon="15.898745423767">
        <ele>162</ele>
        <time>2015-02-21T12:14:04Z</time>
      </trkpt>
      <trkpt lat="60.093213222189" lon="15.898587760228">
        <ele>161.8</ele>
        <time>2015-02-21T12:14:06Z</time>
      </trkpt>
      <trkpt lat="60.093251946567" lon="15.898470832723">
        <ele>161.6</ele>
        <time>2015-02-21T12:14:08Z</time>
      </trkpt>
      <trkpt lat="60.09329109004" lon="15.898358934358">
        <ele>161.6</ele>
        <time>2015-02-21T12:14:10Z</time>
      </trkpt>
      <trkpt lat="60.093339369784" lon="15.898171179798">
        <ele>161.6</ele>
        <time>2015-02-21T12:14:13Z</time>
      </trkpt>
      <trkpt lat="60.093403910414" lon="15.897699865561">
        <ele>162.4</ele>
        <time>2015-02-21T12:14:20Z</time>
      </trkpt>
      <trkpt lat="60.093395193238" lon="15.897153198043">
        <ele>162.4</ele>
        <time>2015-02-21T12:14:27Z</time>
      </trkpt>
      <trkpt lat="60.09338161456" lon="15.896761092761">
        <ele>162.2</ele>
        <time>2015-02-21T12:14:32Z</time>
      </trkpt>
      <trkpt lat="60.093373903212" lon="15.896225321713">
        <ele>162.2</ele>
        <time>2015-02-21T12:14:39Z</time>
      </trkpt>
      <trkpt lat="60.093380189637" lon="15.895561642871">
        <ele>162</ele>
        <time>2015-02-21T12:14:48Z</time>
      </trkpt>
      <trkpt lat="60.093425535716" lon="15.895031822972">
        <ele>162.2</ele>
        <time>2015-02-21T12:14:56Z</time>
      </trkpt>
      <trkpt lat="60.093523855403" lon="15.894549528446">
        <ele>162.6</ele>
        <time>2015-02-21T12:15:04Z</time>
      </trkpt>
      <trkpt lat="60.09357020731" lon="15.894137222785">
        <ele>162.8</ele>
        <time>2015-02-21T12:15:10Z</time>
      </trkpt>
      <trkpt lat="60.093580684685" lon="15.894068658843">
        <ele>163</ele>
        <time>2015-02-21T12:15:11Z</time>
      </trkpt>
      <trkpt lat="60.093619911977" lon="15.893702034537">
        <ele>162.8</ele>
        <time>2015-02-21T12:15:17Z</time>
      </trkpt>
      <trkpt lat="60.093640782908" lon="15.893421995258">
        <ele>162.8</ele>
        <time>2015-02-21T12:15:22Z</time>
      </trkpt>
      <trkpt lat="60.093654613043" lon="15.893189481352">
        <ele>162.8</ele>
        <time>2015-02-21T12:15:26Z</time>
      </trkpt>
      <trkpt lat="60.093674478146" lon="15.893084539964">
        <ele>163</ele>
        <time>2015-02-21T12:15:28Z</time>
      </trkpt>
      <trkpt lat="60.093767684874" lon="15.892756807674">
        <ele>162.6</ele>
        <time>2015-02-21T12:15:34Z</time>
      </trkpt>
      <trkpt lat="60.093897269048" lon="15.892422788959">
        <ele>162.6</ele>
        <time>2015-02-21T12:15:41Z</time>
      </trkpt>
      <trkpt lat="60.093940435833" lon="15.892222042454">
        <ele>164.2</ele>
        <time>2015-02-21T12:15:47Z</time>
      </trkpt>
      <trkpt lat="60.093957618728" lon="15.89216454262">
        <ele>164.6</ele>
        <time>2015-02-21T12:15:49Z</time>
      </trkpt>
      <trkpt lat="60.093976645641" lon="15.892060439422">
        <ele>165.4</ele>
        <time>2015-02-21T12:15:52Z</time>
      </trkpt>
      <trkpt lat="60.094037749692" lon="15.891863716229">
        <ele>166.4</ele>
        <time>2015-02-21T12:15:58Z</time>
      </trkpt>
      <trkpt lat="60.094059207356" lon="15.891802528359">
        <ele>166.8</ele>
        <time>2015-02-21T12:16:00Z</time>
      </trkpt>
      <trkpt lat="60.094100530123" lon="15.891716697703">
        <ele>167.4</ele>
        <time>2015-02-21T12:16:06Z</time>
      </trkpt>
      <trkpt lat="60.094110923679" lon="15.891705465957">
        <ele>167.4</ele>
        <time>2015-02-21T12:16:07Z</time>
      </trkpt>
      <trkpt lat="60.094126346375" lon="15.891698341342">
        <ele>168.4</ele>
        <time>2015-02-21T12:16:09Z</time>
      </trkpt>
      <trkpt lat="60.094214440144" lon="15.891710578916">
        <ele>169.4</ele>
        <time>2015-02-21T12:16:15Z</time>
      </trkpt>
      <trkpt lat="60.094230365754" lon="15.891720888653">
        <ele>169.6</ele>
        <time>2015-02-21T12:16:16Z</time>
      </trkpt>
      <trkpt lat="60.094368415647" lon="15.891764893628">
        <ele>170</ele>
        <time>2015-02-21T12:16:21Z</time>
      </trkpt>
      <trkpt lat="60.094505375893" lon="15.891758104289">
        <ele>170</ele>
        <time>2015-02-21T12:16:24Z</time>
      </trkpt>
      <trkpt lat="60.0946020192" lon="15.891707645251">
        <ele>169.6</ele>
        <time>2015-02-21T12:16:26Z</time>
      </trkpt>
      <trkpt lat="60.094647784374" lon="15.891674788203">
        <ele>169.2</ele>
        <time>2015-02-21T12:16:27Z</time>
      </trkpt>
      <trkpt lat="60.09482413955" lon="15.891535564844">
        <ele>168.8</ele>
        <time>2015-02-21T12:16:32Z</time>
      </trkpt>
      <trkpt lat="60.094993789206" lon="15.891247227484">
        <ele>168.8</ele>
        <time>2015-02-21T12:16:38Z</time>
      </trkpt>
      <trkpt lat="60.095203923439" lon="15.890877501875">
        <ele>169</ele>
        <time>2015-02-21T12:16:47Z</time>
      </trkpt>
      <trkpt lat="60.095333088518" lon="15.89062227302">
        <ele>169.2</ele>
        <time>2015-02-21T12:16:52Z</time>
      </trkpt>
      <trkpt lat="60.09545781119" lon="15.890396464634">
        <ele>168.4</ele>
        <time>2015-02-21T12:16:56Z</time>
      </trkpt>
      <trkpt lat="60.095535176127" lon="15.890323206828">
        <ele>167.8</ele>
        <time>2015-02-21T12:16:59Z</time>
      </trkpt>
      <trkpt lat="60.095590915762" lon="15.890327481597">
        <ele>167.8</ele>
        <time>2015-02-21T12:17:00Z</time>
      </trkpt>
      <trkpt lat="60.095679512445" lon="15.890319183516">
        <ele>168.2</ele>
        <time>2015-02-21T12:17:02Z</time>
      </trkpt>
      <trkpt lat="60.09585259868" lon="15.89035153765">
        <ele>168.2</ele>
        <time>2015-02-21T12:17:06Z</time>
      </trkpt>
      <trkpt lat="60.095936836775" lon="15.89042362199">
        <ele>167.6</ele>
        <time>2015-02-21T12:17:08Z</time>
      </trkpt>
      <trkpt lat="60.095980757931" lon="15.890468716612">
        <ele>167.2</ele>
        <time>2015-02-21T12:17:09Z</time>
      </trkpt>
      <trkpt lat="60.096182342626" lon="15.890682287424">
        <ele>166.4</ele>
        <time>2015-02-21T12:17:14Z</time>
      </trkpt>
      <trkpt lat="60.096227604886" lon="15.890737775602">
        <ele>166.4</ele>
        <time>2015-02-21T12:17:15Z</time>
      </trkpt>
      <trkpt lat="60.096265323436" lon="15.890795862169">
        <ele>166</ele>
        <time>2015-02-21T12:17:16Z</time>
      </trkpt>
      <trkpt lat="60.096435224549" lon="15.891037679984">
        <ele>165</ele>
        <time>2015-02-21T12:17:20Z</time>
      </trkpt>
      <trkpt lat="60.096596827581" lon="15.891197187541">
        <ele>163.8</ele>
        <time>2015-02-21T12:17:24Z</time>
      </trkpt>
      <trkpt lat="60.096856498843" lon="15.89136658574">
        <ele>163.6</ele>
        <time>2015-02-21T12:17:31Z</time>
      </trkpt>
      <trkpt lat="60.097085659989" lon="15.891548137694">
        <ele>164.4</ele>
        <time>2015-02-21T12:17:38Z</time>
      </trkpt>
      <trkpt lat="60.097152212275" lon="15.891626759916">
        <ele>164.6</ele>
        <time>2015-02-21T12:17:40Z</time>
      </trkpt>
      <trkpt lat="60.097229828669" lon="15.891804791472">
        <ele>164.6</ele>
        <time>2015-02-21T12:17:43Z</time>
      </trkpt>
      <trkpt lat="60.097306523054" lon="15.89207820905">
        <ele>164.4</ele>
        <time>2015-02-21T12:17:48Z</time>
      </trkpt>
      <trkpt lat="60.097369890218" lon="15.892260263918">
        <ele>164.8</ele>
        <time>2015-02-21T12:17:52Z</time>
      </trkpt>
      <trkpt lat="60.097414817202" lon="15.892327235299">
        <ele>165.4</ele>
        <time>2015-02-21T12:17:54Z</time>
      </trkpt>
      <trkpt lat="60.097511041414" lon="15.892429578298">
        <ele>166</ele>
        <time>2015-02-21T12:17:58Z</time>
      </trkpt>
      <trkpt lat="60.097569044162" lon="15.892465201373">
        <ele>166</ele>
        <time>2015-02-21T12:18:00Z</time>
      </trkpt>
      <trkpt lat="60.097768198106" lon="15.892680448565">
        <ele>166.2</ele>
        <time>2015-02-21T12:18:07Z</time>
      </trkpt>
      <trkpt lat="60.098008171903" lon="15.892975826721">
        <ele>166.2</ele>
        <time>2015-02-21T12:18:14Z</time>
      </trkpt>
      <trkpt lat="60.098046225729" lon="15.893004157543">
        <ele>166.2</ele>
        <time>2015-02-21T12:18:15Z</time>
      </trkpt>
      <trkpt lat="60.098203386354" lon="15.893126868559">
        <ele>166.2</ele>
        <time>2015-02-21T12:18:20Z</time>
      </trkpt>
      <trkpt lat="60.098373455105" lon="15.893268857945">
        <ele>166.4</ele>
        <time>2015-02-21T12:18:25Z</time>
      </trkpt>
      <trkpt lat="60.098447215825" lon="15.893338930629">
        <ele>166.4</ele>
        <time>2015-02-21T12:18:27Z</time>
      </trkpt>
      <trkpt lat="60.09856330514" lon="15.893457785971">
        <ele>166.4</ele>
        <time>2015-02-21T12:18:30Z</time>
      </trkpt>
      <trkpt lat="60.098637401136" lon="15.893512603597">
        <ele>166.2</ele>
        <time>2015-02-21T12:18:32Z</time>
      </trkpt>
      <trkpt lat="60.098876117648" lon="15.893599104805">
        <ele>165.6</ele>
        <time>2015-02-21T12:18:38Z</time>
      </trkpt>
      <trkpt lat="60.098920206442" lon="15.893608576352">
        <ele>165.8</ele>
        <time>2015-02-21T12:18:39Z</time>
      </trkpt>
      <trkpt lat="60.099052305186" lon="15.89370932679">
        <ele>165.8</ele>
        <time>2015-02-21T12:18:43Z</time>
      </trkpt>
      <trkpt lat="60.099096058704" lon="15.893698011225">
        <ele>165.8</ele>
        <time>2015-02-21T12:18:44Z</time>
      </trkpt>
      <trkpt lat="60.099200245721" lon="15.893711338446">
        <ele>166</ele>
        <time>2015-02-21T12:18:47Z</time>
      </trkpt>
      <trkpt lat="60.099382887322" lon="15.893722570192">
        <ele>166.4</ele>
        <time>2015-02-21T12:18:52Z</time>
      </trkpt>
      <trkpt lat="60.099656807814" lon="15.893805802459">
        <ele>167</ele>
        <time>2015-02-21T12:19:00Z</time>
      </trkpt>
      <trkpt lat="60.099687820844" lon="15.89383170253">
        <ele>167</ele>
        <time>2015-02-21T12:19:01Z</time>
      </trkpt>
      <trkpt lat="60.099710200517" lon="15.893891716934">
        <ele>166.6</ele>
        <time>2015-02-21T12:19:02Z</time>
      </trkpt>
      <trkpt lat="60.099764766686" lon="15.893965561473">
        <ele>166.4</ele>
        <time>2015-02-21T12:19:04Z</time>
      </trkpt>
      <trkpt lat="60.099799467752" lon="15.893992802648">
        <ele>166.4</ele>
        <time>2015-02-21T12:19:05Z</time>
      </trkpt>
      <trkpt lat="60.099881023639" lon="15.893945444913">
        <ele>166.2</ele>
        <time>2015-02-21T12:19:08Z</time>
      </trkpt>
      <trkpt lat="60.099910527927" lon="15.89391300696">
        <ele>166.2</ele>
        <time>2015-02-21T12:19:09Z</time>
      </trkpt>
      <trkpt lat="60.100092415157" lon="15.893762216579">
        <ele>166.6</ele>
        <time>2015-02-21T12:19:15Z</time>
      </trkpt>
      <trkpt lat="60.100234739819" lon="15.893738495802">
        <ele>167</ele>
        <time>2015-02-21T12:19:19Z</time>
      </trkpt>
      <trkpt lat="60.10028410921" lon="15.893712428093">
        <ele>167</ele>
        <time>2015-02-21T12:19:20Z</time>
      </trkpt>
      <trkpt lat="60.100358037568" lon="15.89371770869">
        <ele>167</ele>
        <time>2015-02-21T12:19:22Z</time>
      </trkpt>
      <trkpt lat="60.100395756118" lon="15.89374117801">
        <ele>167</ele>
        <time>2015-02-21T12:19:23Z</time>
      </trkpt>
      <trkpt lat="60.100444454957" lon="15.893703627098">
        <ele>167</ele>
        <time>2015-02-21T12:19:24Z</time>
      </trkpt>
      <trkpt lat="60.100524418283" lon="15.893677307932">
        <ele>166.6</ele>
        <time>2015-02-21T12:19:26Z</time>
      </trkpt>
      <trkpt lat="60.100649392412" lon="15.893620059555">
        <ele>165.8</ele>
        <time>2015-02-21T12:19:29Z</time>
      </trkpt>
      <trkpt lat="60.100695828138" lon="15.893610001275">
        <ele>165.4</ele>
        <time>2015-02-21T12:19:30Z</time>
      </trkpt>
      <trkpt lat="60.100743018235" lon="15.893600613547">
        <ele>165.2</ele>
        <time>2015-02-21T12:19:31Z</time>
      </trkpt>
      <trkpt lat="60.100856257704" lon="15.893604804497">
        <ele>165.4</ele>
        <time>2015-02-21T12:19:35Z</time>
      </trkpt>
      <trkpt lat="60.100983914041" lon="15.893686947117">
        <ele>165.6</ele>
        <time>2015-02-21T12:19:40Z</time>
      </trkpt>
      <trkpt lat="60.10118935441" lon="15.893790295944">
        <ele>166</ele>
        <time>2015-02-21T12:19:47Z</time>
      </trkpt>
      <trkpt lat="60.101213242825" lon="15.893824242639">
        <ele>166</ele>
        <time>2015-02-21T12:19:48Z</time>
      </trkpt>
      <trkpt lat="60.10131424472" lon="15.893896746074">
        <ele>166</ele>
        <time>2015-02-21T12:19:51Z</time>
      </trkpt>
      <trkpt lat="60.101411726217" lon="15.893967908405">
        <ele>166</ele>
        <time>2015-02-21T12:19:54Z</time>
      </trkpt>
      <trkpt lat="60.101525552419" lon="15.894004788765">
        <ele>165.8</ele>
        <time>2015-02-21T12:19:57Z</time>
      </trkpt>
      <trkpt lat="60.101705008898" lon="15.89404125003">
        <ele>166.2</ele>
        <time>2015-02-21T12:20:03Z</time>
      </trkpt>
      <trkpt lat="60.101814225055" lon="15.894023061307">
        <ele>166.8</ele>
        <time>2015-02-21T12:20:07Z</time>
      </trkpt>
      <trkpt lat="60.101961243581" lon="15.893943768533">
        <ele>167.6</ele>
        <time>2015-02-21T12:20:12Z</time>
      </trkpt>
      <trkpt lat="60.102033244102" lon="15.893889789097">
        <ele>167.8</ele>
        <time>2015-02-21T12:20:14Z</time>
      </trkpt>
      <trkpt lat="60.102194847134" lon="15.893733215205">
        <ele>168.4</ele>
        <time>2015-02-21T12:20:19Z</time>
      </trkpt>
      <trkpt lat="60.102364748247" lon="15.893537833116">
        <ele>168.2</ele>
        <time>2015-02-21T12:20:24Z</time>
      </trkpt>
      <trkpt lat="60.102586952416" lon="15.893341445199">
        <ele>168</ele>
        <time>2015-02-21T12:20:31Z</time>
      </trkpt>
      <trkpt lat="60.102727600698" lon="15.893226194074">
        <ele>168</ele>
        <time>2015-02-21T12:20:36Z</time>
      </trkpt>
      <trkpt lat="60.102873026663" lon="15.893159725607">
        <ele>168.4</ele>
        <time>2015-02-21T12:20:40Z</time>
      </trkpt>
      <trkpt lat="60.102973693282" lon="15.893155450838">
        <ele>168.6</ele>
        <time>2015-02-21T12:20:43Z</time>
      </trkpt>
      <trkpt lat="60.103170332656" lon="15.893085294335">
        <ele>168.4</ele>
        <time>2015-02-21T12:20:49Z</time>
      </trkpt>
      <trkpt lat="60.103312573499" lon="15.893011365977">
        <ele>168</ele>
        <time>2015-02-21T12:20:53Z</time>
      </trkpt>
      <trkpt lat="60.103473757436" lon="15.892828808195">
        <ele>168.4</ele>
        <time>2015-02-21T12:20:59Z</time>
      </trkpt>
      <trkpt lat="60.10356310849" lon="15.89257357934">
        <ele>168.6</ele>
        <time>2015-02-21T12:21:03Z</time>
      </trkpt>
      <trkpt lat="60.1036544712" lon="15.892171331959">
        <ele>167.8</ele>
        <time>2015-02-21T12:21:09Z</time>
      </trkpt>
      <trkpt lat="60.103816744784" lon="15.891915684009">
        <ele>167.4</ele>
        <time>2015-02-21T12:21:14Z</time>
      </trkpt>
      <trkpt lat="60.103948005338" lon="15.891784591093">
        <ele>166.8</ele>
        <time>2015-02-21T12:21:18Z</time>
      </trkpt>
      <trkpt lat="60.104052779088" lon="15.891712087658">
        <ele>166.4</ele>
        <time>2015-02-21T12:21:21Z</time>
      </trkpt>
      <trkpt lat="60.104219159803" lon="15.891476220992">
        <ele>166</ele>
        <time>2015-02-21T12:21:27Z</time>
      </trkpt>
      <trkpt lat="60.104289651582" lon="15.89136490936">
        <ele>165.8</ele>
        <time>2015-02-21T12:21:30Z</time>
      </trkpt>
      <trkpt lat="60.104360897732" lon="15.891340350393">
        <ele>165.8</ele>
        <time>2015-02-21T12:21:32Z</time>
      </trkpt>
      <trkpt lat="60.104425270724" lon="15.891375638192">
        <ele>165.8</ele>
        <time>2015-02-21T12:21:34Z</time>
      </trkpt>
      <trkpt lat="60.104490062811" lon="15.891469096377">
        <ele>165.8</ele>
        <time>2015-02-21T12:21:36Z</time>
      </trkpt>
      <trkpt lat="60.10452283604" lon="15.89152332727">
        <ele>165.8</ele>
        <time>2015-02-21T12:21:37Z</time>
      </trkpt>
      <trkpt lat="60.104684103796" lon="15.891917025113">
        <ele>165.6</ele>
        <time>2015-02-21T12:21:44Z</time>
      </trkpt>
      <trkpt lat="60.104829865037" lon="15.892149371381">
        <ele>166</ele>
        <time>2015-02-21T12:21:50Z</time>
      </trkpt>
      <trkpt lat="60.105022481099" lon="15.892328995498">
        <ele>166.4</ele>
        <time>2015-02-21T12:21:57Z</time>
      </trkpt>
      <trkpt lat="60.105156926775" lon="15.892346010755">
        <ele>166.8</ele>
        <time>2015-02-21T12:22:02Z</time>
      </trkpt>
      <trkpt lat="60.105189448547" lon="15.892344166737">
        <ele>167</ele>
        <time>2015-02-21T12:22:03Z</time>
      </trkpt>
      <trkpt lat="60.105395224192" lon="15.89231290225">
        <ele>167.6</ele>
        <time>2015-02-21T12:22:09Z</time>
      </trkpt>
      <trkpt lat="60.105512822249" lon="15.892335449561">
        <ele>167.4</ele>
        <time>2015-02-21T12:22:12Z</time>
      </trkpt>
      <trkpt lat="60.105554228835" lon="15.892342406538">
        <ele>167.4</ele>
        <time>2015-02-21T12:22:13Z</time>
      </trkpt>
      <trkpt lat="60.105690937624" lon="15.892318937218">
        <ele>166.8</ele>
        <time>2015-02-21T12:22:17Z</time>
      </trkpt>
      <trkpt lat="60.106004672141" lon="15.892315835915">
        <ele>167.2</ele>
        <time>2015-02-21T12:22:25Z</time>
      </trkpt>
      <trkpt lat="60.106162587137" lon="15.892372329921">
        <ele>167</ele>
        <time>2015-02-21T12:22:30Z</time>
      </trkpt>
      <trkpt lat="60.106248082517" lon="15.89238163383">
        <ele>166.8</ele>
        <time>2015-02-21T12:22:32Z</time>
      </trkpt>
      <trkpt lat="60.106405159323" lon="15.892421783131">
        <ele>166.8</ele>
        <time>2015-02-21T12:22:36Z</time>
      </trkpt>
      <trkpt lat="60.106580341033" lon="15.8925350226">
        <ele>166.8</ele>
        <time>2015-02-21T12:22:42Z</time>
      </trkpt>
      <trkpt lat="60.106707662094" lon="15.892627307319">
        <ele>167.2</ele>
        <time>2015-02-21T12:22:46Z</time>
      </trkpt>
      <trkpt lat="60.106748481947" lon="15.892649938449">
        <ele>167.4</ele>
        <time>2015-02-21T12:22:47Z</time>
      </trkpt>
      <trkpt lat="60.107006812105" lon="15.892720430228">
        <ele>167</ele>
        <time>2015-02-21T12:22:54Z</time>
      </trkpt>
      <trkpt lat="60.107162463988" lon="15.892749096326">
        <ele>166.8</ele>
        <time>2015-02-21T12:22:58Z</time>
      </trkpt>
      <trkpt lat="60.107329012341" lon="15.892777343329">
        <ele>166.6</ele>
        <time>2015-02-21T12:23:02Z</time>
      </trkpt>
      <trkpt lat="60.107411825513" lon="15.892760160434">
        <ele>166.4</ele>
        <time>2015-02-21T12:23:04Z</time>
      </trkpt>
      <trkpt lat="60.107573428545" lon="15.892734428001">
        <ele>166.2</ele>
        <time>2015-02-21T12:23:08Z</time>
      </trkpt>
      <trkpt lat="60.107613577846" lon="15.892746414118">
        <ele>166</ele>
        <time>2015-02-21T12:23:09Z</time>
      </trkpt>
      <trkpt lat="60.107747101513" lon="15.89270098422">
        <ele>165.8</ele>
        <time>2015-02-21T12:23:13Z</time>
      </trkpt>
      <trkpt lat="60.107932006227" lon="15.892690506845">
        <ele>166.6</ele>
        <time>2015-02-21T12:23:18Z</time>
      </trkpt>
      <trkpt lat="60.108157730794" lon="15.892693691967">
        <ele>166.4</ele>
        <time>2015-02-21T12:23:25Z</time>
      </trkpt>
      <trkpt lat="60.108287314968" lon="15.892638622884">
        <ele>167</ele>
        <time>2015-02-21T12:23:30Z</time>
      </trkpt>
      <trkpt lat="60.10831229303" lon="15.892633509925">
        <ele>167.2</ele>
        <time>2015-02-21T12:23:31Z</time>
      </trkpt>
      <trkpt lat="60.108430142544" lon="15.892598641221">
        <ele>168</ele>
        <time>2015-02-21T12:23:36Z</time>
      </trkpt>
      <trkpt lat="60.108454198597" lon="15.892601155791">
        <ele>168</ele>
        <time>2015-02-21T12:23:37Z</time>
      </trkpt>
      <trkpt lat="60.108616807457" lon="15.892591432787">
        <ele>168.4</ele>
        <time>2015-02-21T12:23:42Z</time>
      </trkpt>
      <trkpt lat="60.108736836265" lon="15.89258028486">
        <ele>168.6</ele>
        <time>2015-02-21T12:23:46Z</time>
      </trkpt>
      <trkpt lat="60.108805903121" lon="15.892596545746">
        <ele>168.6</ele>
        <time>2015-02-21T12:23:48Z</time>
      </trkpt>
      <trkpt lat="60.109030118946" lon="15.892661002557">
        <ele>168.6</ele>
        <time>2015-02-21T12:23:55Z</time>
      </trkpt>
      <trkpt lat="60.109296831004" lon="15.892709869034">
        <ele>167.8</ele>
        <time>2015-02-21T12:24:02Z</time>
      </trkpt>
      <trkpt lat="60.109337231762" lon="15.892734428001">
        <ele>167.8</ele>
        <time>2015-02-21T12:24:03Z</time>
      </trkpt>
      <trkpt lat="60.109378051615" lon="15.892729734137">
        <ele>167.8</ele>
        <time>2015-02-21T12:24:04Z</time>
      </trkpt>
      <trkpt lat="60.109557927189" lon="15.892757897321">
        <ele>167</ele>
        <time>2015-02-21T12:24:08Z</time>
      </trkpt>
      <trkpt lat="60.109601513069" lon="15.892765860126">
        <ele>166.8</ele>
        <time>2015-02-21T12:24:09Z</time>
      </trkpt>
      <trkpt lat="60.109789351448" lon="15.892740127693">
        <ele>165.8</ele>
        <time>2015-02-21T12:24:14Z</time>
      </trkpt>
      <trkpt lat="60.109872751353" lon="15.892684974791">
        <ele>166</ele>
        <time>2015-02-21T12:24:16Z</time>
      </trkpt>
      <trkpt lat="60.110043071561" lon="15.892559162472">
        <ele>166.2</ele>
        <time>2015-02-21T12:24:20Z</time>
      </trkpt>
      <trkpt lat="60.11012026886" lon="15.892536447523">
        <ele>166</ele>
        <time>2015-02-21T12:24:22Z</time>
      </trkpt>
      <trkpt lat="60.110255468907" lon="15.892637868513">
        <ele>166</ele>
        <time>2015-02-21T12:24:26Z</time>
      </trkpt>
      <trkpt lat="60.11037424043" lon="15.892985549725">
        <ele>166.2</ele>
        <time>2015-02-21T12:24:32Z</time>
      </trkpt>
      <trkpt lat="60.110470967556" lon="15.893452170098">
        <ele>165.6</ele>
        <time>2015-02-21T12:24:39Z</time>
      </trkpt>
      <trkpt lat="60.110563755189" lon="15.893775962895">
        <ele>165.8</ele>
        <time>2015-02-21T12:24:44Z</time>
      </trkpt>
      <trkpt lat="60.110698033227" lon="15.894131606912">
        <ele>165.8</ele>
        <time>2015-02-21T12:24:50Z</time>
      </trkpt>
      <trkpt lat="60.110872628204" lon="15.894565789332">
        <ele>165.4</ele>
        <time>2015-02-21T12:24:58Z</time>
      </trkpt>
      <trkpt lat="60.110995087763" lon="15.894926211032">
        <ele>165.6</ele>
        <time>2015-02-21T12:25:04Z</time>
      </trkpt>
      <trkpt lat="60.111056610909" lon="15.895022099968">
        <ele>165.6</ele>
        <time>2015-02-21T12:25:06Z</time>
      </trkpt>
      <trkpt lat="60.11114705161" lon="15.895130310297">
        <ele>165.6</ele>
        <time>2015-02-21T12:25:09Z</time>
      </trkpt>
      <trkpt lat="60.111350061228" lon="15.895257631358">
        <ele>165.6</ele>
        <time>2015-02-21T12:25:15Z</time>
      </trkpt>
      <trkpt lat="60.111395742583" lon="15.895264839792">
        <ele>165.6</ele>
        <time>2015-02-21T12:25:16Z</time>
      </trkpt>
      <trkpt lat="60.111561033651" lon="15.895269282199">
        <ele>165.4</ele>
        <time>2015-02-21T12:25:20Z</time>
      </trkpt>
      <trkpt lat="60.111628424127" lon="15.895269952751">
        <ele>165.2</ele>
        <time>2015-02-21T12:25:22Z</time>
      </trkpt>
      <trkpt lat="60.111857249997" lon="15.895285459266">
        <ele>165.4</ele>
        <time>2015-02-21T12:25:29Z</time>
      </trkpt>
      <trkpt lat="60.112062690366" lon="15.895220080446">
        <ele>165.4</ele>
        <time>2015-02-21T12:25:34Z</time>
      </trkpt>
      <trkpt lat="60.112273914246" lon="15.895084126028">
        <ele>165.4</ele>
        <time>2015-02-21T12:25:40Z</time>
      </trkpt>
      <trkpt lat="60.112557809199" lon="15.895037355026">
        <ele>165.8</ele>
        <time>2015-02-21T12:25:47Z</time>
      </trkpt>
      <trkpt lat="60.112723603181" lon="15.894930150525">
        <ele>165.6</ele>
        <time>2015-02-21T12:25:52Z</time>
      </trkpt>
      <trkpt lat="60.112882524005" lon="15.894628234487">
        <ele>165.2</ele>
        <time>2015-02-21T12:25:58Z</time>
      </trkpt>
      <trkpt lat="60.112987046298" lon="15.894166224159">
        <ele>165.4</ele>
        <time>2015-02-21T12:26:05Z</time>
      </trkpt>
      <trkpt lat="60.113061142294" lon="15.893695245198">
        <ele>165.4</ele>
        <time>2015-02-21T12:26:12Z</time>
      </trkpt>
      <trkpt lat="60.113163233836" lon="15.893160144702">
        <ele>165.2</ele>
        <time>2015-02-21T12:26:20Z</time>
      </trkpt>
      <trkpt lat="60.113283430282" lon="15.892810451834">
        <ele>165.8</ele>
        <time>2015-02-21T12:26:26Z</time>
      </trkpt>
      <trkpt lat="60.113404213461" lon="15.892432260506">
        <ele>165.6</ele>
        <time>2015-02-21T12:26:32Z</time>
      </trkpt>
      <trkpt lat="60.113497420189" lon="15.892087261502">
        <ele>165.6</ele>
        <time>2015-02-21T12:26:38Z</time>
      </trkpt>
      <trkpt lat="60.113593057668" lon="15.891616785455">
        <ele>166</ele>
        <time>2015-02-21T12:26:45Z</time>
      </trkpt>
      <trkpt lat="60.113638822842" lon="15.891494912629">
        <ele>166</ele>
        <time>2015-02-21T12:26:47Z</time>
      </trkpt>
      <trkpt lat="60.113687437862" lon="15.891398353141">
        <ele>165.8</ele>
        <time>2015-02-21T12:26:49Z</time>
      </trkpt>
      <trkpt lat="60.113966555132" lon="15.890973306992">
        <ele>166.4</ele>
        <time>2015-02-21T12:26:59Z</time>
      </trkpt>
      <trkpt lat="60.114239218339" lon="15.89066418252">
        <ele>166.4</ele>
        <time>2015-02-21T12:27:07Z</time>
      </trkpt>
      <trkpt lat="60.114337118931" lon="15.890565108462">
        <ele>166.4</ele>
        <time>2015-02-21T12:27:10Z</time>
      </trkpt>
      <trkpt lat="60.114485394742" lon="15.8904479295">
        <ele>166.2</ele>
        <time>2015-02-21T12:27:14Z</time>
      </trkpt>
      <trkpt lat="60.114555551245" lon="15.890381544852">
        <ele>166.2</ele>
        <time>2015-02-21T12:27:16Z</time>
      </trkpt>
      <trkpt lat="60.114627300309" lon="15.890309711969">
        <ele>166</ele>
        <time>2015-02-21T12:27:18Z</time>
      </trkpt>
      <trkpt lat="60.114697037717" lon="15.890254642886">
        <ele>166</ele>
        <time>2015-02-21T12:27:20Z</time>
      </trkpt>
      <trkpt lat="60.114908345416" lon="15.89005649477">
        <ele>166.2</ele>
        <time>2015-02-21T12:27:27Z</time>
      </trkpt>
      <trkpt lat="60.115111019758" lon="15.889809144901">
        <ele>166.4</ele>
        <time>2015-02-21T12:27:34Z</time>
      </trkpt>
      <trkpt lat="60.115290979151" lon="15.889490800339">
        <ele>166.2</ele>
        <time>2015-02-21T12:27:40Z</time>
      </trkpt>
      <trkpt lat="60.115473536933" lon="15.88890063076">
        <ele>165.6</ele>
        <time>2015-02-21T12:27:49Z</time>
      </trkpt>
      <trkpt lat="60.115568755317" lon="15.888566947321">
        <ele>166</ele>
        <time>2015-02-21T12:27:55Z</time>
      </trkpt>
      <trkpt lat="60.11570261426" lon="15.888188085441">
        <ele>166.6</ele>
        <time>2015-02-21T12:28:02Z</time>
      </trkpt>
      <trkpt lat="60.115946779007" lon="15.887779383997">
        <ele>166.6</ele>
        <time>2015-02-21T12:28:11Z</time>
      </trkpt>
      <trkpt lat="60.116087175832" lon="15.887635885869">
        <ele>166.4</ele>
        <time>2015-02-21T12:28:17Z</time>
      </trkpt>
      <trkpt lat="60.116178538542" lon="15.887592635265">
        <ele>167</ele>
        <time>2015-02-21T12:28:21Z</time>
      </trkpt>
      <trkpt lat="60.116253388909" lon="15.887593557274">
        <ele>167.8</ele>
        <time>2015-02-21T12:28:24Z</time>
      </trkpt>
      <trkpt lat="60.116281971188" lon="15.887592802903">
        <ele>168</ele>
        <time>2015-02-21T12:28:25Z</time>
      </trkpt>
      <trkpt lat="60.116489171756" lon="15.887699336852">
        <ele>169.2</ele>
        <time>2015-02-21T12:28:32Z</time>
      </trkpt>
      <trkpt lat="60.116691091727" lon="15.887773097572">
        <ele>168.6</ele>
        <time>2015-02-21T12:28:38Z</time>
      </trkpt>
      <trkpt lat="60.116906506557" lon="15.887593389636">
        <ele>168.4</ele>
        <time>2015-02-21T12:28:44Z</time>
      </trkpt>
      <trkpt lat="60.117125525604" lon="15.887240846922">
        <ele>168.8</ele>
        <time>2015-02-21T12:28:54Z</time>
      </trkpt>
      <trkpt lat="60.117222420368" lon="15.887040184236">
        <ele>169.8</ele>
        <time>2015-02-21T12:29:00Z</time>
      </trkpt>
      <trkpt lat="60.117272627949" lon="15.88696357367">
        <ele>169.8</ele>
        <time>2015-02-21T12:29:02Z</time>
      </trkpt>
      <trkpt lat="60.117365667039" lon="15.886850501839">
        <ele>170</ele>
        <time>2015-02-21T12:29:05Z</time>
      </trkpt>
      <trkpt lat="60.11752232475" lon="15.886554117855">
        <ele>169.2</ele>
        <time>2015-02-21T12:29:10Z</time>
      </trkpt>
      <trkpt lat="60.117684682153" lon="15.886185314255">
        <ele>169</ele>
        <time>2015-02-21T12:29:16Z</time>
      </trkpt>
      <trkpt lat="60.117738242494" lon="15.886062938515">
        <ele>169.2</ele>
        <time>2015-02-21T12:29:18Z</time>
      </trkpt>
      <trkpt lat="60.11790034844" lon="15.885637221814">
        <ele>168.8</ele>
        <time>2015-02-21T12:29:26Z</time>
      </trkpt>
      <trkpt lat="60.118021466895" lon="15.885335892509">
        <ele>169.2</ele>
        <time>2015-02-21T12:29:32Z</time>
      </trkpt>
      <trkpt lat="60.118155912571" lon="15.885113520702">
        <ele>169.4</ele>
        <time>2015-02-21T12:29:37Z</time>
      </trkpt>
      <trkpt lat="60.118306451495" lon="15.884854939087">
        <ele>170.4</ele>
        <time>2015-02-21T12:29:44Z</time>
      </trkpt>
      <trkpt lat="60.118326903331" lon="15.884816382347">
        <ele>170.4</ele>
        <time>2015-02-21T12:29:45Z</time>
      </trkpt>
      <trkpt lat="60.118457912428" lon="15.884606918666">
        <ele>170.6</ele>
        <time>2015-02-21T12:29:51Z</time>
      </trkpt>
      <trkpt lat="60.118573666467" lon="15.884368621249">
        <ele>170.6</ele>
        <time>2015-02-21T12:29:57Z</time>
      </trkpt>
      <trkpt lat="60.118705094659" lon="15.884098724069">
        <ele>171</ele>
        <time>2015-02-21T12:30:04Z</time>
      </trkpt>
      <trkpt lat="60.118855717402" lon="15.883861600118">
        <ele>171.4</ele>
        <time>2015-02-21T12:30:10Z</time>
      </trkpt>
      <trkpt lat="60.118927047371" lon="15.883780882421">
        <ele>171.6</ele>
        <time>2015-02-21T12:30:12Z</time>
      </trkpt>
      <trkpt lat="60.119207505745" lon="15.88341719178">
        <ele>171.4</ele>
        <time>2015-02-21T12:30:21Z</time>
      </trkpt>
      <trkpt lat="60.119407246422" lon="15.882995498391">
        <ele>171.2</ele>
        <time>2015-02-21T12:30:29Z</time>
      </trkpt>
      <trkpt lat="60.119492155069" lon="15.882808917297">
        <ele>171</ele>
        <time>2015-02-21T12:30:32Z</time>
      </trkpt>
      <trkpt lat="60.119615871913" lon="15.882575565201">
        <ele>171</ele>
        <time>2015-02-21T12:30:36Z</time>
      </trkpt>
      <trkpt lat="60.119817624246" lon="15.882116823814">
        <ele>171.2</ele>
        <time>2015-02-21T12:30:44Z</time>
      </trkpt>
      <trkpt lat="60.12008131882" lon="15.881619944782">
        <ele>171.6</ele>
        <time>2015-02-21T12:30:54Z</time>
      </trkpt>
      <trkpt lat="60.120348198516" lon="15.881197748479">
        <ele>171.8</ele>
        <time>2015-02-21T12:31:03Z</time>
      </trkpt>
      <trkpt lat="60.12050544296" lon="15.880869261818">
        <ele>171.8</ele>
        <time>2015-02-21T12:31:10Z</time>
      </trkpt>
      <trkpt lat="60.120567049925" lon="15.880715537772">
        <ele>172.8</ele>
        <time>2015-02-21T12:31:16Z</time>
      </trkpt>
      <trkpt lat="60.120539138198" lon="15.880718471437">
        <ele>174.6</ele>
        <time>2015-02-21T12:31:21Z</time>
      </trkpt>
      <trkpt lat="60.120526481529" lon="15.880738252721">
        <ele>174.6</ele>
        <time>2015-02-21T12:31:22Z</time>
      </trkpt>
      <trkpt lat="60.120424557625" lon="15.880903543789">
        <ele>174.6</ele>
        <time>2015-02-21T12:31:26Z</time>
      </trkpt>
      <trkpt lat="60.12019531266" lon="15.881305120618">
        <ele>173</ele>
        <time>2015-02-21T12:31:34Z</time>
      </trkpt>
      <trkpt lat="60.12016597601" lon="15.881342922987">
        <ele>172.8</ele>
        <time>2015-02-21T12:31:35Z</time>
      </trkpt>
      <trkpt lat="60.11999582344" lon="15.881580885128">
        <ele>172.2</ele>
        <time>2015-02-21T12:31:40Z</time>
      </trkpt>
      <trkpt lat="60.119886942559" lon="15.881771657172">
        <ele>171.8</ele>
        <time>2015-02-21T12:31:44Z</time>
      </trkpt>
      <trkpt lat="60.119843440498" lon="15.881854302706">
        <ele>171.8</ele>
        <time>2015-02-21T12:31:46Z</time>
      </trkpt>
      <trkpt lat="60.119592234955" lon="15.882347912797">
        <ele>171.6</ele>
        <time>2015-02-21T12:31:56Z</time>
      </trkpt>
      <trkpt lat="60.119436666891" lon="15.882676650915">
        <ele>171.6</ele>
        <time>2015-02-21T12:32:02Z</time>
      </trkpt>
      <trkpt lat="60.119230304513" lon="15.883095578277">
        <ele>171</ele>
        <time>2015-02-21T12:32:10Z</time>
      </trkpt>
      <trkpt lat="60.119081525788" lon="15.883389866786">
        <ele>171.2</ele>
        <time>2015-02-21T12:32:16Z</time>
      </trkpt>
      <trkpt lat="60.118872900297" lon="15.883703266027">
        <ele>171.2</ele>
        <time>2015-02-21T12:32:24Z</time>
      </trkpt>
      <trkpt lat="60.118655976725" lon="15.884042816796">
        <ele>171</ele>
        <time>2015-02-21T12:32:32Z</time>
      </trkpt>
      <trkpt lat="60.118510215484" lon="15.884309947949">
        <ele>171.4</ele>
        <time>2015-02-21T12:32:38Z</time>
      </trkpt>
      <trkpt lat="60.118309720436" lon="15.884628963063">
        <ele>170.8</ele>
        <time>2015-02-21T12:32:45Z</time>
      </trkpt>
      <trkpt lat="60.118283652727" lon="15.884680679386">
        <ele>170.6</ele>
        <time>2015-02-21T12:32:46Z</time>
      </trkpt>
      <trkpt lat="60.118105621171" lon="15.884958539371">
        <ele>170.2</ele>
        <time>2015-02-21T12:32:52Z</time>
      </trkpt>
      <trkpt lat="60.117890793074" lon="15.885302951642">
        <ele>170</ele>
        <time>2015-02-21T12:32:59Z</time>
      </trkpt>
      <trkpt lat="60.117811751757" lon="15.885463045932">
        <ele>169.4</ele>
        <time>2015-02-21T12:33:02Z</time>
      </trkpt>
      <trkpt lat="60.117776463958" lon="15.885553067538">
        <ele>169.4</ele>
        <time>2015-02-21T12:33:04Z</time>
      </trkpt>
      <trkpt lat="60.117663392127" lon="15.885831011342">
        <ele>169.4</ele>
        <time>2015-02-21T12:33:09Z</time>
      </trkpt>
      <trkpt lat="60.117518301438" lon="15.886144997316">
        <ele>169.4</ele>
        <time>2015-02-21T12:33:15Z</time>
      </trkpt>
      <trkpt lat="60.117390226006" lon="15.886448589734">
        <ele>169</ele>
        <time>2015-02-21T12:33:21Z</time>
      </trkpt>
      <trkpt lat="60.117259803642" lon="15.886652856637">
        <ele>169.2</ele>
        <time>2015-02-21T12:33:26Z</time>
      </trkpt>
      <trkpt lat="60.117056710205" lon="15.886934488477">
        <ele>169.6</ele>
        <time>2015-02-21T12:33:34Z</time>
      </trkpt>
      <trkpt lat="60.116941542899" lon="15.887136576086">
        <ele>170</ele>
        <time>2015-02-21T12:33:39Z</time>
      </trkpt>
      <trkpt lat="60.116707771708" lon="15.887473109371">
        <ele>168.6</ele>
        <time>2015-02-21T12:33:46Z</time>
      </trkpt>
      <trkpt lat="60.116674160289" lon="15.887515689423">
        <ele>168.4</ele>
        <time>2015-02-21T12:33:47Z</time>
      </trkpt>
      <trkpt lat="60.116501157873" lon="15.887643513398">
        <ele>168</ele>
        <time>2015-02-21T12:33:52Z</time>
      </trkpt>
      <trkpt lat="60.116460505658" lon="15.887647871986">
        <ele>168</ele>
        <time>2015-02-21T12:33:53Z</time>
      </trkpt>
      <trkpt lat="60.116310050553" lon="15.887608644694">
        <ele>168.2</ele>
        <time>2015-02-21T12:33:58Z</time>
      </trkpt>
      <trkpt lat="60.116115925749" lon="15.887513342491">
        <ele>168.6</ele>
        <time>2015-02-21T12:34:04Z</time>
      </trkpt>
      <trkpt lat="60.116032609663" lon="15.887502362202">
        <ele>168.8</ele>
        <time>2015-02-21T12:34:06Z</time>
      </trkpt>
      <trkpt lat="60.115897577254" lon="15.887557096009">
        <ele>168.4</ele>
        <time>2015-02-21T12:34:10Z</time>
      </trkpt>
      <trkpt lat="60.115827923665" lon="15.887629264168">
        <ele>168.2</ele>
        <time>2015-02-21T12:34:12Z</time>
      </trkpt>
      <trkpt lat="60.115767657804" lon="15.887722806172">
        <ele>168</ele>
        <time>2015-02-21T12:34:14Z</time>
      </trkpt>
      <trkpt lat="60.115644360055" lon="15.887942663409">
        <ele>167.4</ele>
        <time>2015-02-21T12:34:18Z</time>
      </trkpt>
      <trkpt lat="60.115598762519" lon="15.888050035548">
        <ele>167</ele>
        <time>2015-02-21T12:34:20Z</time>
      </trkpt>
      <trkpt lat="60.11549893409" lon="15.888325380963">
        <ele>166.8</ele>
        <time>2015-02-21T12:34:25Z</time>
      </trkpt>
      <trkpt lat="60.115398770385" lon="15.888623776603">
        <ele>166</ele>
        <time>2015-02-21T12:34:30Z</time>
      </trkpt>
      <trkpt lat="60.115330290262" lon="15.888816476484">
        <ele>165.6</ele>
        <time>2015-02-21T12:34:33Z</time>
      </trkpt>
      <trkpt lat="60.115251248945" lon="15.889066927656">
        <ele>165.4</ele>
        <time>2015-02-21T12:34:37Z</time>
      </trkpt>
      <trkpt lat="60.115171620895" lon="15.889243953384">
        <ele>165.4</ele>
        <time>2015-02-21T12:34:40Z</time>
      </trkpt>
      <trkpt lat="60.115088807723" lon="15.889411591384">
        <ele>165.6</ele>
        <time>2015-02-21T12:34:43Z</time>
      </trkpt>
      <trkpt lat="60.114932904383" lon="15.889663299841">
        <ele>165.4</ele>
        <time>2015-02-21T12:34:49Z</time>
      </trkpt>
      <trkpt lat="60.114794519214" lon="15.88990142962">
        <ele>165.8</ele>
        <time>2015-02-21T12:34:55Z</time>
      </trkpt>
      <trkpt lat="60.114654960579" lon="15.890081808108">
        <ele>165.8</ele>
        <time>2015-02-21T12:35:00Z</time>
      </trkpt>
      <trkpt lat="60.114464020897" lon="15.890217091974">
        <ele>165.8</ele>
        <time>2015-02-21T12:35:06Z</time>
      </trkpt>
      <trkpt lat="60.114278613269" lon="15.890373665866">
        <ele>165.6</ele>
        <time>2015-02-21T12:35:12Z</time>
      </trkpt>
      <trkpt lat="60.114226980765" lon="15.890435189012">
        <ele>165.6</ele>
        <time>2015-02-21T12:35:14Z</time>
      </trkpt>
      <trkpt lat="60.11412011154" lon="15.890563515901">
        <ele>165.8</ele>
        <time>2015-02-21T12:35:17Z</time>
      </trkpt>
      <trkpt lat="60.114001172379" lon="15.890685640184">
        <ele>165.8</ele>
        <time>2015-02-21T12:35:21Z</time>
      </trkpt>
      <trkpt lat="60.1138552435" lon="15.890848332863">
        <ele>165.8</ele>
        <time>2015-02-21T12:35:26Z</time>
      </trkpt>
      <trkpt lat="60.113569839805" lon="15.891275558306">
        <ele>165.6</ele>
        <time>2015-02-21T12:35:36Z</time>
      </trkpt>
      <trkpt lat="60.113441261459" lon="15.891668669416">
        <ele>165.6</ele>
        <time>2015-02-21T12:35:43Z</time>
      </trkpt>
      <trkpt lat="60.113334140777" lon="15.892109724994">
        <ele>165</ele>
        <time>2015-02-21T12:35:50Z</time>
      </trkpt>
      <trkpt lat="60.113316622606" lon="15.892170074674">
        <ele>165</ele>
        <time>2015-02-21T12:35:51Z</time>
      </trkpt>
      <trkpt lat="60.113196342341" lon="15.892566454725">
        <ele>165.2</ele>
        <time>2015-02-21T12:35:58Z</time>
      </trkpt>
      <trkpt lat="60.11309165241" lon="15.892934755411">
        <ele>165.2</ele>
        <time>2015-02-21T12:36:03Z</time>
      </trkpt>
      <trkpt lat="60.113034152576" lon="15.893129131672">
        <ele>165.2</ele>
        <time>2015-02-21T12:36:06Z</time>
      </trkpt>
      <trkpt lat="60.113011940541" lon="15.893201802745">
        <ele>165.2</ele>
        <time>2015-02-21T12:36:07Z</time>
      </trkpt>
      <trkpt lat="60.112951507042" lon="15.89346289893">
        <ele>165.4</ele>
        <time>2015-02-21T12:36:11Z</time>
      </trkpt>
      <trkpt lat="60.11288545767" lon="15.893890794925">
        <ele>165.4</ele>
        <time>2015-02-21T12:36:17Z</time>
      </trkpt>
      <trkpt lat="60.112865005834" lon="15.893971428803">
        <ele>165.4</ele>
        <time>2015-02-21T12:36:18Z</time>
      </trkpt>
      <trkpt lat="60.112816558452" lon="15.894242247992">
        <ele>165.2</ele>
        <time>2015-02-21T12:36:22Z</time>
      </trkpt>
      <trkpt lat="60.112684962622" lon="15.894639633871">
        <ele>165</ele>
        <time>2015-02-21T12:36:29Z</time>
      </trkpt>
      <trkpt lat="60.112519839192" lon="15.894885642636">
        <ele>165.2</ele>
        <time>2015-02-21T12:36:35Z</time>
      </trkpt>
      <trkpt lat="60.112485892497" lon="15.894886816102">
        <ele>165.2</ele>
        <time>2015-02-21T12:36:36Z</time>
      </trkpt>
      <trkpt lat="60.112396206167" lon="15.894899388952">
        <ele>165.2</ele>
        <time>2015-02-21T12:36:39Z</time>
      </trkpt>
      <trkpt lat="60.112239380818" lon="15.894924199376">
        <ele>165.4</ele>
        <time>2015-02-21T12:36:44Z</time>
      </trkpt>
      <trkpt lat="60.112003849428" lon="15.895013382792">
        <ele>165.6</ele>
        <time>2015-02-21T12:36:51Z</time>
      </trkpt>
      <trkpt lat="60.111829002994" lon="15.895092172652">
        <ele>165.6</ele>
        <time>2015-02-21T12:36:56Z</time>
      </trkpt>
      <trkpt lat="60.111571259569" lon="15.895103907312">
        <ele>165.6</ele>
        <time>2015-02-21T12:37:04Z</time>
      </trkpt>
      <trkpt lat="60.111487692026" lon="15.895098542896">
        <ele>165.8</ele>
        <time>2015-02-21T12:37:06Z</time>
      </trkpt>
      <trkpt lat="60.111338578025" lon="15.895082784924">
        <ele>165.8</ele>
        <time>2015-02-21T12:37:10Z</time>
      </trkpt>
      <trkpt lat="60.111137160968" lon="15.8950076831">
        <ele>165.8</ele>
        <time>2015-02-21T12:37:16Z</time>
      </trkpt>
      <trkpt lat="60.110997099419" lon="15.894863095325">
        <ele>165.8</ele>
        <time>2015-02-21T12:37:21Z</time>
      </trkpt>
      <trkpt lat="60.110948065304" lon="15.89479310646">
        <ele>166</ele>
        <time>2015-02-21T12:37:23Z</time>
      </trkpt>
      <trkpt lat="60.110876232421" lon="15.894642651355">
        <ele>166</ele>
        <time>2015-02-21T12:37:26Z</time>
      </trkpt>
      <trkpt lat="60.110794844172" lon="15.894339394213">
        <ele>166</ele>
        <time>2015-02-21T12:37:32Z</time>
      </trkpt>
      <trkpt lat="60.110727788972" lon="15.894029683008">
        <ele>166.4</ele>
        <time>2015-02-21T12:37:38Z</time>
      </trkpt>
      <trkpt lat="60.110602311929" lon="15.893719301251">
        <ele>166.4</ele>
        <time>2015-02-21T12:37:45Z</time>
      </trkpt>
      <trkpt lat="60.110492592858" lon="15.893376649179">
        <ele>166.6</ele>
        <time>2015-02-21T12:37:52Z</time>
      </trkpt>
      <trkpt lat="60.110344400866" lon="15.892779857899">
        <ele>166.8</ele>
        <time>2015-02-21T12:38:02Z</time>
      </trkpt>
      <trkpt lat="60.110245913541" lon="15.892482300449">
        <ele>166.8</ele>
        <time>2015-02-21T12:38:07Z</time>
      </trkpt>
      <trkpt lat="60.110159412333" lon="15.892383058753">
        <ele>166.8</ele>
        <time>2015-02-21T12:38:10Z</time>
      </trkpt>
      <trkpt lat="60.110128566941" lon="15.892359505614">
        <ele>167</ele>
        <time>2015-02-21T12:38:11Z</time>
      </trkpt>
      <trkpt lat="60.10996688009" lon="15.892390267187">
        <ele>167</ele>
        <time>2015-02-21T12:38:16Z</time>
      </trkpt>
      <trkpt lat="60.109747106672" lon="15.892542901586">
        <ele>167</ele>
        <time>2015-02-21T12:38:23Z</time>
      </trkpt>
      <trkpt lat="60.109555077343" lon="15.892540387016">
        <ele>167</ele>
        <time>2015-02-21T12:38:29Z</time>
      </trkpt>
      <trkpt lat="60.109343518187" lon="15.89249227491">
        <ele>167.6</ele>
        <time>2015-02-21T12:38:36Z</time>
      </trkpt>
      <trkpt lat="60.109142352587" lon="15.892479785879">
        <ele>168</ele>
        <time>2015-02-21T12:38:44Z</time>
      </trkpt>
      <trkpt lat="60.109114776136" lon="15.892481797535">
        <ele>168.2</ele>
        <time>2015-02-21T12:38:45Z</time>
      </trkpt>
      <trkpt lat="60.108943785376" lon="15.892473331816">
        <ele>168.8</ele>
        <time>2015-02-21T12:38:51Z</time>
      </trkpt>
      <trkpt lat="60.108790648063" lon="15.89246629102">
        <ele>169.2</ele>
        <time>2015-02-21T12:38:56Z</time>
      </trkpt>
      <trkpt lat="60.108684030295" lon="15.892462183889">
        <ele>169.2</ele>
        <time>2015-02-21T12:39:00Z</time>
      </trkpt>
      <trkpt lat="60.108535419208" lon="15.892452796161">
        <ele>169.4</ele>
        <time>2015-02-21T12:39:04Z</time>
      </trkpt>
      <trkpt lat="60.108332325771" lon="15.892469895237">
        <ele>169.8</ele>
        <time>2015-02-21T12:39:10Z</time>
      </trkpt>
      <trkpt lat="60.108168543445" lon="15.892455478369">
        <ele>169.8</ele>
        <time>2015-02-21T12:39:14Z</time>
      </trkpt>
      <trkpt lat="60.108126969221" lon="15.892458076758">
        <ele>169.8</ele>
        <time>2015-02-21T12:39:15Z</time>
      </trkpt>
      <trkpt lat="60.107908117812" lon="15.892488503055">
        <ele>168</ele>
        <time>2015-02-21T12:39:20Z</time>
      </trkpt>
      <trkpt lat="60.10783284835" lon="15.89248724577">
        <ele>166.8</ele>
        <time>2015-02-21T12:39:22Z</time>
      </trkpt>
      <trkpt lat="60.107797225275" lon="15.892479366784">
        <ele>166.6</ele>
        <time>2015-02-21T12:39:23Z</time>
      </trkpt>
      <trkpt lat="60.107642411582" lon="15.892465201373">
        <ele>166.6</ele>
        <time>2015-02-21T12:39:27Z</time>
      </trkpt>
      <trkpt lat="60.107344351218" lon="15.892495460032">
        <ele>167</ele>
        <time>2015-02-21T12:39:35Z</time>
      </trkpt>
      <trkpt lat="60.107169337146" lon="15.892516917696">
        <ele>166.8</ele>
        <time>2015-02-21T12:39:40Z</time>
      </trkpt>
      <trkpt lat="60.106942271475" lon="15.8925182588">
        <ele>167</ele>
        <time>2015-02-21T12:39:47Z</time>
      </trkpt>
      <trkpt lat="60.106724425894" lon="15.892456987111">
        <ele>167.6</ele>
        <time>2015-02-21T12:39:54Z</time>
      </trkpt>
      <trkpt lat="60.106492414902" lon="15.892372832835">
        <ele>168</ele>
        <time>2015-02-21T12:40:01Z</time>
      </trkpt>
      <trkpt lat="60.10639786707" lon="15.892291444586">
        <ele>168</ele>
        <time>2015-02-21T12:40:04Z</time>
      </trkpt>
      <trkpt lat="60.106316143545" lon="15.892237213693">
        <ele>168.2</ele>
        <time>2015-02-21T12:40:06Z</time>
      </trkpt>
      <trkpt lat="60.106058735396" lon="15.89215448434">
        <ele>167.2</ele>
        <time>2015-02-21T12:40:13Z</time>
      </trkpt>
      <trkpt lat="60.105891516491" lon="15.892159094385">
        <ele>167.4</ele>
        <time>2015-02-21T12:40:18Z</time>
      </trkpt>
      <trkpt lat="60.105683813009" lon="15.892147024449">
        <ele>168.2</ele>
        <time>2015-02-21T12:40:24Z</time>
      </trkpt>
      <trkpt lat="60.105469320188" lon="15.892171834873">
        <ele>168</ele>
        <time>2015-02-21T12:40:30Z</time>
      </trkpt>
      <trkpt lat="60.105250552598" lon="15.892192789623">
        <ele>168.2</ele>
        <time>2015-02-21T12:40:37Z</time>
      </trkpt>
      <trkpt lat="60.104993563544" lon="15.892201590618">
        <ele>168.6</ele>
        <time>2015-02-21T12:40:45Z</time>
      </trkpt>
      <trkpt lat="60.104831038503" lon="15.892075191566">
        <ele>168.4</ele>
        <time>2015-02-21T12:40:50Z</time>
      </trkpt>
      <trkpt lat="60.10476591114" lon="15.891966478323">
        <ele>168.2</ele>
        <time>2015-02-21T12:40:52Z</time>
      </trkpt>
      <trkpt lat="60.104654934784" lon="15.891764390714">
        <ele>167.6</ele>
        <time>2015-02-21T12:40:56Z</time>
      </trkpt>
      <trkpt lat="60.104491068639" lon="15.891398017865">
        <ele>166.8</ele>
        <time>2015-02-21T12:41:03Z</time>
      </trkpt>
      <trkpt lat="60.104475645943" lon="15.891349151388">
        <ele>166.6</ele>
        <time>2015-02-21T12:41:04Z</time>
      </trkpt>
      <trkpt lat="60.104317144214" lon="15.891179250275">
        <ele>167</ele>
        <time>2015-02-21T12:41:10Z</time>
      </trkpt>
      <trkpt lat="60.104139531753" lon="15.891291903011">
        <ele>167.2</ele>
        <time>2015-02-21T12:41:16Z</time>
      </trkpt>
      <trkpt lat="60.103951106641" lon="15.891576049421">
        <ele>167</ele>
        <time>2015-02-21T12:41:23Z</time>
      </trkpt>
      <trkpt lat="60.103752287973" lon="15.891690043261">
        <ele>167.2</ele>
        <time>2015-02-21T12:41:29Z</time>
      </trkpt>
      <trkpt lat="60.103621362695" lon="15.891818956883">
        <ele>167.6</ele>
        <time>2015-02-21T12:41:34Z</time>
      </trkpt>
      <trkpt lat="60.103608622207" lon="15.891876624355">
        <ele>168</ele>
        <time>2015-02-21T12:41:35Z</time>
      </trkpt>
      <trkpt lat="60.103564198137" lon="15.891941751718">
        <ele>168.2</ele>
        <time>2015-02-21T12:41:37Z</time>
      </trkpt>
      <trkpt lat="60.103458250921" lon="15.892252133475">
        <ele>168.6</ele>
        <time>2015-02-21T12:41:44Z</time>
      </trkpt>
      <trkpt lat="60.10344324732" lon="15.892385405685">
        <ele>169</ele>
        <time>2015-02-21T12:41:47Z</time>
      </trkpt>
      <trkpt lat="60.103399996716" lon="15.892544577966">
        <ele>169.4</ele>
        <time>2015-02-21T12:41:50Z</time>
      </trkpt>
      <trkpt lat="60.103274519673" lon="15.892792598387">
        <ele>170</ele>
        <time>2015-02-21T12:41:57Z</time>
      </trkpt>
      <trkpt lat="60.103247781412" lon="15.892818163182">
        <ele>170</ele>
        <time>2015-02-21T12:41:58Z</time>
      </trkpt>
      <trkpt lat="60.103166476982" lon="15.892872729351">
        <ele>170.2</ele>
        <time>2015-02-21T12:42:01Z</time>
      </trkpt>
      <trkpt lat="60.103058015196" lon="15.892894354653">
        <ele>170</ele>
        <time>2015-02-21T12:42:04Z</time>
      </trkpt>
      <trkpt lat="60.102981069354" lon="15.892913549204">
        <ele>170</ele>
        <time>2015-02-21T12:42:06Z</time>
      </trkpt>
      <trkpt lat="60.102713854382" lon="15.892974150341">
        <ele>169.4</ele>
        <time>2015-02-21T12:42:14Z</time>
      </trkpt>
      <trkpt lat="60.102445968858" lon="15.893071967114">
        <ele>169.6</ele>
        <time>2015-02-21T12:42:21Z</time>
      </trkpt>
      <trkpt lat="60.10242317009" lon="15.893104237429">
        <ele>169.8</ele>
        <time>2015-02-21T12:42:22Z</time>
      </trkpt>
      <trkpt lat="60.102362401315" lon="15.893171879362">
        <ele>169.8</ele>
        <time>2015-02-21T12:42:24Z</time>
      </trkpt>
      <trkpt lat="60.10208957047" lon="15.893446638044">
        <ele>169</ele>
        <time>2015-02-21T12:42:32Z</time>
      </trkpt>
      <trkpt lat="60.102029975161" lon="15.893503299688">
        <ele>169</ele>
        <time>2015-02-21T12:42:34Z</time>
      </trkpt>
      <trkpt lat="60.101881196436" lon="15.893619891917">
        <ele>169.2</ele>
        <time>2015-02-21T12:42:38Z</time>
      </trkpt>
      <trkpt lat="60.101673325316" lon="15.893667501109">
        <ele>169.2</ele>
        <time>2015-02-21T12:42:44Z</time>
      </trkpt>
      <trkpt lat="60.101437039555" lon="15.893597596063">
        <ele>168.8</ele>
        <time>2015-02-21T12:42:49Z</time>
      </trkpt>
      <trkpt lat="60.101354226383" lon="15.893579491159">
        <ele>167.8</ele>
        <time>2015-02-21T12:42:51Z</time>
      </trkpt>
      <trkpt lat="60.101231096272" lon="15.893552333803">
        <ele>166.8</ele>
        <time>2015-02-21T12:42:54Z</time>
      </trkpt>
      <trkpt lat="60.10118348708" lon="15.893537162564">
        <ele>166.6</ele>
        <time>2015-02-21T12:42:55Z</time>
      </trkpt>
      <trkpt lat="60.101061446616" lon="15.893444710207">
        <ele>167</ele>
        <time>2015-02-21T12:42:59Z</time>
      </trkpt>
      <trkpt lat="60.100930856614" lon="15.893400118499">
        <ele>167</ele>
        <time>2015-02-21T12:43:02Z</time>
      </trkpt>
      <trkpt lat="60.100890539675" lon="15.893361142664">
        <ele>167.2</ele>
        <time>2015-02-21T12:43:03Z</time>
      </trkpt>
      <trkpt lat="60.100740838941" lon="15.893304564839">
        <ele>167</ele>
        <time>2015-02-21T12:43:07Z</time>
      </trkpt>
      <trkpt lat="60.100695073767" lon="15.893286459935">
        <ele>167</ele>
        <time>2015-02-21T12:43:08Z</time>
      </trkpt>
      <trkpt lat="60.100567082154" lon="15.893306492676">
        <ele>167</ele>
        <time>2015-02-21T12:43:12Z</time>
      </trkpt>
      <trkpt lat="60.100421237094" lon="15.893378409378">
        <ele>167.4</ele>
        <time>2015-02-21T12:43:16Z</time>
      </trkpt>
      <trkpt lat="60.100315457516" lon="15.893402968345">
        <ele>167</ele>
        <time>2015-02-21T12:43:19Z</time>
      </trkpt>
      <trkpt lat="60.100157710158" lon="15.893422498172">
        <ele>167</ele>
        <time>2015-02-21T12:43:25Z</time>
      </trkpt>
      <trkpt lat="60.099961741336" lon="15.893512855054">
        <ele>168</ele>
        <time>2015-02-21T12:43:32Z</time>
      </trkpt>
      <trkpt lat="60.099769376731" lon="15.89371435593">
        <ele>167.4</ele>
        <time>2015-02-21T12:43:39Z</time>
      </trkpt>
      <trkpt lat="60.09970240535" lon="15.893718882156">
        <ele>166.8</ele>
        <time>2015-02-21T12:43:41Z</time>
      </trkpt>
      <trkpt lat="60.09964205567" lon="15.89366741729">
        <ele>166.2</ele>
        <time>2015-02-21T12:43:43Z</time>
      </trkpt>
      <trkpt lat="60.099487577253" lon="15.893516962185">
        <ele>166.2</ele>
        <time>2015-02-21T12:43:49Z</time>
      </trkpt>
      <trkpt lat="60.099320274529" lon="15.893482680214">
        <ele>166.4</ele>
        <time>2015-02-21T12:43:54Z</time>
      </trkpt>
      <trkpt lat="60.099047192227" lon="15.893440519257">
        <ele>165.8</ele>
        <time>2015-02-21T12:44:01Z</time>
      </trkpt>
      <trkpt lat="60.099017687939" lon="15.893430796253">
        <ele>165.6</ele>
        <time>2015-02-21T12:44:02Z</time>
      </trkpt>
      <trkpt lat="60.098909896705" lon="15.893380337215">
        <ele>165</ele>
        <time>2015-02-21T12:44:05Z</time>
      </trkpt>
      <trkpt lat="60.098869076852" lon="15.893365920347">
        <ele>164.4</ele>
        <time>2015-02-21T12:44:06Z</time>
      </trkpt>
      <trkpt lat="60.09860605283" lon="15.893298362233">
        <ele>164</ele>
        <time>2015-02-21T12:44:14Z</time>
      </trkpt>
      <trkpt lat="60.098260215636" lon="15.893010443968">
        <ele>163.6</ele>
        <time>2015-02-21T12:44:25Z</time>
      </trkpt>
      <trkpt lat="60.098097522957" lon="15.892876501206">
        <ele>164.4</ele>
        <time>2015-02-21T12:44:31Z</time>
      </trkpt>
      <trkpt lat="60.097920916324" lon="15.892681454393">
        <ele>164</ele>
        <time>2015-02-21T12:44:37Z</time>
      </trkpt>
      <trkpt lat="60.097704495666" lon="15.892366965505">
        <ele>165</ele>
        <time>2015-02-21T12:44:45Z</time>
      </trkpt>
      <trkpt lat="60.097523446626" lon="15.892170661407">
        <ele>165</ele>
        <time>2015-02-21T12:44:51Z</time>
      </trkpt>
      <trkpt lat="60.097495031985" lon="15.892165799905">
        <ele>164.4</ele>
        <time>2015-02-21T12:44:52Z</time>
      </trkpt>
      <trkpt lat="60.097364274345" lon="15.89202707946">
        <ele>165</ele>
        <time>2015-02-21T12:44:56Z</time>
      </trkpt>
      <trkpt lat="60.097280120069" lon="15.891829518077">
        <ele>164.6</ele>
        <time>2015-02-21T12:45:00Z</time>
      </trkpt>
      <trkpt lat="60.097256064016" lon="15.891752320778">
        <ele>164.8</ele>
        <time>2015-02-21T12:45:01Z</time>
      </trkpt>
      <trkpt lat="60.097133269181" lon="15.89144621379">
        <ele>164</ele>
        <time>2015-02-21T12:45:06Z</time>
      </trkpt>
      <trkpt lat="60.096966720828" lon="15.891317300168">
        <ele>164.4</ele>
        <time>2015-02-21T12:45:11Z</time>
      </trkpt>
      <trkpt lat="60.096833700075" lon="15.891216717368">
        <ele>163.2</ele>
        <time>2015-02-21T12:45:15Z</time>
      </trkpt>
      <trkpt lat="60.096788270177" lon="15.891190062926">
        <ele>163</ele>
        <time>2015-02-21T12:45:16Z</time>
      </trkpt>
      <trkpt lat="60.096674276337" lon="15.891118313862">
        <ele>162.2</ele>
        <time>2015-02-21T12:45:19Z</time>
      </trkpt>
      <trkpt lat="60.096502615025" lon="15.891016557596">
        <ele>162.2</ele>
        <time>2015-02-21T12:45:24Z</time>
      </trkpt>
      <trkpt lat="60.096256354803" lon="15.890673486429">
        <ele>162.4</ele>
        <time>2015-02-21T12:45:32Z</time>
      </trkpt>
      <trkpt lat="60.096154933813" lon="15.890568209765">
        <ele>163.2</ele>
        <time>2015-02-21T12:45:36Z</time>
      </trkpt>
      <trkpt lat="60.096080418722" lon="15.890497215072">
        <ele>164.2</ele>
        <time>2015-02-21T12:45:39Z</time>
      </trkpt>
      <trkpt lat="60.096057368497" lon="15.890480786548">
        <ele>164.4</ele>
        <time>2015-02-21T12:45:40Z</time>
      </trkpt>
      <trkpt lat="60.09594228501" lon="15.890369474916">
        <ele>165</ele>
        <time>2015-02-21T12:45:45Z</time>
      </trkpt>
      <trkpt lat="60.095926191762" lon="15.890344748311">
        <ele>165.4</ele>
        <time>2015-02-21T12:45:46Z</time>
      </trkpt>
      <trkpt lat="60.095797110502" lon="15.890191862455">
        <ele>166</ele>
        <time>2015-02-21T12:45:53Z</time>
      </trkpt>
      <trkpt lat="60.095643218818" lon="15.890119861934">
        <ele>166.6</ele>
        <time>2015-02-21T12:45:59Z</time>
      </trkpt>
      <trkpt lat="60.095484297994" lon="15.890111144758">
        <ele>167.8</ele>
        <time>2015-02-21T12:46:05Z</time>
      </trkpt>
      <trkpt lat="60.095454961344" lon="15.890129333481">
        <ele>167.8</ele>
        <time>2015-02-21T12:46:06Z</time>
      </trkpt>
      <trkpt lat="60.095271230096" lon="15.890361260654">
        <ele>167.4</ele>
        <time>2015-02-21T12:46:14Z</time>
      </trkpt>
      <trkpt lat="60.095122451371" lon="15.890700559966">
        <ele>168.2</ele>
        <time>2015-02-21T12:46:23Z</time>
      </trkpt>
      <trkpt lat="60.095040727846" lon="15.890873897658">
        <ele>168.6</ele>
        <time>2015-02-21T12:46:27Z</time>
      </trkpt>
      <trkpt lat="60.095023293494" lon="15.890908934">
        <ele>168.8</ele>
        <time>2015-02-21T12:46:28Z</time>
      </trkpt>
      <trkpt lat="60.094877951348" lon="15.891180256103">
        <ele>168.4</ele>
        <time>2015-02-21T12:46:34Z</time>
      </trkpt>
      <trkpt lat="60.094737219247" lon="15.891429366171">
        <ele>168.4</ele>
        <time>2015-02-21T12:46:39Z</time>
      </trkpt>
      <trkpt lat="60.094601767743" lon="15.891586694434">
        <ele>168.8</ele>
        <time>2015-02-21T12:46:44Z</time>
      </trkpt>
      <trkpt lat="60.094429603517" lon="15.891648804313">
        <ele>168.8</ele>
        <time>2015-02-21T12:46:49Z</time>
      </trkpt>
      <trkpt lat="60.094253835074" lon="15.891649642503">
        <ele>168.8</ele>
        <time>2015-02-21T12:46:54Z</time>
      </trkpt>
      <trkpt lat="60.09414688203" lon="15.891644781001">
        <ele>169</ele>
        <time>2015-02-21T12:46:57Z</time>
      </trkpt>
      <trkpt lat="60.094116204276" lon="15.891655677471">
        <ele>168.8</ele>
        <time>2015-02-21T12:46:58Z</time>
      </trkpt>
      <trkpt lat="60.094076054975" lon="15.89170102355">
        <ele>169</ele>
        <time>2015-02-21T12:46:59Z</time>
      </trkpt>
      <trkpt lat="60.093985781912" lon="15.891926329022">
        <ele>169</ele>
        <time>2015-02-21T12:47:01Z</time>
      </trkpt>
      <trkpt lat="60.093871452796" lon="15.892340394882">
        <ele>167.4</ele>
        <time>2015-02-21T12:47:05Z</time>
      </trkpt>
      <trkpt lat="60.093836835549" lon="15.89247383473">
        <ele>166.4</ele>
        <time>2015-02-21T12:47:06Z</time>
      </trkpt>
      <trkpt lat="60.093796602429" lon="15.892610375881">
        <ele>165.8</ele>
        <time>2015-02-21T12:47:07Z</time>
      </trkpt>
      <trkpt lat="60.093763493924" lon="15.892722944798">
        <ele>165</ele>
        <time>2015-02-21T12:47:08Z</time>
      </trkpt>
      <trkpt lat="60.093706748461" lon="15.892867700211">
        <ele>164</ele>
        <time>2015-02-21T12:47:10Z</time>
      </trkpt>
      <trkpt lat="60.093675903069" lon="15.892980772042">
        <ele>163.6</ele>
        <time>2015-02-21T12:47:11Z</time>
      </trkpt>
      <trkpt lat="60.093656624699" lon="15.893062747024">
        <ele>163.2</ele>
        <time>2015-02-21T12:47:12Z</time>
      </trkpt>
      <trkpt lat="60.093637346329" lon="15.893136088649">
        <ele>162.8</ele>
        <time>2015-02-21T12:47:13Z</time>
      </trkpt>
      <trkpt lat="60.093558807926" lon="15.893493409046">
        <ele>162.4</ele>
        <time>2015-02-21T12:47:18Z</time>
      </trkpt>
      <trkpt lat="60.093512288381" lon="15.893845784122">
        <ele>161.8</ele>
        <time>2015-02-21T12:47:23Z</time>
      </trkpt>
      <trkpt lat="60.09348638831" lon="15.893979559246">
        <ele>161.8</ele>
        <time>2015-02-21T12:47:25Z</time>
      </trkpt>
      <trkpt lat="60.093448921217" lon="15.894277451972">
        <ele>161.8</ele>
        <time>2015-02-21T12:47:30Z</time>
      </trkpt>
      <trkpt lat="60.093437689471" lon="15.894643992459">
        <ele>161.6</ele>
        <time>2015-02-21T12:47:37Z</time>
      </trkpt>
      <trkpt lat="60.093407095536" lon="15.894884217713">
        <ele>162.2</ele>
        <time>2015-02-21T12:47:43Z</time>
      </trkpt>
      <trkpt lat="60.093364180208" lon="15.895141961138">
        <ele>161.8</ele>
        <time>2015-02-21T12:47:49Z</time>
      </trkpt>
      <trkpt lat="60.093362755285" lon="15.895339187245">
        <ele>162</ele>
        <time>2015-02-21T12:47:54Z</time>
      </trkpt>
      <trkpt lat="60.093335095015" lon="15.895638504894">
        <ele>162.2</ele>
        <time>2015-02-21T12:47:59Z</time>
      </trkpt>
      <trkpt lat="60.093320259052" lon="15.895955843628">
        <ele>161.4</ele>
        <time>2015-02-21T12:48:04Z</time>
      </trkpt>
      <trkpt lat="60.093312547704" lon="15.896217610365">
        <ele>161.4</ele>
        <time>2015-02-21T12:48:07Z</time>
      </trkpt>
      <trkpt lat="60.093314391722" lon="15.896668472766">
        <ele>161.6</ele>
        <time>2015-02-21T12:48:13Z</time>
      </trkpt>
      <trkpt lat="60.093322019251" lon="15.897016489254">
        <ele>161.6</ele>
        <time>2015-02-21T12:48:17Z</time>
      </trkpt>
      <trkpt lat="60.093328389495" lon="15.897249506074">
        <ele>161.6</ele>
        <time>2015-02-21T12:48:20Z</time>
      </trkpt>
      <trkpt lat="60.093332328988" lon="15.897428711096">
        <ele>161.8</ele>
        <time>2015-02-21T12:48:22Z</time>
      </trkpt>
      <trkpt lat="60.0933279704" lon="15.897925003395">
        <ele>162</ele>
        <time>2015-02-21T12:48:28Z</time>
      </trkpt>
      <trkpt lat="60.093265441426" lon="15.898346110051">
        <ele>161.8</ele>
        <time>2015-02-21T12:48:34Z</time>
      </trkpt>
      <trkpt lat="60.093146753722" lon="15.898766713793">
        <ele>162</ele>
        <time>2015-02-21T12:48:40Z</time>
      </trkpt>
      <trkpt lat="60.093142562772" lon="15.898985565202">
        <ele>161.8</ele>
        <time>2015-02-21T12:48:43Z</time>
      </trkpt>
      <trkpt lat="60.093169133395" lon="15.899107689485">
        <ele>162</ele>
        <time>2015-02-21T12:48:45Z</time>
      </trkpt>
      <trkpt lat="60.093177263838" lon="15.899220845135">
        <ele>162</ele>
        <time>2015-02-21T12:48:47Z</time>
      </trkpt>
      <trkpt lat="60.093192099801" lon="15.899315812062">
        <ele>162.4</ele>
        <time>2015-02-21T12:48:49Z</time>
      </trkpt>
      <trkpt lat="60.093248426169" lon="15.899469033194">
        <ele>162.6</ele>
        <time>2015-02-21T12:48:52Z</time>
      </trkpt>
      <trkpt lat="60.093350014797" lon="15.899598282092">
        <ele>163</ele>
        <time>2015-02-21T12:48:56Z</time>
      </trkpt>
      <trkpt lat="60.093516898426" lon="15.899877986095">
        <ele>163.6</ele>
        <time>2015-02-21T12:49:02Z</time>
      </trkpt>
      <trkpt lat="60.09366576097" lon="15.900111757286">
        <ele>164</ele>
        <time>2015-02-21T12:49:07Z</time>
      </trkpt>
      <trkpt lat="60.093853096435" lon="15.900408560365">
        <ele>163.6</ele>
        <time>2015-02-21T12:49:14Z</time>
      </trkpt>
      <trkpt lat="60.09393565815" lon="15.900676194432">
        <ele>164</ele>
        <time>2015-02-21T12:49:20Z</time>
      </trkpt>
      <trkpt lat="60.093849911313" lon="15.900754984292">
        <ele>164.4</ele>
        <time>2015-02-21T12:49:23Z</time>
      </trkpt>
      <trkpt lat="60.093570542586" lon="15.900840228215">
        <ele>163.4</ele>
        <time>2015-02-21T12:49:30Z</time>
      </trkpt>
      <trkpt lat="60.093534751873" lon="15.900854812721">
        <ele>163</ele>
        <time>2015-02-21T12:49:31Z</time>
      </trkpt>
      <trkpt lat="60.093406424984" lon="15.900874342548">
        <ele>162.4</ele>
        <time>2015-02-21T12:49:35Z</time>
      </trkpt>
      <trkpt lat="60.093380105818" lon="15.900885490475">
        <ele>162</ele>
        <time>2015-02-21T12:49:36Z</time>
      </trkpt>
      <trkpt lat="60.093337441947" lon="15.9009001588">
        <ele>161.6</ele>
        <time>2015-02-21T12:49:38Z</time>
      </trkpt>
    </trkseg>
  </trk>
</gpx>